AA199 / N754AN 7700 Squawk Report (25th of August, 2019)

Aircraft B772 Reg No. N754AN Age 18 years old
Model 777 Jet engines 2 First flight 01-06-01
Registered 18-06-01 Rollout 13-05-01 Delivered 18-06-01
Construction No. 30262 Line No. 0345 Series 223(ER)
ADSHEX AA28F2 Airline name American Airlines Owner N/A
Airfield based Dallas-Fort Worth~TX~N First tracked 2017-07-13 13:51:00
Time Lat Lon Altitude Heading Speed Vertical Rate
2019-08-25 20:51:58 GMT 40.652092 -73.798355 0 151 7 0
2019-08-25 20:51:42 GMT 40.652626 -73.798706 0 160 11 0
2019-08-25 20:51:32 GMT 40.653091 -73.798836 0 174 12 0
2019-08-25 20:51:21 GMT 40.653732 -73.798866 0 180 14 0
2019-08-25 20:51:13 GMT 40.654163 -73.798843 0 180 13 0
2019-08-25 20:51:02 GMT 40.654839 -73.798843 0 180 13 0
2019-08-25 20:50:36 GMT 40.656166 -73.798798 0 219 10 0
2019-08-25 20:50:29 GMT 40.656384 -73.798584 0 264 10 0
2019-08-25 20:50:02 GMT 40.655918 -73.797722 0 0 7 0
2019-08-25 20:49:52 GMT 40.655697 -73.797729 0 0 0 0
2019-08-25 20:46:18 GMT 40.655663 -73.797745 0 0 0 0
2019-08-25 20:46:18 GMT 40.655663 -73.797745 0 0 0 0
2019-08-25 20:45:57 GMT 40.655663 -73.797729 0 0 0 0
2019-08-25 20:45:32 GMT 40.655663 -73.797745 0 0 0 0
2019-08-25 20:44:52 GMT 40.655663 -73.797729 0 0 0 0
2019-08-25 20:43:17 GMT 40.655663 -73.797729 0 0 0 0
2019-08-25 20:43:02 GMT 40.655663 -73.797745 0 0 0 0
2019-08-25 20:41:18 GMT 40.655663 -73.797745 0 0 0 0
2019-08-25 20:40:44 GMT 40.655663 -73.797729 0 0 0 0
2019-08-25 20:39:33 GMT 40.655663 -73.797745 0 0 0 0
2019-08-25 20:38:44 GMT 40.655663 -73.797729 0 0 0 0
2019-08-25 20:38:24 GMT 40.655663 -73.797745 0 0 0 0
2019-08-25 20:38:04 GMT 40.655663 -73.797729 0 0 0 0
2019-08-25 20:37:59 GMT 40.655663 -73.797745 0 0 0 0
2019-08-25 20:36:39 GMT 40.655663 -73.797745 0 0 0 0
2019-08-25 20:35:39 GMT 40.655663 -73.797745 0 0 0 0
2019-08-25 20:33:24 GMT 40.655663 -73.797745 0 0 0 0
2019-08-25 20:32:29 GMT 40.655663 -73.797745 0 0 0 0
2019-08-25 20:31:50 GMT 40.655663 -73.797745 0 0 0 0
2019-08-25 20:30:30 GMT 40.655663 -73.797745 0 0 0 0
2019-08-25 20:28:40 GMT 40.655663 -73.797745 0 0 0 0
2019-08-25 20:27:16 GMT 40.655663 -73.797745 0 0 0 0
2019-08-25 20:26:36 GMT 40.655663 -73.797745 0 0 0 0
2019-08-25 20:26:27 GMT 40.655674 -73.797745 0 0 0 0
2019-08-25 20:25:57 GMT 40.655663 -73.797745 0 0 0 0
2019-08-25 20:24:56 GMT 40.655663 -73.797745 0 0 0 0
2019-08-25 20:24:40 GMT 40.655663 -73.797745 0 0 0 0
2019-08-25 20:24:34 GMT 40.655663 -73.797745 0 0 0 0
2019-08-25 20:23:48 GMT 40.654964 -73.797760 0 0 8 0
2019-08-25 20:23:38 GMT 40.654564 -73.797760 0 0 10 0
2019-08-25 20:23:27 GMT 40.654118 -73.797760 0 0 10 0
2019-08-25 20:23:15 GMT 40.653603 -73.797775 0 0 12 0
2019-08-25 20:23:08 GMT 40.653099 -73.797745 0 343 12 0
2019-08-25 20:23:02 GMT 40.652882 -73.797661 0 334 12 0
2019-08-25 20:22:55 GMT 40.652557 -73.797462 0 331 11 0
2019-08-25 20:22:44 GMT 40.652081 -73.797104 0 331 12 0
2019-08-25 20:22:34 GMT 40.651611 -73.796768 0 331 11 0
2019-08-25 20:22:29 GMT 40.651382 -73.796585 0 329 11 0
2019-08-25 20:22:19 GMT 40.650974 -73.796227 0 284 10 0
2019-08-25 20:22:16 GMT 40.650906 -73.796120 0 267 10 0
2019-08-25 20:22:11 GMT 40.650906 -73.795853 0 244 11 0
2019-08-25 20:22:03 GMT 40.651089 -73.795387 0 241 12 0
2019-08-25 20:21:54 GMT 40.651344 -73.794792 0 239 13 0
2019-08-25 20:21:41 GMT 40.651829 -73.793625 0 241 17 0
2019-08-25 20:21:30 GMT 40.652081 -73.792908 0 264 16 0
2019-08-25 20:21:15 GMT 40.651962 -73.791656 0 286 14 0
2019-08-25 20:21:10 GMT 40.651859 -73.791222 0 286 14 0
2019-08-25 20:21:00 GMT 40.651646 -73.790390 0 286 14 0
2019-08-25 20:20:50 GMT 40.651497 -73.789673 0 284 15 0
2019-08-25 20:20:45 GMT 40.651417 -73.789253 0 278 16 0
2019-08-25 20:20:39 GMT 40.651382 -73.788696 0 267 16 0
2019-08-25 20:20:29 GMT 40.651463 -73.787674 0 250 17 0
2019-08-25 20:20:24 GMT 40.651588 -73.787224 0 241 16 0
2019-08-25 20:20:14 GMT 40.651939 -73.786377 0 239 17 0
2019-08-25 20:20:04 GMT 40.652290 -73.785583 0 241 17 0
2019-08-25 20:19:57 GMT 40.652534 -73.784943 0 250 17 0
2019-08-25 20:19:53 GMT 40.652637 -73.784538 0 267 17 0
2019-08-25 20:19:47 GMT 40.652637 -73.783913 0 286 17 0
2019-08-25 20:19:44 GMT 40.652550 -73.783569 0 298 17 0
2019-08-25 20:19:35 GMT 40.652279 -73.782928 0 300 16 0
2019-08-25 20:19:32 GMT 40.652172 -73.782700 0 300 15 0
2019-08-25 20:19:21 GMT 40.651726 -73.781738 0 300 15 0
2019-08-25 20:19:15 GMT 40.651577 -73.781387 0 300 12 0
2019-08-25 20:19:10 GMT 40.651440 -73.781090 0 298 10 0
2019-08-25 20:18:59 GMT 40.651234 -73.780609 0 286 8 0
2019-08-25 20:18:53 GMT 40.651150 -73.780373 0 264 8 0
2019-08-25 20:18:46 GMT 40.651211 -73.779984 0 225 9 0
2019-08-25 20:18:39 GMT 40.651451 -73.779831 0 241 10 0
2019-08-25 20:18:31 GMT 40.651581 -73.779480 0 292 10 0
2019-08-25 20:18:27 GMT 40.651508 -73.779251 0 300 13 0
2019-08-25 20:18:22 GMT 40.651325 -73.778854 0 300 14 0
2019-08-25 20:18:17 GMT 40.651184 -73.778549 0 300 14 0
2019-08-25 20:18:04 GMT 40.650822 -73.777725 0 300 9 0
2019-08-25 20:18:00 GMT 40.650742 -73.777542 0 300 8 0
2019-08-25 20:17:55 GMT 40.650646 -73.777344 0 300 6 0
2019-08-25 20:17:48 GMT 40.650513 -73.777054 0 300 10 0
2019-08-25 20:17:44 GMT 40.650433 -73.776871 0 300 12 0
2019-08-25 20:17:32 GMT 40.650055 -73.776031 0 300 13 0
2019-08-25 20:17:22 GMT 40.649746 -73.775375 0 300 14 0
2019-08-25 20:17:12 GMT 40.649380 -73.774551 0 300 17 0
2019-08-25 20:17:06 GMT 40.649162 -73.774078 0 300 17 0
2019-08-25 20:17:00 GMT 40.648865 -73.773438 0 300 17 0
2019-08-25 20:16:51 GMT 40.648529 -73.772675 0 300 16 0
2019-08-25 20:16:39 GMT 40.648170 -73.771866 0 300 15 0
2019-08-25 20:16:28 GMT 40.647797 -73.771072 0 315 12 0
2019-08-25 20:16:17 GMT 40.647411 -73.770477 0 0 9 0
2019-08-25 20:16:07 GMT 40.647003 -73.770119 0 337 11 0
2019-08-25 20:15:55 GMT 40.646503 -73.769897 0 351 10 0
2019-08-25 20:15:43 GMT 40.645992 -73.769852 0 0 8 0
2019-08-25 20:15:33 GMT 40.645718 -73.769852 0 0 6 0
2019-08-25 20:15:22 GMT 40.645424 -73.769852 0 0 7 0
2019-08-25 20:15:11 GMT 40.645100 -73.769867 0 0 8 0
2019-08-25 20:15:00 GMT 40.644688 -73.769867 0 300 15 0
2019-08-25 20:14:49 GMT 40.644081 -73.769531 0 300 15 0
2019-08-25 20:14:38 GMT 40.643734 -73.768761 0 300 16 0
2019-08-25 20:14:27 GMT 40.643337 -73.767883 0 300 15 0
2019-08-25 20:14:14 GMT 40.643002 -73.767136 0 300 6 0
2019-08-25 20:14:05 GMT 40.642899 -73.766922 0 300 3 0
2019-08-25 20:13:53 GMT 40.642799 -73.766693 0 300 5 0
2019-08-25 20:13:42 GMT 40.642616 -73.766296 0 300 10 0
2019-08-25 20:13:31 GMT 40.642319 -73.765640 0 300 13 0
2019-08-25 20:13:19 GMT 40.641964 -73.764862 0 300 15 0
2019-08-25 20:13:08 GMT 40.641094 -73.762924 0 300 16 0
2019-08-25 20:12:57 GMT 40.641094 -73.762924 0 300 16 0
2019-08-25 20:12:45 GMT 40.640682 -73.762024 0 300 17 0
2019-08-25 20:12:34 GMT 40.640259 -73.761124 0 0 21 0
2019-08-25 20:12:24 GMT 40.639580 -73.760643 0 0 17 0
2019-08-25 20:12:13 GMT 40.638359 -73.760712 0 8 29 0
2019-08-25 20:12:02 GMT 40.636799 -73.761490 0 30 43 0
2019-08-25 20:11:52 GMT 40.634098 -73.763580 -250 30 87 -64
2019-08-25 20:11:40 GMT 40.629684 -73.767029 -300 30 123 -192
2019-08-25 20:11:34 GMT 40.626045 -73.769760 -225 30 127 -1600
2019-08-25 20:11:29 GMT 40.624283 -73.771179 -150 33 128 -128
2019-08-25 20:11:26 GMT 40.622505 -73.772697 -150 33 128 -128
2019-08-25 20:11:23 GMT 40.621483 -73.773384 -100 32 128 -768
2019-08-25 20:11:19 GMT 40.619015 -73.775314 -50 30 128 -704
2019-08-25 20:11:12 GMT 40.614964 -73.778564 175 30 120 -704
2019-08-25 20:11:08 GMT 40.613522 -73.779625 75 30 124 -512
2019-08-25 20:10:56 GMT 40.607895 -73.784058 200 30 120 -640
2019-08-25 20:10:52 GMT 40.604874 -73.786316 250 31 120 -640
2019-08-25 20:10:45 GMT 40.602539 -73.788208 300 31 120 -768
2019-08-25 20:10:42 GMT 40.600719 -73.789673 350 31 121 -704
2019-08-25 20:10:38 GMT 40.598579 -73.791359 475 30 125 -832
2019-08-25 20:10:35 GMT 40.597507 -73.792168 450 30 124 -640
2019-08-25 20:10:32 GMT 40.595627 -73.793640 450 31 123 -768
2019-08-25 20:10:25 GMT 40.592667 -73.795914 575 29 127 -768
2019-08-25 20:10:22 GMT 40.590225 -73.797729 600 29 128 -768
2019-08-25 20:10:14 GMT 40.586929 -73.800232 700 31 127 -640
2019-08-25 20:10:11 GMT 40.585732 -73.801163 700 31 127 -640
2019-08-25 20:10:04 GMT 40.581959 -73.804153 825 30 129 -768
2019-08-25 20:10:01 GMT 40.579559 -73.806030 850 31 126 -448
2019-08-25 20:09:52 GMT 40.575954 -73.808899 975 31 126 -640
2019-08-25 20:09:49 GMT 40.574341 -73.810181 950 31 126 -640
2019-08-25 20:09:46 GMT 40.572647 -73.811523 975 31 131 -640
2019-08-25 20:09:41 GMT 40.568413 -73.814827 1,150 30 153 -768
2019-08-25 20:09:38 GMT 40.568413 -73.814827 1,050 30 146 -896
2019-08-25 20:09:31 GMT 40.563538 -73.818604 1,175 30 156 -832
2019-08-25 20:09:28 GMT 40.561665 -73.820137 1,200 30 162 -1152
2019-08-25 20:09:19 GMT 40.556305 -73.824280 1,350 30 172 -1024
2019-08-25 20:09:16 GMT 40.554886 -73.825439 1,500 31 172 -832
2019-08-25 20:09:07 GMT 40.548534 -73.830376 1,550 30 172 -1088
2019-08-25 20:09:03 GMT 40.545834 -73.832367 1,600 29 172 -1088
2019-08-25 20:08:56 GMT 40.540283 -73.836670 1,750 30 172 -576
2019-08-25 20:08:43 GMT 40.531822 -73.843292 1,750 31 172 128
2019-08-25 20:08:35 GMT 40.526142 -73.847725 1,750 30 171 0
2019-08-25 20:08:31 GMT 40.523529 -73.849731 1,750 30 171 -64
2019-08-25 20:08:24 GMT 40.518173 -73.853882 1,750 30 174 64
2019-08-25 20:08:21 GMT 40.516159 -73.855469 1,750 30 174 128
2019-08-25 20:08:13 GMT 40.510826 -73.859650 1,725 31 172 -64
2019-08-25 20:08:10 GMT 40.508175 -73.861710 1,725 30 173 -64
2019-08-25 20:08:07 GMT 40.507336 -73.862396 1,725 30 173 0
2019-08-25 20:07:58 GMT 40.500824 -73.867432 1,725 30 173 64
2019-08-25 20:07:54 GMT 40.497391 -73.870117 1,725 30 173 0
2019-08-25 20:07:49 GMT 40.494907 -73.872070 1,725 31 171 0
2019-08-25 20:07:46 GMT 40.492393 -73.874008 1,725 31 171 0
2019-08-25 20:07:39 GMT 40.487961 -73.877502 1,725 31 171 0
2019-08-25 20:07:36 GMT 40.484940 -73.879944 1,725 31 171 0
2019-08-25 20:07:26 GMT 40.472809 -73.889648 1,725 1 178 -64
2019-08-25 20:07:17 GMT 40.472809 -73.889648 1,725 30 171 -64
2019-08-25 20:07:14 GMT 40.471260 -73.890862 1,725 30 173 -64
2019-08-25 20:07:03 GMT 40.463203 -73.896980 1,725 26 173 0
2019-08-25 20:06:58 GMT 40.459396 -73.899719 1,725 1 178 0
2019-08-25 20:06:52 GMT 40.455570 -73.902161 1,725 23 173 0
2019-08-25 20:06:44 GMT 40.449097 -73.905334 1,725 13 176 0
2019-08-25 20:06:41 GMT 40.446819 -73.906090 1,725 12 176 0
2019-08-25 20:06:34 GMT 40.440861 -73.907150 1,725 2 178 0
2019-08-25 20:06:31 GMT 40.438751 -73.907288 1,725 1 178 0
2019-08-25 20:06:26 GMT 40.434036 -73.907410 1,725 1 178 0
2019-08-25 20:06:22 GMT 40.431736 -73.907524 1,725 1 178 0
2019-08-25 20:06:19 GMT 40.428848 -73.907654 1,725 1 178 0
2019-08-25 20:06:10 GMT 40.421680 -73.907967 1,725 1 179 -64
2019-08-25 20:06:07 GMT 40.419121 -73.908028 1,725 1 178 -64
2019-08-25 20:05:58 GMT 40.411903 -73.908272 1,750 0 180 0
2019-08-25 20:05:55 GMT 40.409344 -73.908272 1,750 348 186 64
2019-08-25 20:05:52 GMT 40.406597 -73.908211 1,725 354 183 64
2019-08-25 20:05:47 GMT 40.402405 -73.907715 1,725 350 184 64
2019-08-25 20:05:44 GMT 40.400219 -73.907150 1,725 338 189 64
2019-08-25 20:05:40 GMT 40.396454 -73.905457 1,725 336 189 64
2019-08-25 20:05:36 GMT 40.392910 -73.902657 1,725 316 194 0
2019-08-25 20:05:33 GMT 40.391422 -73.901161 1,725 319 193 0
2019-08-25 20:05:29 GMT 40.388992 -73.898071 1,725 315 194 0
2019-08-25 20:05:26 GMT 40.386536 -73.894608 1,725 312 194 64
2019-08-25 20:05:21 GMT 40.383408 -73.889893 1,725 312 192 64
2019-08-25 20:05:15 GMT 40.379875 -73.884682 1,725 312 192 0
2019-08-25 20:05:12 GMT 40.378922 -73.883301 1,725 312 192 64
2019-08-25 20:05:09 GMT 40.377224 -73.880745 1,725 312 192 64
2019-08-25 20:05:01 GMT 40.372238 -73.873413 1,725 312 194 -64
2019-08-25 20:04:50 GMT 40.365463 -73.863281 1,725 311 195 -64
2019-08-25 20:04:47 GMT 40.364094 -73.861145 1,725 311 198 -128
2019-08-25 20:04:42 GMT 40.360153 -73.854980 1,750 310 207 0
2019-08-25 20:04:38 GMT 40.351776 -73.840454 1,700 309 211 128
2019-08-25 20:04:28 GMT 40.351776 -73.840454 1,700 303 226 64
2019-08-25 20:04:19 GMT 40.345505 -73.823669 1,700 294 237 0
2019-08-25 20:04:07 GMT 40.342869 -73.815331 1,725 293 248 -256
2019-08-25 20:04:02 GMT 40.340588 -73.808212 1,750 293 252 -448
2019-08-25 20:03:55 GMT 40.337467 -73.798286 1,875 293 260 -704
2019-08-25 20:03:51 GMT 40.335388 -73.791809 1,875 293 258 -640
2019-08-25 20:03:44 GMT 40.332138 -73.781616 1,950 293 262 -704
2019-08-25 20:03:40 GMT 40.330215 -73.775635 2,000 293 264 -768
2019-08-25 20:03:32 GMT 40.324493 -73.758057 2,100 294 268 -704
2019-08-25 20:03:29 GMT 40.324493 -73.758057 2,150 294 269 -832
2019-08-25 20:03:25 GMT 40.322800 -73.752808 2,200 294 271 -960
2019-08-25 20:03:21 GMT 40.321381 -73.748413 2,250 293 271 -960
2019-08-25 20:03:16 GMT 40.315823 -73.730499 2,900 293 273 -960
2019-08-25 20:03:10 GMT 40.315823 -73.730499 2,450 289 274 -960
2019-08-25 20:03:03 GMT 40.313278 -73.719543 2,525 286 276 -960
2019-08-25 20:02:58 GMT 40.312408 -73.710876 2,650 271 281 -1088
2019-08-25 20:02:55 GMT 40.312889 -73.698914 2,700 265 281 -1088
2019-08-25 20:02:48 GMT 40.313690 -73.693848 2,825 253 284 -1344
2019-08-25 20:02:43 GMT 40.315403 -73.686989 2,925 246 286 -1344
2019-08-25 20:02:37 GMT 40.319504 -73.676697 3,075 233 288 -1280
2019-08-25 20:02:30 GMT 40.325596 -73.666824 3,325 211 289 -1024
2019-08-25 20:02:27 GMT 40.328522 -73.663269 3,275 212 289 -1024
2019-08-25 20:02:24 GMT 40.332001 -73.659729 3,325 213 288 -1024
2019-08-25 20:02:18 GMT 40.337173 -73.655396 3,475 211 289 -1024
2019-08-25 20:02:15 GMT 40.341145 -73.652466 3,475 209 288 -1024
2019-08-25 20:02:12 GMT 40.345009 -73.649719 3,525 209 288 -1024
2019-08-25 20:02:05 GMT 40.354568 -73.643005 3,675 209 288 -1024
2019-08-25 20:02:02 GMT 40.356812 -73.641418 3,700 209 288 -1024
2019-08-25 20:01:57 GMT 40.363358 -73.636780 3,925 209 289 -1088
2019-08-25 20:01:53 GMT 40.366795 -73.634369 3,850 209 289 -1088
2019-08-25 20:01:50 GMT 40.371048 -73.631348 3,900 209 289 -1088
2019-08-25 20:01:47 GMT 40.373978 -73.629272 3,975 209 289 -1152
2019-08-25 20:01:43 GMT 40.381943 -73.623535 4,825 209 289 -1216
2019-08-25 20:01:40 GMT 40.381943 -73.623535 4,075 209 289 -1152
2019-08-25 20:01:36 GMT 40.387253 -73.619812 4,200 209 290 -1280
2019-08-25 20:01:33 GMT 40.392242 -73.616272 4,275 209 290 -1408
2019-08-25 20:01:30 GMT 40.400826 -73.610146 4,475 209 290 -1472
2019-08-25 20:01:25 GMT 40.400826 -73.610146 4,450 209 289 -1408
2019-08-25 20:01:22 GMT 40.404144 -73.607788 4,550 209 289 -1472
2019-08-25 20:01:15 GMT 40.413021 -73.601532 4,700 209 290 -1472
2019-08-25 20:01:11 GMT 40.416931 -73.598785 4,800 209 290 -1472
2019-08-25 20:01:03 GMT 40.426754 -73.591919 5,000 209 290 -1664
2019-08-25 20:00:58 GMT 40.431976 -73.588318 5,100 208 287 -1728
2019-08-25 20:00:51 GMT 40.439880 -73.582802 5,325 208 287 -1728
2019-08-25 20:00:48 GMT 40.444118 -73.579872 5,375 208 287 -1728
2019-08-25 20:00:40 GMT 40.454041 -73.573059 5,700 208 283 -1792
2019-08-25 20:00:37 GMT 40.456512 -73.571411 5,750 208 283 -1792
2019-08-25 20:00:34 GMT 40.460224 -73.568825 5,850 208 282 -1792
2019-08-25 20:00:30 GMT 40.466465 -73.564514 6,000 208 281 -1856
2019-08-25 20:00:27 GMT 40.468513 -73.563080 6,050 209 280 -1856
2019-08-25 20:00:24 GMT 40.472328 -73.560455 6,225 209 280 -1792
2019-08-25 20:00:20 GMT 40.477570 -73.556763 6,300 209 279 -1792
2019-08-25 20:00:16 GMT 40.480988 -73.554344 6,450 209 277 -1664
2019-08-25 20:00:12 GMT 40.484760 -73.551720 6,475 209 277 -1664
2019-08-25 20:00:08 GMT 40.492580 -73.546227 6,650 209 277 -1344
2019-08-25 20:00:05 GMT 40.494164 -73.545166 6,675 208 279 -704
2019-08-25 20:00:02 GMT 40.498489 -73.542114 6,725 209 280 -320
2019-08-25 19:59:55 GMT 40.505054 -73.537613 6,725 208 281 0
2019-08-25 19:59:51 GMT 40.510365 -73.533867 6,725 209 283 0
2019-08-25 19:59:46 GMT 40.515530 -73.530243 6,725 209 283 0
2019-08-25 19:59:43 GMT 40.523758 -73.524475 6,725 209 283 0
2019-08-25 19:59:39 GMT 40.523758 -73.524475 6,725 210 283 0
2019-08-25 19:59:34 GMT 40.529636 -73.520195 6,725 211 283 64
2019-08-25 19:59:31 GMT 40.533825 -73.517014 6,725 211 283 64
2019-08-25 19:59:23 GMT 40.542484 -73.509521 6,725 219 285 0
2019-08-25 19:59:20 GMT 40.545090 -73.506653 6,725 222 284 -64
2019-08-25 19:59:15 GMT 40.549141 -73.501656 6,725 229 285 0
2019-08-25 19:59:12 GMT 40.554840 -73.493408 6,725 229 286 0
2019-08-25 19:59:09 GMT 40.554840 -73.493408 6,725 229 285 0
2019-08-25 19:59:04 GMT 40.559738 -73.486145 6,725 229 284 0
2019-08-25 19:59:00 GMT 40.563293 -73.480873 6,725 229 284 0
2019-08-25 19:58:57 GMT 40.569576 -73.471634 6,725 229 282 0
2019-08-25 19:58:52 GMT 40.569576 -73.471634 6,725 229 283 0
2019-08-25 19:58:49 GMT 40.574112 -73.464966 6,725 229 283 0
2019-08-25 19:58:42 GMT 40.578140 -73.459045 6,725 229 283 0
2019-08-25 19:58:39 GMT 40.581215 -73.454529 6,725 229 284 0
2019-08-25 19:58:36 GMT 40.583076 -73.451843 6,725 229 282 0
2019-08-25 19:58:32 GMT 40.587593 -73.445099 6,725 229 283 0
2019-08-25 19:58:29 GMT 40.590912 -73.440247 6,725 229 282 0
2019-08-25 19:58:26 GMT 40.592293 -73.438171 6,725 229 281 0
2019-08-25 19:58:19 GMT 40.600861 -73.425316 6,725 230 280 0
2019-08-25 19:58:16 GMT 40.600861 -73.425316 6,725 229 281 0
2019-08-25 19:58:08 GMT 40.608124 -73.414551 6,725 229 282 0
2019-08-25 19:58:05 GMT 40.610641 -73.410828 6,725 229 283 0
2019-08-25 19:57:58 GMT 40.615894 -73.403091 6,725 229 283 64
2019-08-25 19:57:55 GMT 40.620087 -73.396973 6,725 228 284 0
2019-08-25 19:57:51 GMT 40.622910 -73.392883 6,725 228 285 -64
2019-08-25 19:57:48 GMT 40.625153 -73.389648 6,725 228 284 0
2019-08-25 19:57:44 GMT 40.629398 -73.383492 6,725 228 283 0
2019-08-25 19:57:41 GMT 40.631584 -73.380310 6,725 229 283 -64
2019-08-25 19:57:37 GMT 40.635403 -73.374687 6,725 229 283 0
2019-08-25 19:57:33 GMT 40.641129 -73.366333 6,725 229 281 -64
2019-08-25 19:57:27 GMT 40.643509 -73.362915 6,725 229 281 0
2019-08-25 19:57:24 GMT 40.646294 -73.358833 6,725 229 281 -64
2019-08-25 19:57:21 GMT 40.648453 -73.355652 6,725 229 281 -64
2019-08-25 19:57:16 GMT 40.653233 -73.348656 6,725 229 281 0
2019-08-25 19:57:13 GMT 40.656116 -73.344414 6,725 229 282 0
2019-08-25 19:57:09 GMT 40.659760 -73.339050 6,725 229 281 0
2019-08-25 19:57:06 GMT 40.662094 -73.335571 6,725 230 283 0
2019-08-25 19:57:03 GMT 40.664429 -73.332092 6,725 229 282 0
2019-08-25 19:57:00 GMT 40.667381 -73.327751 6,725 230 283 0
2019-08-25 19:56:56 GMT 40.671204 -73.321838 6,725 230 283 0
2019-08-25 19:56:53 GMT 40.673676 -73.317993 6,725 231 283 0
2019-08-25 19:56:50 GMT 40.676056 -73.314087 6,725 233 283 0
2019-08-25 19:56:44 GMT 40.680496 -73.306213 6,725 237 283 0
2019-08-25 19:56:41 GMT 40.682281 -73.302780 6,725 238 283 64
2019-08-25 19:56:38 GMT 40.685444 -73.296227 6,725 238 284 0
2019-08-25 19:56:35 GMT 40.687355 -73.292290 6,725 238 284 -64
2019-08-25 19:56:31 GMT 40.689682 -73.287483 6,725 238 285 -64
2019-08-25 19:56:26 GMT 40.693268 -73.280151 6,725 238 286 -64
2019-08-25 19:56:23 GMT 40.695686 -73.275185 6,725 238 285 -64
2019-08-25 19:56:19 GMT 40.697845 -73.270813 6,725 238 285 0
2019-08-25 19:56:15 GMT 40.701321 -73.263641 6,750 238 285 -64
2019-08-25 19:56:11 GMT 40.706627 -73.252029 6,725 240 285 0
2019-08-25 19:56:07 GMT 40.706627 -73.252029 6,725 242 286 64
2019-08-25 19:56:04 GMT 40.709061 -73.245605 6,725 260 289 0
2019-08-25 19:56:01 GMT 40.709930 -73.243042 6,725 253 288 0
2019-08-25 19:55:57 GMT 40.711979 -73.234924 6,725 260 289 0
2019-08-25 19:55:53 GMT 40.713318 -73.223999 6,725 266 288 64
2019-08-25 19:55:50 GMT 40.713318 -73.223999 6,725 271 288 0
2019-08-25 19:55:46 GMT 40.713318 -73.216797 6,725 275 288 0
2019-08-25 19:55:43 GMT 40.712769 -73.210205 6,725 281 288 0
2019-08-25 19:55:40 GMT 40.712166 -73.205902 6,725 283 288 0
2019-08-25 19:55:35 GMT 40.710815 -73.198906 6,725 287 287 -64
2019-08-25 19:55:32 GMT 40.709015 -73.191040 6,725 287 287 0
2019-08-25 19:55:29 GMT 40.707932 -73.186363 6,725 287 288 64
2019-08-25 19:55:24 GMT 40.706673 -73.180992 6,725 287 288 128
2019-08-25 19:55:19 GMT 40.704391 -73.170944 6,725 287 288 64
2019-08-25 19:55:13 GMT 40.701004 -73.156128 6,725 287 291 -256
2019-08-25 19:55:10 GMT 40.701004 -73.156128 6,725 287 290 -256
2019-08-25 19:55:05 GMT 40.699173 -73.148132 6,800 288 290 -640
2019-08-25 19:55:02 GMT 40.697876 -73.142349 6,800 288 290 -448
2019-08-25 19:54:57 GMT 40.695786 -73.133423 6,850 288 290 -1216
2019-08-25 19:54:53 GMT 40.694641 -73.128662 6,975 288 291 -1216
2019-08-25 19:54:49 GMT 40.692719 -73.120544 7,025 288 292 -1152
2019-08-25 19:54:45 GMT 40.691402 -73.114952 7,075 288 292 -1152
2019-08-25 19:54:41 GMT 40.689743 -73.108032 7,175 288 292 -1280
2019-08-25 19:54:38 GMT 40.688423 -73.102219 7,225 287 293 -1344
2019-08-25 19:54:34 GMT 40.687077 -73.096222 7,325 245 291 -1280
2019-08-25 19:54:31 GMT 40.684746 -73.083740 7,450 284 294 -1600
2019-08-25 19:54:28 GMT 40.684746 -73.083740 7,500 281 294 -1472
2019-08-25 19:54:23 GMT 40.683838 -73.075928 7,600 275 294 -1472
2019-08-25 19:54:20 GMT 40.683746 -73.064514 7,725 268 294 -1472
2019-08-25 19:54:17 GMT 40.683746 -73.064514 7,750 263 294 -1600
2019-08-25 19:54:12 GMT 40.684662 -73.056580 7,875 257 293 -1536
2019-08-25 19:54:08 GMT 40.686192 -73.049156 7,950 254 293 -1472
2019-08-25 19:54:05 GMT 40.687180 -73.045654 8,050 245 291 -1280
2019-08-25 19:53:59 GMT 40.691032 -73.035301 8,125 243 291 -1216
2019-08-25 19:53:56 GMT 40.695465 -73.026855 8,275 235 292 -1216
2019-08-25 19:53:49 GMT 40.699177 -73.021255 8,350 226 291 -1152
2019-08-25 19:53:46 GMT 40.703228 -73.016258 8,425 220 291 -1152
2019-08-25 19:53:43 GMT 40.708069 -73.011208 8,500 217 291 -960
2019-08-25 19:53:37 GMT 40.711979 -73.007462 8,550 217 292 -832
2019-08-25 19:53:32 GMT 40.717163 -73.002502 8,600 216 292 -832
2019-08-25 19:53:26 GMT 40.723385 -72.996536 8,700 217 293 -448
2019-08-25 19:53:23 GMT 40.727371 -72.992737 8,725 217 294 0
2019-08-25 19:53:18 GMT 40.732838 -72.987488 8,725 217 294 -128
2019-08-25 19:53:15 GMT 40.736233 -72.984177 8,725 217 294 -128
2019-08-25 19:53:11 GMT 40.740330 -72.980240 8,725 217 294 -256
2019-08-25 19:53:07 GMT 40.745033 -72.975685 8,750 217 294 -576
2019-08-25 19:53:04 GMT 40.750759 -72.970192 8,850 216 305 -1472
2019-08-25 19:52:58 GMT 40.755974 -72.965202 9,000 217 297 -832
2019-08-25 19:52:55 GMT 40.757881 -72.963387 8,925 217 297 -832
2019-08-25 19:52:51 GMT 40.762527 -72.958862 8,950 217 297 -832
2019-08-25 19:52:47 GMT 40.767891 -72.953712 9,050 217 299 -832
2019-08-25 19:52:44 GMT 40.769669 -72.952026 9,175 217 302 -896
2019-08-25 19:52:41 GMT 40.774750 -72.947144 9,125 217 301 -832
2019-08-25 19:52:36 GMT 40.779015 -72.943039 9,225 217 302 -896
2019-08-25 19:52:32 GMT 40.783310 -72.938904 9,250 216 302 -960
2019-08-25 19:52:29 GMT 40.791164 -72.931427 9,325 216 304 -1216
2019-08-25 19:52:26 GMT 40.791164 -72.931427 9,350 216 304 -1216
2019-08-25 19:52:22 GMT 40.795532 -72.927368 9,425 216 304 -1280
2019-08-25 19:52:19 GMT 40.798874 -72.924194 9,500 216 304 -1472
2019-08-25 19:52:15 GMT 40.803589 -72.919800 9,650 216 304 -1472
2019-08-25 19:52:12 GMT 40.805969 -72.917542 9,675 216 304 -1472
2019-08-25 19:52:08 GMT 40.812160 -72.911705 9,800 216 304 -1664
2019-08-25 19:52:02 GMT 40.819611 -72.904663 9,975 216 305 -1536
2019-08-25 19:51:56 GMT 40.825104 -72.899406 10,100 216 305 -1472
2019-08-25 19:51:53 GMT 40.832829 -72.891975 10,225 217 305 -1472
2019-08-25 19:51:50 GMT 40.832829 -72.891975 10,275 217 305 -1472
2019-08-25 19:51:44 GMT 40.839569 -72.885498 10,425 217 304 -1472
2019-08-25 19:51:41 GMT 40.842453 -72.882812 10,475 216 305 -1536
2019-08-25 19:51:37 GMT 40.847446 -72.877998 10,600 216 305 -1536
2019-08-25 19:51:33 GMT 40.852249 -72.873413 10,700 216 305 -1600
2019-08-25 19:51:29 GMT 40.855221 -72.870567 10,775 216 305 -1536
2019-08-25 19:51:26 GMT 40.859344 -72.866638 10,850 216 304 -1536
2019-08-25 19:51:22 GMT 40.865276 -72.860954 11,000 216 305 -1536
2019-08-25 19:51:16 GMT 40.871655 -72.854836 11,125 217 305 -1472
2019-08-25 19:51:12 GMT 40.875656 -72.850967 11,150 239 311 0
2019-08-25 19:51:09 GMT 40.883926 -72.842834 11,500 218 305 -1408
2019-08-25 19:51:05 GMT 40.883926 -72.842834 11,375 218 305 -1408
2019-08-25 19:51:01 GMT 40.892075 -72.834717 11,500 218 307 -1280
2019-08-25 19:50:57 GMT 40.892075 -72.834717 11,525 217 307 -1216
2019-08-25 19:50:53 GMT 40.896187 -72.830681 11,725 216 308 -768
2019-08-25 19:50:49 GMT 40.901356 -72.825623 11,700 216 308 -768
2019-08-25 19:50:46 GMT 40.904335 -72.822754 11,725 216 308 -640
2019-08-25 19:50:42 GMT 40.908920 -72.818359 11,725 218 307 0
2019-08-25 19:50:39 GMT 40.913460 -72.813698 11,725 221 308 0
2019-08-25 19:50:35 GMT 40.917343 -72.809265 11,725 225 309 0
2019-08-25 19:50:32 GMT 40.919834 -72.806145 11,725 225 309 0
2019-08-25 19:50:29 GMT 40.923981 -72.800476 11,700 230 309 0
2019-08-25 19:50:25 GMT 40.931847 -72.787231 11,700 233 309 0
2019-08-25 19:50:20 GMT 40.933289 -72.784363 11,700 239 311 0
2019-08-25 19:50:17 GMT 40.936035 -72.778122 11,700 240 312 0
2019-08-25 19:50:14 GMT 40.936035 -72.778122 11,725 244 313 -64
2019-08-25 19:50:11 GMT 40.938034 -72.772827 11,725 247 316 0
2019-08-25 19:50:07 GMT 40.940598 -72.765259 11,725 247 315 -64
2019-08-25 19:50:02 GMT 40.943207 -72.757454 11,725 247 316 0
2019-08-25 19:49:57 GMT 40.946411 -72.747681 11,700 247 322 0
2019-08-25 19:49:53 GMT 40.948513 -72.741348 11,700 247 328 0
2019-08-25 19:49:50 GMT 40.950439 -72.735535 11,700 247 328 0
2019-08-25 19:49:46 GMT 40.952820 -72.728333 11,700 247 334 0
2019-08-25 19:49:42 GMT 40.955311 -72.720818 11,700 247 337 -64
2019-08-25 19:49:39 GMT 40.957123 -72.715324 11,700 247 344 0
2019-08-25 19:49:35 GMT 40.960098 -72.706360 11,700 247 344 0
2019-08-25 19:49:30 GMT 40.965179 -72.690849 11,700 247 353 64
2019-08-25 19:49:26 GMT 40.965179 -72.690849 11,700 247 358 128
2019-08-25 19:49:23 GMT 40.967972 -72.682495 11,700 247 358 128
2019-08-25 19:49:20 GMT 40.968948 -72.679489 11,700 247 360 128
2019-08-25 19:49:16 GMT 40.971909 -72.670532 11,675 247 369 0
2019-08-25 19:49:12 GMT 40.976532 -72.656494 11,700 247 377 -256
2019-08-25 19:49:06 GMT 40.979233 -72.648254 11,775 247 379 -512
2019-08-25 19:49:02 GMT 40.982170 -72.639351 11,800 247 382 -832
2019-08-25 19:48:59 GMT 40.983582 -72.635071 11,800 247 383 -896
2019-08-25 19:48:55 GMT 40.986637 -72.625557 11,900 247 382 -1344
2019-08-25 19:48:52 GMT 40.988434 -72.620239 12,375 247 387 -2112
2019-08-25 19:48:49 GMT 40.990921 -72.612511 12,175 247 384 -1920
2019-08-25 19:48:44 GMT 40.993946 -72.603271 12,175 247 384 -1920
2019-08-25 19:48:41 GMT 40.996414 -72.595718 12,300 247 385 -1920
2019-08-25 19:48:37 GMT 41.001396 -72.580551 12,525 247 387 -2112
2019-08-25 19:48:27 GMT 41.006050 -72.566132 12,775 247 388 -2048
2019-08-25 19:48:24 GMT 41.009079 -72.557007 12,900 247 390 -1984
2019-08-25 19:48:18 GMT 41.012741 -72.545837 13,150 247 391 -2176
2019-08-25 19:48:13 GMT 41.016632 -72.533936 13,250 247 391 -2240
2019-08-25 19:48:10 GMT 41.018829 -72.527161 13,375 247 392 -2240
2019-08-25 19:48:06 GMT 41.020981 -72.520569 13,800 247 392 -2176
2019-08-25 19:48:02 GMT 41.024532 -72.509766 13,675 247 393 -2176
2019-08-25 19:47:57 GMT 41.030228 -72.492310 13,900 247 394 -2048
2019-08-25 19:47:50 GMT 41.032818 -72.484360 14,075 247 395 -2112
2019-08-25 19:47:44 GMT 41.036915 -72.471748 14,275 247 395 -2112
2019-08-25 19:47:41 GMT 41.039108 -72.465027 14,450 247 399 -1984
2019-08-25 19:47:37 GMT 41.043247 -72.452339 14,575 247 398 -1984
2019-08-25 19:47:34 GMT 41.044327 -72.448975 14,625 247 398 -1984
2019-08-25 19:47:31 GMT 41.046707 -72.441589 14,750 247 399 -1984
2019-08-25 19:47:26 GMT 41.050789 -72.429054 14,925 247 400 -2048
2019-08-25 19:47:23 GMT 41.052185 -72.424744 14,975 247 400 -2048
2019-08-25 19:47:20 GMT 41.054932 -72.416443 15,100 247 400 -2048
2019-08-25 19:47:12 GMT 41.061447 -72.396362 15,400 247 401 -2048
2019-08-25 19:47:08 GMT 41.063683 -72.389603 15,425 247 403 -2176
2019-08-25 19:47:02 GMT 41.067734 -72.377121 15,725 247 404 -2368
2019-08-25 19:46:59 GMT 41.070618 -72.368256 15,875 247 404 -2304
2019-08-25 19:46:51 GMT 41.076004 -72.351685 16,275 247 405 -2368
2019-08-25 19:46:47 GMT 41.079510 -72.340729 16,250 247 405 -2368
2019-08-25 19:46:41 GMT 41.083557 -72.328125 16,625 247 406 -2432
2019-08-25 19:46:38 GMT 41.085609 -72.321747 16,675 247 406 -2432
2019-08-25 19:46:35 GMT 41.087448 -72.316040 16,775 247 406 -2368
2019-08-25 19:46:29 GMT 41.091843 -72.302307 17,725 247 411 -1920
2019-08-25 19:46:26 GMT 41.095432 -72.291290 17,200 247 407 -2112
2019-08-25 19:46:19 GMT 41.099342 -72.279114 17,375 248 409 -1984
2019-08-25 19:46:16 GMT 41.101547 -72.272217 17,525 248 409 -1984
2019-08-25 19:46:12 GMT 41.105484 -72.259949 17,650 248 412 -1984
2019-08-25 19:46:07 GMT 41.108791 -72.249718 17,825 247 414 -2112
2019-08-25 19:46:04 GMT 41.111679 -72.240601 17,925 247 414 -2176
2019-08-25 19:45:58 GMT 41.115372 -72.229187 19,600 247 421 -2624
2019-08-25 19:45:55 GMT 41.117405 -72.222870 18,300 247 417 -2176
2019-08-25 19:45:52 GMT 41.120270 -72.213928 18,350 247 417 -2176
2019-08-25 19:45:48 GMT 41.122990 -72.205521 19,050 247 421 -2432
2019-08-25 19:45:45 GMT 41.125317 -72.198219 18,575 248 418 -2176
2019-08-25 19:45:41 GMT 41.127731 -72.190674 18,700 247 419 -2240
2019-08-25 19:45:35 GMT 41.132488 -72.175743 18,950 247 420 -2304
2019-08-25 19:45:32 GMT 41.135185 -72.167503 18,975 247 420 -2304
2019-08-25 19:45:29 GMT 41.137390 -72.160645 19,200 247 421 -2368
2019-08-25 19:45:26 GMT 41.139702 -72.153519 19,300 247 421 -2432
2019-08-25 19:45:23 GMT 41.141556 -72.147827 19,650 247 421 -2560
2019-08-25 19:45:19 GMT 41.144638 -72.138351 19,575 247 421 -2624
2019-08-25 19:45:14 GMT 41.148407 -72.126740 19,775 247 421 -2688
2019-08-25 19:45:11 GMT 41.153248 -72.111824 20,100 247 421 -2752
2019-08-25 19:45:02 GMT 41.157944 -72.097412 24,000 247 420 -2688
2019-08-25 19:44:54 GMT 41.164467 -72.078743 20,775 241 421 -2816
2019-08-25 19:44:51 GMT 41.168381 -72.069214 20,925 241 421 -2816
2019-08-25 19:44:48 GMT 41.171497 -72.062134 21,100 238 420 -3136
2019-08-25 19:44:43 GMT 41.175659 -72.053406 21,275 237 420 -3136
2019-08-25 19:44:40 GMT 41.179962 -72.045105 21,675 235 421 -3456
2019-08-25 19:44:37 GMT 41.182846 -72.039917 21,650 231 423 -3136
2019-08-25 19:44:31 GMT 41.193516 -72.022369 22,725 226 428 -2240
2019-08-25 19:44:28 GMT 41.193516 -72.022369 22,300 228 426 -2560
2019-08-25 19:44:21 GMT 41.209110 -72.001152 22,600 221 430 -2240
2019-08-25 19:44:16 GMT 41.209110 -72.001152 22,500 224 429 -2432
2019-08-25 19:44:12 GMT 41.216583 -71.992432 22,750 220 431 -2304
2019-08-25 19:44:08 GMT 41.221497 -71.987038 22,975 220 431 -2304
2019-08-25 19:44:05 GMT 41.226059 -71.981995 24,000 220 436 0
2019-08-25 19:44:01 GMT 41.232201 -71.975243 23,150 220 432 -2368
2019-08-25 19:43:58 GMT 41.237324 -71.969627 23,250 220 432 -2368
2019-08-25 19:43:55 GMT 41.243328 -71.963074 23,400 220 433 -2496
2019-08-25 19:43:51 GMT 41.248718 -71.957092 23,550 220 433 -2432
2019-08-25 19:43:47 GMT 41.259064 -71.945717 23,700 220 436 -1472
2019-08-25 19:43:44 GMT 41.259064 -71.945717 23,825 220 434 -2048
2019-08-25 19:43:39 GMT 41.267441 -71.936523 23,975 220 436 -1216
2019-08-25 19:43:35 GMT 41.274902 -71.928345 24,000 220 437 0
2019-08-25 19:43:30 GMT 41.281631 -71.920959 24,000 220 438 0
2019-08-25 19:43:26 GMT 41.293652 -71.907768 24,000 220 437 0
2019-08-25 19:43:22 GMT 41.293652 -71.907768 24,000 220 437 0
2019-08-25 19:43:18 GMT 41.299702 -71.901085 24,000 220 433 -256
2019-08-25 19:43:14 GMT 41.305149 -71.895096 24,000 220 436 0
2019-08-25 19:43:11 GMT 41.311852 -71.887787 24,000 220 436 0
2019-08-25 19:43:08 GMT 41.316322 -71.882797 24,000 220 435 0
2019-08-25 19:43:03 GMT 41.321915 -71.876648 24,000 220 435 0
2019-08-25 19:43:00 GMT 41.327168 -71.870872 24,000 220 435 0
2019-08-25 19:42:57 GMT 41.333221 -71.864197 24,000 220 434 64
2019-08-25 19:42:49 GMT 41.343109 -71.853271 24,000 220 433 64
2019-08-25 19:42:46 GMT 41.354187 -71.841064 23,975 220 433 64
2019-08-25 19:42:43 GMT 41.354187 -71.841064 23,975 220 433 -128
2019-08-25 19:42:37 GMT 41.362968 -71.831360 24,000 220 433 -128
2019-08-25 19:42:34 GMT 41.367599 -71.826294 24,375 220 437 -832
2019-08-25 19:42:31 GMT 41.373322 -71.820007 24,025 220 434 -576
2019-08-25 19:42:26 GMT 41.379684 -71.812988 24,075 220 436 -768
2019-08-25 19:42:22 GMT 41.385132 -71.807007 24,100 220 436 -768
2019-08-25 19:42:18 GMT 41.391689 -71.799805 24,175 220 438 -832
2019-08-25 19:42:15 GMT 41.396072 -71.794968 24,250 220 440 -896
2019-08-25 19:42:12 GMT 41.402802 -71.787537 24,275 220 441 -960
2019-08-25 19:42:08 GMT 41.408157 -71.781670 24,525 220 445 -1344
2019-08-25 19:42:05 GMT 41.412735 -71.776611 24,400 220 444 -1280
2019-08-25 19:42:02 GMT 41.417480 -71.771385 25,025 220 451 -1920
2019-08-25 19:41:59 GMT 41.421715 -71.766655 24,525 220 445 -1344
2019-08-25 19:41:54 GMT 41.429817 -71.757652 24,650 220 448 -1408
2019-08-25 19:41:51 GMT 41.434616 -71.752396 24,900 220 449 -1536
2019-08-25 19:41:45 GMT 41.445328 -71.740532 24,900 220 450 -1664
2019-08-25 19:41:41 GMT 41.452377 -71.732735 25,025 220 451 -1920
2019-08-25 19:41:35 GMT 41.460075 -71.724182 25,200 220 452 -1920
2019-08-25 19:41:32 GMT 41.466312 -71.717216 25,325 220 452 -1984
2019-08-25 19:41:28 GMT 41.476929 -71.705467 25,725 220 454 -2368
2019-08-25 19:41:25 GMT 41.476929 -71.705467 25,550 220 452 -2176
2019-08-25 19:41:22 GMT 41.481720 -71.700089 25,875 220 452 -2176
2019-08-25 19:41:19 GMT 41.487026 -71.694160 26,225 220 455 -2368
2019-08-25 19:41:12 GMT 41.497513 -71.682549 26,025 220 454 -2368
2019-08-25 19:41:07 GMT 41.505276 -71.673973 26,200 220 455 -2368
2019-08-25 19:41:04 GMT 41.511749 -71.666756 26,375 220 459 -2688
2019-08-25 19:41:01 GMT 41.515007 -71.663177 26,425 220 457 -2432
2019-08-25 19:40:58 GMT 41.521664 -71.655769 26,800 220 458 -2624
2019-08-25 19:40:55 GMT 41.524734 -71.652321 27,025 220 460 -2688
2019-08-25 19:40:50 GMT 41.533070 -71.643120 26,950 220 458 -2688
2019-08-25 19:40:46 GMT 41.540543 -71.634789 27,225 220 460 -2688
2019-08-25 19:40:43 GMT 41.546429 -71.628242 27,275 220 460 -2688
2019-08-25 19:40:37 GMT 41.554916 -71.618813 27,700 220 460 -2496
2019-08-25 19:40:34 GMT 41.559509 -71.613678 27,625 220 460 -2496
2019-08-25 19:40:29 GMT 41.566681 -71.605644 27,800 220 462 -2432
2019-08-25 19:40:25 GMT 41.574738 -71.596649 28,025 221 464 -2304
2019-08-25 19:40:18 GMT 41.585220 -71.584854 28,225 221 465 -2112
2019-08-25 19:40:15 GMT 41.591679 -71.577652 28,300 221 466 -2048
2019-08-25 19:40:10 GMT 41.599457 -71.568939 28,550 220 469 -1856
2019-08-25 19:40:07 GMT 41.604126 -71.563690 28,550 221 471 -1856
2019-08-25 19:40:04 GMT 41.610485 -71.556641 28,700 220 474 -1856
2019-08-25 19:40:00 GMT 41.616531 -71.549835 28,850 220 475 -1856
2019-08-25 19:39:56 GMT 41.622635 -71.543098 28,925 220 477 -1856
2019-08-25 19:39:53 GMT 41.629570 -71.535370 29,050 220 478 -1920
2019-08-25 19:39:48 GMT 41.636719 -71.527428 29,200 220 480 -2240
2019-08-25 19:39:44 GMT 41.643211 -71.520233 29,300 220 477 -2496
2019-08-25 19:39:41 GMT 41.649544 -71.513268 29,750 216 469 -2560
2019-08-25 19:39:36 GMT 41.657730 -71.504204 29,700 220 478 -2560
2019-08-25 19:39:33 GMT 41.667606 -71.493279 29,950 220 478 -2560
2019-08-25 19:39:25 GMT 41.673889 -71.486313 30,175 220 477 -2496
2019-08-25 19:39:22 GMT 41.680344 -71.479172 30,250 221 476 -2496
2019-08-25 19:39:19 GMT 41.686935 -71.471809 30,425 219 473 -2560
2019-08-25 19:39:16 GMT 41.692200 -71.466125 30,550 219 472 -2560
2019-08-25 19:39:12 GMT 41.699493 -71.458717 30,750 217 470 -2560
2019-08-25 19:39:08 GMT 41.705639 -71.452782 30,875 214 466 -2560
2019-08-25 19:39:03 GMT 41.713531 -71.445717 31,075 213 464 -2560
2019-08-25 19:39:00 GMT 41.717880 -71.442032 31,175 212 464 -2560
2019-08-25 19:38:56 GMT 41.726913 -71.434891 31,375 210 463 -2560
2019-08-25 19:38:52 GMT 41.735962 -71.428360 31,575 208 462 -2560
2019-08-25 19:38:49 GMT 41.739574 -71.425888 33,050 200 450 -2560
2019-08-25 19:38:45 GMT 41.747070 -71.421036 31,850 205 462 -2560
2019-08-25 19:38:41 GMT 41.753494 -71.417137 32,025 203 461 -2560
2019-08-25 19:38:38 GMT 41.760178 -71.413445 32,125 202 459 -2560
2019-08-25 19:38:32 GMT 41.781658 -71.403023 32,525 200 455 -2560
2019-08-25 19:38:28 GMT 41.781658 -71.403023 32,850 200 453 -2560
2019-08-25 19:38:23 GMT 41.790756 -71.398773 32,775 200 452 -2560
2019-08-25 19:38:19 GMT 41.800606 -71.394142 37,875 200 443 -2624
2019-08-25 19:38:15 GMT 41.805538 -71.391907 33,125 200 450 -2560
2019-08-25 19:38:10 GMT 41.820602 -71.384850 33,450 200 445 -2560
2019-08-25 19:38:03 GMT 41.828396 -71.381241 33,575 200 444 -2560
2019-08-25 19:38:00 GMT 41.837677 -71.376862 33,700 200 443 -2624
2019-08-25 19:37:57 GMT 41.841759 -71.374977 33,925 200 440 -2624
2019-08-25 19:37:54 GMT 41.847519 -71.372246 34,475 200 438 -2688
2019-08-25 19:37:50 GMT 41.856171 -71.368187 34,275 200 438 -2688
2019-08-25 19:37:47 GMT 41.860748 -71.366035 34,350 200 438 -2688
2019-08-25 19:37:42 GMT 41.868805 -71.362259 34,925 200 438 -2560
2019-08-25 19:37:38 GMT 41.876633 -71.358574 34,775 200 438 -2560
2019-08-25 19:37:35 GMT 41.883934 -71.355179 34,900 200 438 -2560
2019-08-25 19:37:32 GMT 41.889633 -71.352455 35,025 200 438 -2560
2019-08-25 19:37:28 GMT 41.896549 -71.349304 35,175 200 438 -2560
2019-08-25 19:37:25 GMT 41.903046 -71.346275 35,250 200 437 -2560
2019-08-25 19:37:20 GMT 41.912018 -71.342033 35,675 200 437 -2560
2019-08-25 19:37:17 GMT 41.916798 -71.339783 35,675 200 437 -2560
2019-08-25 19:37:14 GMT 41.924759 -71.335953 35,825 200 437 -2624
2019-08-25 19:37:09 GMT 41.933327 -71.331863 36,350 200 437 -2688
2019-08-25 19:37:04 GMT 41.943428 -71.327072 36,150 200 436 -2560
2019-08-25 19:36:58 GMT 41.955093 -71.321686 36,475 200 437 -2368
2019-08-25 19:36:54 GMT 41.962143 -71.318375 36,675 200 437 -2112
2019-08-25 19:36:49 GMT 41.971481 -71.314003 36,775 200 438 -1664
2019-08-25 19:36:46 GMT 41.978210 -71.310883 36,850 200 439 -1664
2019-08-25 19:36:43 GMT 41.985672 -71.307388 36,900 200 439 -1664
2019-08-25 19:36:38 GMT 41.992813 -71.304016 37,200 200 441 -1408
2019-08-25 19:36:34 GMT 42.000546 -71.300438 37,175 200 443 -1216
2019-08-25 19:36:31 GMT 42.006729 -71.297523 37,275 200 445 -1216
2019-08-25 19:36:27 GMT 42.013550 -71.294342 37,650 200 451 -1152
2019-08-25 19:36:23 GMT 42.024055 -71.289391 37,550 200 458 -448
2019-08-25 19:36:19 GMT 42.028152 -71.287407 37,525 200 449 -1728
2019-08-25 19:36:16 GMT 42.035202 -71.284103 37,575 200 449 -1664
2019-08-25 19:36:12 GMT 42.044632 -71.279678 37,750 200 458 -448
2019-08-25 19:36:08 GMT 42.049751 -71.277252 37,775 200 451 -1152
2019-08-25 19:36:05 GMT 42.056076 -71.274239 37,875 200 453 -832
2019-08-25 19:36:02 GMT 42.064224 -71.270370 37,875 200 456 -704
2019-08-25 19:35:56 GMT 42.076172 -71.264755 37,950 200 459 -384
2019-08-25 19:35:53 GMT 42.080154 -71.262878 37,975 200 458 -384
2019-08-25 19:35:49 GMT 42.090179 -71.258133 37,975 200 460 -256
2019-08-25 19:35:43 GMT 42.101795 -71.252602 38,000 200 461 -64
2019-08-25 19:35:39 GMT 42.117531 -71.245186 38,000 200 462 -64
2019-08-25 19:35:35 GMT 42.117531 -71.245186 38,000 200 462 0
2019-08-25 19:35:32 GMT 42.121956 -71.243141 38,000 200 462 0
2019-08-25 19:35:29 GMT 42.130600 -71.239037 38,000 200 462 0
2019-08-25 19:35:25 GMT 42.138668 -71.235222 38,000 200 462 0
2019-08-25 19:35:22 GMT 42.143509 -71.232986 38,000 200 462 0
2019-08-25 19:35:18 GMT 42.150585 -71.229607 38,000 200 462 0
2019-08-25 19:35:15 GMT 42.164886 -71.222870 38,000 200 462 0
2019-08-25 19:35:12 GMT 42.164886 -71.222870 38,000 200 462 0
2019-08-25 19:35:08 GMT 42.172928 -71.219002 38,000 200 462 0
2019-08-25 19:35:04 GMT 42.180798 -71.215294 38,000 200 462 0
2019-08-25 19:34:58 GMT 42.192902 -71.209572 38,000 200 462 0
2019-08-25 19:34:51 GMT 42.207424 -71.202774 38,000 200 462 0
2019-08-25 19:34:46 GMT 42.215881 -71.198769 38,000 200 462 0
2019-08-25 19:34:42 GMT 42.222702 -71.195526 38,000 200 461 0
2019-08-25 19:34:38 GMT 42.233772 -71.190254 38,000 200 461 0
2019-08-25 19:34:32 GMT 42.244061 -71.185402 38,000 200 461 0
2019-08-25 19:34:29 GMT 42.249710 -71.182732 38,000 200 461 0
2019-08-25 19:34:25 GMT 42.257538 -71.178986 38,000 200 461 0
2019-08-25 19:34:22 GMT 42.263985 -71.175888 38,000 200 461 0
2019-08-25 19:34:19 GMT 42.269623 -71.173241 38,000 200 461 0
2019-08-25 19:34:15 GMT 42.280090 -71.168282 38,000 200 461 0
2019-08-25 19:34:11 GMT 42.286701 -71.165092 38,000 200 461 0
2019-08-25 19:34:08 GMT 42.291359 -71.162918 38,000 200 462 0
2019-08-25 19:34:04 GMT 42.300201 -71.158699 38,000 200 462 0
2019-08-25 19:34:00 GMT 42.307465 -71.155251 38,000 200 462 0
2019-08-25 19:33:57 GMT 42.315903 -71.151268 38,000 200 462 0
2019-08-25 19:33:54 GMT 42.326180 -71.146378 38,000 200 462 0
2019-08-25 19:33:48 GMT 42.332245 -71.143532 38,000 200 462 0
2019-08-25 19:33:44 GMT 42.341675 -71.139030 38,000 200 462 0
2019-08-25 19:33:41 GMT 42.352982 -71.133667 38,000 200 462 0
2019-08-25 19:33:33 GMT 42.362255 -71.129257 38,000 200 462 0
2019-08-25 19:33:30 GMT 42.373123 -71.124054 38,000 200 462 0
2019-08-25 19:33:24 GMT 42.380600 -71.120506 38,000 200 463 0
2019-08-25 19:33:21 GMT 42.385860 -71.117950 38,000 200 463 0
2019-08-25 19:33:18 GMT 42.393906 -71.114128 38,000 200 463 0
2019-08-25 19:33:15 GMT 42.398754 -71.111816 38,000 200 463 0
2019-08-25 19:33:11 GMT 42.408646 -71.107071 38,000 200 463 0
2019-08-25 19:33:07 GMT 42.414688 -71.104202 38,000 200 463 0
2019-08-25 19:33:02 GMT 42.425011 -71.099297 38,000 200 463 0
2019-08-25 19:32:59 GMT 42.432877 -71.095528 38,000 200 463 0
2019-08-25 19:32:55 GMT 42.439957 -71.092216 38,000 200 463 0
2019-08-25 19:32:52 GMT 42.447449 -71.088631 38,000 200 463 0
2019-08-25 19:32:48 GMT 42.453499 -71.085762 38,000 200 463 0
2019-08-25 19:32:45 GMT 42.461369 -71.081993 38,000 200 463 0
2019-08-25 19:32:42 GMT 42.467422 -71.079109 38,000 200 463 0
2019-08-25 19:32:39 GMT 42.473099 -71.076370 38,000 200 463 0
2019-08-25 19:32:35 GMT 42.478729 -71.073677 38,000 200 463 0
2019-08-25 19:32:32 GMT 42.485992 -71.070175 38,000 200 463 0
2019-08-25 19:32:29 GMT 42.493488 -71.066597 38,000 200 464 0
2019-08-25 19:32:26 GMT 42.497540 -71.064682 38,000 200 464 0
2019-08-25 19:32:23 GMT 42.503952 -71.061569 38,000 200 464 0
2019-08-25 19:32:20 GMT 42.511047 -71.058136 38,000 200 463 0
2019-08-25 19:32:17 GMT 42.521942 -71.052895 38,000 200 463 0
2019-08-25 19:32:11 GMT 42.526794 -71.050583 38,000 200 463 0
2019-08-25 19:32:06 GMT 42.541111 -71.043732 38,000 200 463 0
2019-08-25 19:32:03 GMT 42.546982 -71.040909 38,000 200 463 0
2019-08-25 19:32:00 GMT 42.552238 -71.038361 38,000 200 463 0
2019-08-25 19:31:56 GMT 42.564339 -71.032616 38,000 200 463 0
2019-08-25 19:31:53 GMT 42.569778 -71.029984 38,000 200 463 0
2019-08-25 19:31:46 GMT 42.578476 -71.025864 38,000 200 463 0
2019-08-25 19:31:43 GMT 42.585754 -71.022392 38,000 200 463 0
2019-08-25 19:31:39 GMT 42.602737 -71.014252 38,000 200 463 0
2019-08-25 19:31:35 GMT 42.602737 -71.014252 38,000 200 463 0
2019-08-25 19:31:30 GMT 42.610798 -71.010384 38,000 200 463 0
2019-08-25 19:31:24 GMT 42.622925 -71.004578 38,000 200 463 0
2019-08-25 19:31:20 GMT 42.631393 -71.000519 38,000 200 463 0
2019-08-25 19:31:17 GMT 42.639477 -70.996651 38,000 200 463 0
2019-08-25 19:31:13 GMT 42.645527 -70.993782 38,000 200 463 0
2019-08-25 19:31:10 GMT 42.653778 -70.989784 38,000 200 463 0
2019-08-25 19:31:06 GMT 42.659634 -70.986946 38,000 200 464 0
2019-08-25 19:31:03 GMT 42.664707 -70.984520 38,000 200 464 0
2019-08-25 19:30:59 GMT 42.673786 -70.980110 38,000 200 464 0
2019-08-25 19:30:56 GMT 42.681652 -70.976280 38,000 200 464 0
2019-08-25 19:30:52 GMT 42.687698 -70.973366 38,000 200 464 0
2019-08-25 19:30:49 GMT 42.692547 -70.971039 38,000 200 464 0
2019-08-25 19:30:46 GMT 42.699619 -70.967659 38,000 200 464 0
2019-08-25 19:30:43 GMT 42.706512 -70.964333 38,000 200 464 0
2019-08-25 19:30:40 GMT 42.712376 -70.961525 38,000 200 464 0
2019-08-25 19:30:37 GMT 42.716400 -70.959572 38,000 200 463 0
2019-08-25 19:30:34 GMT 42.722664 -70.956543 38,000 200 463 0
2019-08-25 19:30:31 GMT 42.728714 -70.953575 38,000 200 464 0
2019-08-25 19:30:28 GMT 42.742493 -70.946960 38,000 200 463 0
2019-08-25 19:30:25 GMT 42.742493 -70.946960 38,000 200 464 0
2019-08-25 19:30:22 GMT 42.749340 -70.943642 38,000 200 464 0
2019-08-25 19:30:17 GMT 42.759476 -70.938782 38,000 200 464 0
2019-08-25 19:30:14 GMT 42.764702 -70.936295 38,000 200 464 0
2019-08-25 19:30:10 GMT 42.771011 -70.933289 38,000 200 464 0
2019-08-25 19:30:07 GMT 42.777084 -70.930351 38,000 200 464 0
2019-08-25 19:30:04 GMT 42.786163 -70.925987 38,000 200 464 0
2019-08-25 19:30:01 GMT 42.791428 -70.923424 38,000 200 464 0
2019-08-25 19:29:58 GMT 42.797520 -70.920517 38,000 200 464 0
2019-08-25 19:29:54 GMT 42.805805 -70.916496 38,000 200 464 0
2019-08-25 19:29:51 GMT 42.811066 -70.914001 38,000 200 464 0
2019-08-25 19:29:48 GMT 42.817749 -70.910744 38,000 200 464 0
2019-08-25 19:29:42 GMT 42.830658 -70.904488 38,000 200 464 0
2019-08-25 19:29:39 GMT 42.836765 -70.901512 38,000 200 464 0
2019-08-25 19:29:35 GMT 42.843430 -70.898285 38,000 200 464 0
2019-08-25 19:29:30 GMT 42.854546 -70.892876 38,000 200 464 0
2019-08-25 19:29:25 GMT 42.862831 -70.888893 38,000 200 465 0
2019-08-25 19:29:21 GMT 42.871765 -70.884560 38,000 200 465 0
2019-08-25 19:29:18 GMT 42.886948 -70.877121 38,000 200 465 0
2019-08-25 19:29:14 GMT 42.886948 -70.877121 38,000 200 465 0
2019-08-25 19:29:11 GMT 42.893005 -70.874207 38,000 200 465 0
2019-08-25 19:29:08 GMT 42.900307 -70.870644 38,000 200 465 0
2019-08-25 19:29:04 GMT 42.905960 -70.867882 38,000 200 465 0
2019-08-25 19:28:58 GMT 42.917717 -70.862144 38,000 200 465 0
2019-08-25 19:28:54 GMT 42.927017 -70.857597 38,000 200 465 0
2019-08-25 19:28:48 GMT 42.938370 -70.852104 38,000 200 465 0
2019-08-25 19:28:45 GMT 42.944229 -70.849236 38,000 200 465 0
2019-08-25 19:28:42 GMT 42.950912 -70.845978 38,000 200 465 0
2019-08-25 19:28:37 GMT 42.963478 -70.839844 38,000 200 465 0
2019-08-25 19:28:33 GMT 42.967896 -70.837669 38,000 200 465 0
2019-08-25 19:28:26 GMT 42.983498 -70.830101 38,000 200 465 0
2019-08-25 19:28:23 GMT 42.994034 -70.824959 38,000 200 466 0
2019-08-25 19:28:17 GMT 43.002777 -70.820679 38,000 200 465 0
2019-08-25 19:28:14 GMT 43.008869 -70.817741 38,000 200 466 0
2019-08-25 19:28:11 GMT 43.013103 -70.815651 38,000 200 466 0
2019-08-25 19:28:07 GMT 43.023022 -70.810806 38,000 200 466 0
2019-08-25 19:28:03 GMT 43.030144 -70.807343 38,000 200 466 0
2019-08-25 19:28:00 GMT 43.044754 -70.800240 38,000 200 467 0
2019-08-25 19:27:56 GMT 43.044754 -70.800240 38,000 200 466 0
2019-08-25 19:27:53 GMT 43.051231 -70.797073 38,000 200 466 0
2019-08-25 19:27:49 GMT 43.056931 -70.794365 38,000 200 466 0
2019-08-25 19:27:46 GMT 43.071342 -70.787331 38,000 200 467 0
2019-08-25 19:27:43 GMT 43.071342 -70.787331 38,000 200 467 0
2019-08-25 19:27:40 GMT 43.077019 -70.784584 38,000 200 467 0
2019-08-25 19:27:36 GMT 43.084946 -70.780693 38,000 200 467 0
2019-08-25 19:27:33 GMT 43.089218 -70.778633 38,000 200 467 0
2019-08-25 19:27:30 GMT 43.095547 -70.775558 38,000 200 467 0
2019-08-25 19:27:27 GMT 43.101837 -70.772522 38,000 200 467 0
2019-08-25 19:27:24 GMT 43.110580 -70.768242 38,000 200 467 0
2019-08-25 19:27:21 GMT 43.116264 -70.765427 38,000 200 467 0
2019-08-25 19:27:18 GMT 43.121979 -70.762688 38,000 200 467 64
2019-08-25 19:27:13 GMT 43.132736 -70.757385 38,000 200 467 0
2019-08-25 19:27:09 GMT 43.139679 -70.753983 38,000 200 467 0
2019-08-25 19:27:04 GMT 43.152248 -70.747833 38,000 200 467 0
2019-08-25 19:27:01 GMT 43.156952 -70.745567 38,000 200 467 0
2019-08-25 19:26:57 GMT 43.163269 -70.742500 38,000 200 467 0
2019-08-25 19:26:54 GMT 43.175858 -70.736305 38,000 200 467 0
2019-08-25 19:26:51 GMT 43.175858 -70.736305 38,000 200 467 0
2019-08-25 19:26:47 GMT 43.185627 -70.731552 38,000 200 467 0
2019-08-25 19:26:44 GMT 43.189682 -70.729530 38,000 200 467 0
2019-08-25 19:26:41 GMT 43.201263 -70.723915 38,000 200 467 0
2019-08-25 19:26:35 GMT 43.209595 -70.719826 38,000 200 466 0
2019-08-25 19:26:31 GMT 43.217972 -70.715797 38,000 200 466 0
2019-08-25 19:26:27 GMT 43.224869 -70.712456 38,000 200 467 0
2019-08-25 19:26:22 GMT 43.235252 -70.707420 38,000 200 467 0
2019-08-25 19:26:19 GMT 43.239532 -70.705391 38,000 200 467 0
2019-08-25 19:26:16 GMT 43.247681 -70.701469 38,000 200 467 0
2019-08-25 19:26:12 GMT 43.256241 -70.697273 38,000 200 466 0
2019-08-25 19:26:09 GMT 43.261555 -70.694733 38,000 200 467 0
2019-08-25 19:26:05 GMT 43.268677 -70.691269 38,000 200 467 0
2019-08-25 19:26:02 GMT 43.275558 -70.687889 38,000 200 467 0
2019-08-25 19:25:59 GMT 43.281898 -70.684792 38,000 200 467 0
2019-08-25 19:25:55 GMT 43.290253 -70.680733 38,000 200 467 0
2019-08-25 19:25:51 GMT 43.296932 -70.677406 38,000 200 467 0
2019-08-25 19:25:48 GMT 43.305084 -70.673454 38,000 200 467 0
2019-08-25 19:25:42 GMT 43.315041 -70.668510 38,000 200 466 0
2019-08-25 19:25:38 GMT 43.325180 -70.663490 38,000 201 467 0
2019-08-25 19:25:35 GMT 43.331661 -70.660202 38,000 201 467 0
2019-08-25 19:25:31 GMT 43.338547 -70.656715 38,000 201 466 0
2019-08-25 19:25:28 GMT 43.346279 -70.652878 38,000 201 466 0
2019-08-25 19:25:25 GMT 43.352562 -70.649673 38,000 201 466 0
2019-08-25 19:25:20 GMT 43.367924 -70.641960 38,000 200 466 0
2019-08-25 19:25:12 GMT 43.377468 -70.637184 38,000 201 466 0
2019-08-25 19:25:09 GMT 43.383286 -70.634109 38,000 202 466 0
2019-08-25 19:25:04 GMT 43.392426 -70.628868 38,000 205 464 0
2019-08-25 19:25:01 GMT 43.399979 -70.623947 38,000 206 464 0
2019-08-25 19:24:58 GMT 43.403214 -70.621689 38,000 208 463 0
2019-08-25 19:24:55 GMT 43.409821 -70.616844 38,000 211 462 0
2019-08-25 19:24:52 GMT 43.421036 -70.607658 38,000 213 461 0
2019-08-25 19:24:49 GMT 43.425510 -70.603706 38,000 213 462 0
2019-08-25 19:24:42 GMT 43.434540 -70.594948 38,000 218 460 0
2019-08-25 19:24:39 GMT 43.439987 -70.589249 38,000 219 459 0
2019-08-25 19:24:35 GMT 43.445713 -70.582840 38,000 222 460 0
2019-08-25 19:24:31 GMT 43.452557 -70.574471 38,000 224 459 0
2019-08-25 19:24:28 GMT 43.456558 -70.569275 38,000 226 459 0
2019-08-25 19:24:23 GMT 43.464157 -70.558670 38,000 227 459 0
2019-08-25 19:24:20 GMT 43.468246 -70.552757 38,000 227 459 64
2019-08-25 19:24:17 GMT 43.472809 -70.546280 38,000 227 459 0
2019-08-25 19:24:12 GMT 43.480022 -70.535957 38,000 227 459 0
2019-08-25 19:24:09 GMT 43.484585 -70.529411 38,000 227 459 0
2019-08-25 19:24:06 GMT 43.488556 -70.523727 38,000 227 459 0
2019-08-25 19:24:02 GMT 43.495743 -70.513382 38,000 227 459 0
2019-08-25 19:23:59 GMT 43.499725 -70.507698 38,000 227 459 0
2019-08-25 19:23:56 GMT 43.503662 -70.502014 38,000 227 459 0
2019-08-25 19:23:49 GMT 43.512634 -70.489174 38,000 227 459 0
2019-08-25 19:23:46 GMT 43.519547 -70.479279 38,000 227 459 0
2019-08-25 19:23:43 GMT 43.521919 -70.475922 38,000 227 459 0
2019-08-25 19:23:40 GMT 43.526295 -70.469582 38,000 227 459 0
2019-08-25 19:23:36 GMT 43.533234 -70.459663 38,000 227 459 0
2019-08-25 19:23:32 GMT 43.538353 -70.452316 38,000 227 459 0
2019-08-25 19:23:29 GMT 43.542480 -70.446442 38,000 227 459 0
2019-08-25 19:23:25 GMT 43.549805 -70.435898 38,000 227 459 0
2019-08-25 19:23:22 GMT 43.553055 -70.431244 38,000 227 459 0
2019-08-25 19:23:19 GMT 43.557449 -70.424919 38,000 227 459 0
2019-08-25 19:23:14 GMT 43.565369 -70.413551 38,000 227 459 0
2019-08-25 19:23:11 GMT 43.568619 -70.408890 38,000 227 459 0
2019-08-25 19:23:08 GMT 43.573746 -70.401474 38,000 227 459 0
2019-08-25 19:23:05 GMT 43.583130 -70.388000 38,000 227 460 0
2019-08-25 19:22:59 GMT 43.591049 -70.376587 38,000 227 459 0
2019-08-25 19:22:53 GMT 43.596775 -70.368279 38,000 227 459 0
2019-08-25 19:22:48 GMT 43.604553 -70.357086 38,000 227 459 0
2019-08-25 19:22:42 GMT 43.612186 -70.346115 38,000 227 459 0
2019-08-25 19:22:39 GMT 43.616749 -70.339508 38,000 227 459 0
2019-08-25 19:22:35 GMT 43.623310 -70.330025 38,000 227 459 0
2019-08-25 19:22:32 GMT 43.627441 -70.324059 38,000 227 459 0
2019-08-25 19:22:26 GMT 43.640945 -70.304581 38,000 227 459 0
2019-08-25 19:22:23 GMT 43.640945 -70.304581 38,000 227 459 0
2019-08-25 19:22:15 GMT 43.650925 -70.290207 38,000 227 460 0
2019-08-25 19:22:11 GMT 43.662964 -70.272835 38,000 227 459 0
2019-08-25 19:22:07 GMT 43.668365 -70.265045 38,000 227 459 0
2019-08-25 19:22:04 GMT 43.668365 -70.265045 38,000 227 459 0
2019-08-25 19:22:00 GMT 43.672897 -70.258461 38,000 227 459 0
2019-08-25 19:21:57 GMT 43.682713 -70.244225 38,000 227 459 0
2019-08-25 19:21:54 GMT 43.682713 -70.244225 38,000 227 459 0
2019-08-25 19:21:50 GMT 43.688599 -70.235786 38,000 227 459 0
2019-08-25 19:21:46 GMT 43.693886 -70.228142 38,000 227 459 0
2019-08-25 19:21:42 GMT 43.700169 -70.218987 38,000 227 460 0
2019-08-25 19:21:39 GMT 43.708832 -70.206535 38,000 227 460 0
2019-08-25 19:21:36 GMT 43.715149 -70.197395 38,000 227 460 0
2019-08-25 19:21:32 GMT 43.715149 -70.197395 38,000 227 460 0
2019-08-25 19:21:29 GMT 43.719086 -70.191650 38,000 227 459 0
2019-08-25 19:21:25 GMT 43.728653 -70.177917 38,000 227 459 0
2019-08-25 19:21:19 GMT 43.733917 -70.170265 38,000 227 459 0
2019-08-25 19:21:15 GMT 43.745789 -70.153069 38,000 227 459 0
2019-08-25 19:21:11 GMT 43.745789 -70.153069 38,000 227 459 0
2019-08-25 19:21:08 GMT 43.751038 -70.145409 38,000 227 459 0
2019-08-25 19:21:04 GMT 43.761292 -70.130569 38,000 227 459 0
2019-08-25 19:21:00 GMT 43.761292 -70.130569 38,000 227 459 0
2019-08-25 19:20:57 GMT 43.765686 -70.124199 38,000 227 459 0
2019-08-25 19:20:54 GMT 43.770218 -70.117622 38,000 227 459 0
2019-08-25 19:20:50 GMT 43.776981 -70.107811 38,000 227 459 0
2019-08-25 19:20:46 GMT 43.781937 -70.100563 38,000 227 459 0
2019-08-25 19:20:43 GMT 43.785599 -70.095268 38,000 227 459 0
2019-08-25 19:20:40 GMT 43.790295 -70.088455 38,000 227 459 0
2019-08-25 19:20:37 GMT 43.795975 -70.080215 38,000 227 459 0
2019-08-25 19:20:33 GMT 43.800522 -70.073608 38,000 227 459 0
2019-08-25 19:20:29 GMT 43.808121 -70.062561 38,000 227 459 0
2019-08-25 19:20:25 GMT 43.811893 -70.056999 38,000 227 459 0
2019-08-25 19:20:22 GMT 43.816269 -70.050613 38,000 227 459 0
2019-08-25 19:20:19 GMT 43.820663 -70.044228 38,000 227 459 0
2019-08-25 19:20:16 GMT 43.826385 -70.035988 38,000 227 459 0
2019-08-25 19:20:11 GMT 43.832657 -70.026855 38,000 227 459 0
2019-08-25 19:20:08 GMT 43.841549 -70.013840 38,000 227 459 0
2019-08-25 19:20:05 GMT 43.846390 -70.006844 38,000 227 459 0
2019-08-25 19:20:02 GMT 43.846390 -70.006844 38,000 227 459 0
2019-08-25 19:19:59 GMT 43.851044 -70.000046 38,000 227 459 0
2019-08-25 19:19:55 GMT 43.857048 -69.991280 38,000 227 459 0
2019-08-25 19:19:51 GMT 43.861843 -69.984283 38,000 227 459 0
2019-08-25 19:19:48 GMT 43.866669 -69.977226 38,000 227 459 0
2019-08-25 19:19:44 GMT 43.872643 -69.968521 38,000 227 459 0
2019-08-25 19:19:40 GMT 43.877609 -69.961258 38,000 227 459 0
2019-08-25 19:19:36 GMT 43.884048 -69.951851 38,000 227 459 0
2019-08-25 19:19:33 GMT 43.888287 -69.945702 38,000 227 459 0
2019-08-25 19:19:30 GMT 43.892624 -69.939285 38,000 227 459 0
2019-08-25 19:19:27 GMT 43.897156 -69.932640 38,000 227 459 0
2019-08-25 19:19:24 GMT 43.901230 -69.926636 38,000 227 459 0
2019-08-25 19:19:20 GMT 43.907791 -69.917061 38,000 227 459 0
2019-08-25 19:19:17 GMT 43.913315 -69.908943 38,000 227 459 0
2019-08-25 19:19:12 GMT 43.918442 -69.901474 38,000 227 459 0
2019-08-25 19:19:09 GMT 43.923664 -69.893776 38,000 227 459 0
2019-08-25 19:19:05 GMT 43.931393 -69.882462 38,000 227 459 0
2019-08-25 19:19:02 GMT 43.933594 -69.879242 38,000 227 459 0
2019-08-25 19:18:58 GMT 43.940613 -69.868996 38,000 227 459 0
2019-08-25 19:18:53 GMT 43.946709 -69.860031 38,000 227 459 0
2019-08-25 19:18:48 GMT 43.954159 -69.849113 38,000 227 459 0
2019-08-25 19:18:45 GMT 43.960117 -69.840347 38,000 227 459 0
2019-08-25 19:18:42 GMT 43.964630 -69.833748 38,000 227 459 0
2019-08-25 19:18:37 GMT 43.970169 -69.825653 38,000 227 459 0
2019-08-25 19:18:31 GMT 43.978176 -69.813866 38,000 227 459 0
2019-08-25 19:18:27 GMT 43.985069 -69.803856 38,000 227 459 0
2019-08-25 19:18:24 GMT 43.990746 -69.795486 38,000 227 459 0
2019-08-25 19:18:20 GMT 43.994522 -69.789948 38,000 227 459 0
2019-08-25 19:18:16 GMT 44.001781 -69.779205 38,000 227 459 0
2019-08-25 19:18:13 GMT 44.005459 -69.773911 38,000 227 459 0
2019-08-25 19:18:09 GMT 44.010532 -69.766388 38,000 227 459 0
2019-08-25 19:18:05 GMT 44.018818 -69.754227 38,000 227 459 0
2019-08-25 19:18:00 GMT 44.024643 -69.745621 38,000 227 458 0
2019-08-25 19:17:54 GMT 44.033066 -69.733231 38,000 227 458 0
2019-08-25 19:17:50 GMT 44.040436 -69.722305 38,000 227 458 0
2019-08-25 19:17:43 GMT 44.048859 -69.709846 38,000 227 458 0
2019-08-25 19:17:39 GMT 44.055828 -69.699623 38,000 227 458 0
2019-08-25 19:17:33 GMT 44.064114 -69.687393 38,000 227 458 0
2019-08-25 19:17:27 GMT 44.071381 -69.676697 38,000 227 458 0
2019-08-25 19:17:22 GMT 44.080826 -69.662735 38,000 227 458 0
2019-08-25 19:17:17 GMT 44.086899 -69.653770 38,000 227 458 0
2019-08-25 19:17:13 GMT 44.096786 -69.639206 38,000 227 458 0
2019-08-25 19:17:05 GMT 44.103172 -69.629776 38,000 227 458 0
2019-08-25 19:17:02 GMT 44.107498 -69.623360 38,000 227 458 0
2019-08-25 19:16:59 GMT 44.111984 -69.616722 38,000 227 459 0
2019-08-25 19:16:54 GMT 44.120682 -69.603821 38,000 227 459 0
2019-08-25 19:16:50 GMT 44.135605 -69.581718 38,000 227 459 0
2019-08-25 19:16:44 GMT 44.135605 -69.581718 38,000 227 459 0
2019-08-25 19:16:39 GMT 44.142746 -69.571175 38,000 227 459 0
2019-08-25 19:16:34 GMT 44.148792 -69.562157 38,000 227 459 0
2019-08-25 19:16:31 GMT 44.153030 -69.555946 38,000 227 459 0
2019-08-25 19:16:22 GMT 44.165459 -69.537437 38,000 227 459 0
2019-08-25 19:16:19 GMT 44.169693 -69.531227 38,000 227 459 0
2019-08-25 19:16:14 GMT 44.179703 -69.516380 38,000 227 459 0
2019-08-25 19:16:08 GMT 44.186779 -69.505852 38,000 227 459 0
2019-08-25 19:16:02 GMT 44.194599 -69.494286 38,000 227 458 0
2019-08-25 19:15:58 GMT 44.201118 -69.484573 38,000 227 458 0
2019-08-25 19:15:52 GMT 44.209682 -69.471909 38,000 227 458 0
2019-08-25 19:15:47 GMT 44.216766 -69.461319 38,000 227 458 0
2019-08-25 19:15:42 GMT 44.225185 -69.448868 38,000 227 458 0
2019-08-25 19:15:38 GMT 44.229374 -69.442635 38,000 227 458 0
2019-08-25 19:15:35 GMT 44.234573 -69.434837 38,000 227 458 0
2019-08-25 19:15:28 GMT 44.244270 -69.420464 38,000 227 458 0
2019-08-25 19:15:17 GMT 44.260052 -69.396950 38,000 227 458 0
2019-08-25 19:15:14 GMT 44.265839 -69.388344 38,000 227 458 0
2019-08-25 19:15:07 GMT 44.274811 -69.375000 38,000 227 458 0
2019-08-25 19:15:03 GMT 44.280762 -69.366104 38,000 227 458 0
2019-08-25 19:14:59 GMT 44.286541 -69.357491 38,000 227 458 0
2019-08-25 19:14:56 GMT 44.291016 -69.350807 38,000 228 459 0
2019-08-25 19:14:50 GMT 44.299438 -69.338310 38,000 228 459 0
2019-08-25 19:14:46 GMT 44.305344 -69.329422 38,000 228 459 0
2019-08-25 19:14:42 GMT 44.312164 -69.319283 38,000 228 459 0
2019-08-25 19:14:38 GMT 44.317200 -69.311699 38,000 228 459 0
2019-08-25 19:14:35 GMT 44.321411 -69.305420 38,000 228 459 0
2019-08-25 19:14:31 GMT 44.328625 -69.294655 38,000 228 459 0
2019-08-25 19:14:27 GMT 44.331802 -69.289856 38,000 228 459 0
2019-08-25 19:14:24 GMT 44.336838 -69.282272 38,000 228 459 0
2019-08-25 19:14:21 GMT 44.349434 -69.263443 38,000 228 459 0
2019-08-25 19:14:15 GMT 44.349434 -69.263443 38,000 228 459 0
2019-08-25 19:14:11 GMT 44.356369 -69.253059 38,000 228 459 0
2019-08-25 19:14:06 GMT 44.362701 -69.243553 38,000 228 459 0
2019-08-25 19:14:03 GMT 44.367783 -69.235970 38,000 228 459 0
2019-08-25 19:13:52 GMT 44.382809 -69.213463 38,000 228 459 0
2019-08-25 19:13:48 GMT 44.389885 -69.202812 38,000 228 459 0
2019-08-25 19:13:41 GMT 44.398270 -69.190262 38,000 228 459 0
2019-08-25 19:13:38 GMT 44.404320 -69.181175 38,000 228 458 0
2019-08-25 19:13:35 GMT 44.407948 -69.175751 38,000 228 458 0
2019-08-25 19:13:32 GMT 44.413101 -69.167961 38,000 228 458 0
2019-08-25 19:13:29 GMT 44.416283 -69.163223 38,000 228 458 0
2019-08-25 19:13:26 GMT 44.420750 -69.156456 38,000 228 459 0
2019-08-25 19:13:23 GMT 44.425220 -69.149757 38,000 228 459 0
2019-08-25 19:13:19 GMT 44.430267 -69.142128 38,000 228 459 0
2019-08-25 19:13:14 GMT 44.437183 -69.131737 38,000 228 459 0
2019-08-25 19:13:11 GMT 44.443516 -69.122154 38,000 228 459 0
2019-08-25 19:13:05 GMT 44.451614 -69.110031 38,000 228 459 0
2019-08-25 19:13:02 GMT 44.454620 -69.105446 38,000 228 459 0
2019-08-25 19:12:59 GMT 44.459976 -69.097397 38,000 228 459 0
2019-08-25 19:12:50 GMT 44.473495 -69.077003 38,000 228 459 0
2019-08-25 19:12:40 GMT 44.487350 -69.056137 38,000 228 459 0
2019-08-25 19:12:37 GMT 44.491650 -69.049606 38,000 228 459 0
2019-08-25 19:12:33 GMT 44.496956 -69.041573 38,000 228 459 0
2019-08-25 19:12:30 GMT 44.501007 -69.035477 38,000 228 459 0
2019-08-25 19:12:27 GMT 44.506035 -69.027901 38,000 228 459 0
2019-08-25 19:12:23 GMT 44.513123 -69.017227 38,000 228 458 0
2019-08-25 19:12:20 GMT 44.515961 -69.012909 38,000 228 458 0
2019-08-25 19:12:16 GMT 44.522003 -69.003754 38,000 228 458 0
2019-08-25 19:12:09 GMT 44.537830 -68.979805 38,000 228 458 0
2019-08-25 19:12:06 GMT 44.537830 -68.979805 38,000 228 458 0
2019-08-25 19:12:01 GMT 44.543694 -68.970894 38,000 228 458 0
2019-08-25 19:11:57 GMT 44.549194 -68.962624 38,000 228 458 0
2019-08-25 19:11:53 GMT 44.555054 -68.953728 38,000 228 458 0
2019-08-25 19:11:48 GMT 44.562103 -68.943069 38,000 228 458 0
2019-08-25 19:11:45 GMT 44.567577 -68.934792 38,000 228 458 0
2019-08-25 19:11:37 GMT 44.577305 -68.919983 38,000 228 458 0
2019-08-25 19:11:34 GMT 44.582054 -68.912750 38,000 228 458 0
2019-08-25 19:11:27 GMT 44.592110 -68.897537 38,000 228 458 0
2019-08-25 19:11:24 GMT 44.596996 -68.890106 38,000 228 458 0
2019-08-25 19:11:16 GMT 44.607056 -68.874863 38,000 228 458 0
2019-08-25 19:11:13 GMT 44.612640 -68.866425 38,000 228 458 0
2019-08-25 19:11:06 GMT 44.627861 -68.843277 38,000 228 458 0
2019-08-25 19:11:02 GMT 44.627861 -68.843277 38,000 228 458 0
2019-08-25 19:10:55 GMT 44.642666 -68.820839 38,000 228 458 0
2019-08-25 19:10:52 GMT 44.642666 -68.820839 38,000 228 457 0
2019-08-25 19:10:44 GMT 44.653976 -68.803581 38,000 228 457 0
2019-08-25 19:10:41 GMT 44.658306 -68.797058 38,000 228 457 0
2019-08-25 19:10:34 GMT 44.673065 -68.774612 38,000 228 457 0
2019-08-25 19:10:30 GMT 44.673065 -68.774612 38,000 228 457 0
2019-08-25 19:10:23 GMT 44.683071 -68.759338 38,000 228 457 0
2019-08-25 19:10:20 GMT 44.688217 -68.751457 38,000 228 457 0
2019-08-25 19:10:11 GMT 44.700066 -68.733353 38,000 228 457 0
2019-08-25 19:10:07 GMT 44.705795 -68.724648 38,000 228 457 0
2019-08-25 19:10:02 GMT 44.713486 -68.712814 38,000 228 457 0
2019-08-25 19:09:59 GMT 44.718475 -68.705162 38,000 228 457 0
2019-08-25 19:09:52 GMT 44.728367 -68.690071 38,000 228 457 0
2019-08-25 19:09:49 GMT 44.732372 -68.683975 38,000 228 457 0
2019-08-25 19:09:39 GMT 44.747360 -68.661003 38,000 228 457 0
2019-08-25 19:09:30 GMT 44.759949 -68.641731 38,000 228 457 0
2019-08-25 19:09:27 GMT 44.762955 -68.637154 38,000 228 457 0
2019-08-25 19:09:20 GMT 44.773956 -68.620277 38,000 228 458 0
2019-08-25 19:09:17 GMT 44.779110 -68.612434 38,000 228 458 0
2019-08-25 19:09:07 GMT 44.792980 -68.591133 38,000 228 458 0
2019-08-25 19:08:59 GMT 44.804306 -68.573845 38,000 228 457 0
2019-08-25 19:08:53 GMT 44.811604 -68.562660 38,000 228 457 0
2019-08-25 19:08:48 GMT 44.819752 -68.550133 38,000 228 458 0
2019-08-25 19:08:43 GMT 44.826176 -68.540215 38,000 228 458 0
2019-08-25 19:08:37 GMT 44.840607 -68.518044 38,000 228 458 0
2019-08-25 19:08:33 GMT 44.840607 -68.518044 38,000 228 458 0
2019-08-25 19:08:27 GMT 44.856033 -68.494263 38,000 228 458 0
2019-08-25 19:08:22 GMT 44.856033 -68.494263 38,000 228 458 0
2019-08-25 19:08:16 GMT 44.866722 -68.477783 38,000 228 458 0
2019-08-25 19:08:12 GMT 44.884598 -68.450249 38,000 228 458 0
2019-08-25 19:08:03 GMT 44.884598 -68.450249 38,000 228 458 0
2019-08-25 19:07:53 GMT 44.897324 -68.430634 38,000 228 458 0
2019-08-25 19:07:42 GMT 44.913879 -68.405029 38,000 228 458 0
2019-08-25 19:07:32 GMT 44.929195 -68.381454 38,000 228 460 0
2019-08-25 19:07:23 GMT 44.944885 -68.357132 38,000 228 459 0
2019-08-25 19:07:12 GMT 44.956612 -68.339050 38,000 228 459 0
2019-08-25 19:07:09 GMT 44.961037 -68.332146 38,000 228 459 0
2019-08-25 19:07:02 GMT 44.972443 -68.314461 38,000 228 459 0
2019-08-25 19:06:59 GMT 44.975189 -68.310310 38,000 228 459 0
2019-08-25 19:06:52 GMT 44.989433 -68.288132 38,000 228 459 0
2019-08-25 19:06:41 GMT 45.001877 -68.268845 38,000 228 459 0
2019-08-25 19:06:37 GMT 45.006271 -68.261978 38,000 228 459 0
2019-08-25 19:06:29 GMT 45.018715 -68.242714 38,000 228 460 0
2019-08-25 19:06:25 GMT 45.023026 -68.236015 38,000 228 460 0
2019-08-25 19:06:21 GMT 45.031700 -68.222488 38,000 228 460 0
2019-08-25 19:06:18 GMT 45.033875 -68.219147 38,000 228 460 0
2019-08-25 19:06:15 GMT 45.037445 -68.213585 38,000 228 460 0
2019-08-25 19:06:08 GMT 45.049858 -68.194283 38,000 228 460 0
2019-08-25 19:06:05 GMT 45.051998 -68.190933 38,000 228 460 0
2019-08-25 19:05:59 GMT 45.060562 -68.177620 38,000 228 460 0
2019-08-25 19:05:55 GMT 45.066990 -68.167557 38,000 228 460 0
2019-08-25 19:05:52 GMT 45.071136 -68.161140 38,000 228 460 0
2019-08-25 19:05:48 GMT 45.076859 -68.152245 38,000 228 460 0
2019-08-25 19:05:43 GMT 45.083038 -68.142632 38,000 228 460 0
2019-08-25 19:05:38 GMT 45.091755 -68.129036 38,000 228 460 0
2019-08-25 19:05:34 GMT 45.101437 -68.113831 38,000 228 460 0
2019-08-25 19:05:28 GMT 45.105743 -68.107124 38,000 228 462 0
2019-08-25 19:05:23 GMT 45.121174 -68.083015 38,000 228 462 0
2019-08-25 19:05:18 GMT 45.121174 -68.083015 38,000 228 461 0
2019-08-25 19:05:12 GMT 45.128357 -68.071815 38,000 228 461 0
2019-08-25 19:05:07 GMT 45.135933 -68.059967 38,000 228 461 0
2019-08-25 19:05:02 GMT 45.142822 -68.049248 38,000 228 461 0
2019-08-25 19:04:57 GMT 45.151291 -68.036110 38,000 228 462 0
2019-08-25 19:04:50 GMT 45.159767 -68.022858 38,000 228 462 0
2019-08-25 19:04:46 GMT 45.165482 -68.013939 38,000 228 462 0
2019-08-25 19:04:39 GMT 45.175507 -67.998245 38,000 228 462 0
2019-08-25 19:04:35 GMT 45.181091 -67.989479 38,000 228 462 0
2019-08-25 19:04:30 GMT 45.188370 -67.978035 38,000 229 462 0
2019-08-25 19:04:25 GMT 45.195648 -67.966591 38,000 229 462 0
2019-08-25 19:04:20 GMT 45.202362 -67.956070 38,000 229 462 0
2019-08-25 19:04:14 GMT 45.210510 -67.943207 38,000 229 462 0
2019-08-25 19:04:10 GMT 45.216980 -67.933113 38,000 228 463 0
2019-08-25 19:04:05 GMT 45.225677 -67.919380 38,000 228 463 0
2019-08-25 19:03:59 GMT 45.231857 -67.909767 38,000 228 463 0
2019-08-25 19:03:56 GMT 45.236572 -67.902306 38,000 228 463 0
2019-08-25 19:03:53 GMT 45.240860 -67.895576 38,000 228 463 0
2019-08-25 19:03:49 GMT 45.246872 -67.886154 38,000 228 463 0
2019-08-25 19:03:44 GMT 45.256073 -67.871773 38,000 228 463 0
2019-08-25 19:03:38 GMT 45.262650 -67.861412 38,000 228 463 0
2019-08-25 19:03:33 GMT 45.271500 -67.847443 38,000 228 463 0
2019-08-25 19:03:27 GMT 45.277542 -67.838028 38,000 229 463 0
2019-08-25 19:03:21 GMT 45.286240 -67.824226 38,000 229 463 0
2019-08-25 19:03:17 GMT 45.292210 -67.814720 38,000 229 463 0
2019-08-25 19:03:12 GMT 45.300961 -67.800652 38,000 229 462 0
2019-08-25 19:03:07 GMT 45.307205 -67.790680 38,000 229 462 0
2019-08-25 19:03:00 GMT 45.316086 -67.776688 38,000 228 463 0
2019-08-25 19:02:55 GMT 45.324284 -67.763939 38,000 228 462 0
2019-08-25 19:02:50 GMT 45.330688 -67.754189 38,000 227 463 0
2019-08-25 19:02:45 GMT 45.337921 -67.743401 38,000 227 463 0
2019-08-25 19:02:40 GMT 45.346207 -67.731171 38,000 226 463 0
2019-08-25 19:02:35 GMT 45.353210 -67.720970 38,000 226 463 0
2019-08-25 19:02:29 GMT 45.362869 -67.707108 38,000 226 463 0
2019-08-25 19:02:24 GMT 45.370136 -67.696815 38,000 225 463 0
2019-08-25 19:02:19 GMT 45.377865 -67.685898 38,000 225 463 0
2019-08-25 19:02:14 GMT 45.385620 -67.674995 38,000 225 463 0
2019-08-25 19:02:08 GMT 45.393723 -67.663681 38,000 225 463 0
2019-08-25 19:02:02 GMT 45.403606 -67.649788 38,000 225 463 0
2019-08-25 19:01:58 GMT 45.410172 -67.640549 38,000 225 464 0
2019-08-25 19:01:52 GMT 45.418259 -67.629219 38,000 225 464 0
2019-08-25 19:01:47 GMT 45.425720 -67.618690 38,000 225 464 0
2019-08-25 19:01:42 GMT 45.433182 -67.608162 38,000 225 464 0
2019-08-25 19:01:37 GMT 45.442383 -67.595284 38,000 225 465 0
2019-08-25 19:01:32 GMT 45.449368 -67.585342 38,000 225 465 0
2019-08-25 19:01:26 GMT 45.458073 -67.573090 38,000 225 465 0
2019-08-25 19:01:21 GMT 45.465729 -67.562325 38,000 225 465 0
2019-08-25 19:01:17 GMT 45.473969 -67.550682 38,000 225 465 0
2019-08-25 19:01:11 GMT 45.481201 -67.540611 38,000 225 465 0
2019-08-25 19:01:06 GMT 45.489777 -67.528542 38,000 225 466 0
2019-08-25 19:01:00 GMT 45.497738 -67.517281 38,000 225 466 0
2019-08-25 19:00:56 GMT 45.505512 -67.506233 38,000 225 467 0
2019-08-25 19:00:50 GMT 45.513931 -67.494377 38,000 225 467 0
2019-08-25 19:00:45 GMT 45.521896 -67.483055 38,000 225 468 0
2019-08-25 19:00:39 GMT 45.529861 -67.471817 38,000 225 468 0
2019-08-25 19:00:35 GMT 45.538467 -67.459648 38,000 225 468 0
2019-08-25 19:00:28 GMT 45.547546 -67.446854 38,000 225 468 0
2019-08-25 19:00:24 GMT 45.553665 -67.438103 38,000 225 469 0
2019-08-25 19:00:18 GMT 45.563190 -67.424606 38,000 225 469 0
2019-08-25 19:00:14 GMT 45.570740 -67.413918 38,000 225 470 0
2019-08-25 19:00:07 GMT 45.579666 -67.401260 38,000 225 470 0
2019-08-25 19:00:03 GMT 45.586899 -67.391006 38,000 225 470 0
2019-08-25 18:59:56 GMT 45.596329 -67.377678 38,000 225 470 0
2019-08-25 18:59:52 GMT 45.602646 -67.368767 38,000 225 470 0
2019-08-25 18:59:45 GMT 45.612999 -67.354088 38,000 225 471 0
2019-08-25 18:59:42 GMT 45.618256 -67.346596 38,000 225 471 0
2019-08-25 18:59:34 GMT 45.631062 -67.328407 38,000 225 472 0
2019-08-25 18:59:31 GMT 45.634781 -67.323151 38,000 225 472 0
2019-08-25 18:59:22 GMT 45.651127 -67.299774 38,000 225 472 0
2019-08-25 18:59:11 GMT 45.666580 -67.277733 38,000 225 473 0
2019-08-25 18:59:01 GMT 45.683434 -67.253700 38,000 225 473 0
2019-08-25 18:58:49 GMT 45.699738 -67.230499 38,000 225 474 0
2019-08-25 18:58:40 GMT 45.715553 -67.207970 38,000 225 475 0
2019-08-25 18:58:29 GMT 45.731567 -67.185104 38,000 225 475 0
2019-08-25 18:58:19 GMT 45.748188 -67.161415 38,000 226 475 0
2019-08-25 18:58:08 GMT 45.764809 -67.137589 38,000 226 475 0
2019-08-25 18:57:58 GMT 45.780773 -67.114655 38,000 226 476 0
2019-08-25 18:57:46 GMT 45.797253 -67.090965 38,000 226 477 0
2019-08-25 18:57:36 GMT 45.813313 -67.068031 38,000 226 477 0
2019-08-25 18:57:26 GMT 45.829834 -67.044334 38,000 226 478 0
2019-08-25 18:57:16 GMT 45.845581 -67.021690 38,000 226 478 0
2019-08-25 18:57:05 GMT 45.861969 -66.998177 38,000 226 478 0
2019-08-25 18:56:54 GMT 45.878357 -66.974602 38,000 226 479 0
2019-08-25 18:56:45 GMT 45.894241 -66.951691 38,000 226 479 0
2019-08-25 18:56:34 GMT 45.912189 -66.925827 38,000 226 480 0
2019-08-25 18:56:23 GMT 45.927933 -66.903053 38,000 226 479 0
2019-08-25 18:56:12 GMT 45.944172 -66.879616 38,000 226 480 0
2019-08-25 18:56:01 GMT 45.961815 -66.854073 38,000 226 480 0
2019-08-25 18:55:52 GMT 45.978203 -66.830315 38,000 226 480 64
2019-08-25 18:55:40 GMT 45.994125 -66.807190 38,000 226 480 0
2019-08-25 18:55:31 GMT 46.010880 -66.782944 38,000 226 481 0
2019-08-25 18:55:20 GMT 46.026199 -66.760757 38,000 226 481 0
2019-08-25 18:55:10 GMT 46.042465 -66.737122 38,000 226 481 0
2019-08-25 18:55:05 GMT 46.049988 -66.726151 38,000 226 481 0
2019-08-25 18:54:59 GMT 46.059017 -66.712967 38,000 226 482 0
2019-08-25 18:54:48 GMT 46.075638 -66.688866 38,000 226 482 0
2019-08-25 18:54:45 GMT 46.080322 -66.681984 38,000 226 482 0
2019-08-25 18:54:35 GMT 46.096115 -66.659081 38,000 226 482 0
2019-08-25 18:54:27 GMT 46.112877 -66.634689 38,000 226 482 0
2019-08-25 18:54:17 GMT 46.125275 -66.616669 38,000 226 482 0
2019-08-25 18:54:13 GMT 46.144180 -66.589005 38,000 226 482 0
2019-08-25 18:54:05 GMT 46.144180 -66.589005 38,000 226 482 0
2019-08-25 18:54:02 GMT 46.147282 -66.584496 38,000 226 482 0
2019-08-25 18:53:57 GMT 46.157776 -66.569107 38,000 226 482 0
2019-08-25 18:53:53 GMT 46.162308 -66.562477 38,000 226 482 0
2019-08-25 18:53:42 GMT 46.178703 -66.538422 38,000 226 482 0
2019-08-25 18:53:36 GMT 46.190414 -66.521278 38,000 226 482 0
2019-08-25 18:53:25 GMT 46.206528 -66.497696 38,000 226 482 0
2019-08-25 18:53:22 GMT 46.210266 -66.492210 38,000 226 482 0
2019-08-25 18:53:14 GMT 46.224510 -66.471336 38,000 226 482 0
2019-08-25 18:53:02 GMT 46.243240 -66.443771 38,000 226 482 0
2019-08-25 18:52:52 GMT 46.257614 -66.422668 38,000 226 482 0
2019-08-25 18:52:41 GMT 46.275158 -66.396973 38,000 226 482 0
2019-08-25 18:52:31 GMT 46.291672 -66.372627 38,000 226 482 0
2019-08-25 18:52:24 GMT 46.301010 -66.358826 38,000 226 482 0
2019-08-25 18:52:18 GMT 46.312958 -66.341080 38,000 226 482 0
2019-08-25 18:52:06 GMT 46.328705 -66.317833 38,000 226 482 0
2019-08-25 18:51:57 GMT 46.345688 -66.292778 38,000 226 482 0
2019-08-25 18:51:47 GMT 46.359093 -66.272896 38,000 226 482 0
2019-08-25 18:51:37 GMT 46.374363 -66.250305 38,000 226 482 0
2019-08-25 18:51:26 GMT 46.392609 -66.223251 38,000 226 483 0
2019-08-25 18:51:15 GMT 46.409603 -66.198120 38,000 226 483 0
2019-08-25 18:51:04 GMT 46.425247 -66.175011 38,000 226 483 0
2019-08-25 18:50:53 GMT 46.444107 -66.146942 38,000 226 483 0
2019-08-25 18:50:43 GMT 46.458893 -66.124901 38,000 226 483 0
2019-08-25 18:50:32 GMT 46.475845 -66.099655 38,000 226 483 0
2019-08-25 18:50:22 GMT 46.492813 -66.074387 38,000 226 482 0
2019-08-25 18:50:10 GMT 46.509933 -66.048935 38,000 226 482 0
2019-08-25 18:50:00 GMT 46.525635 -66.025551 38,000 226 482 0
2019-08-25 18:49:50 GMT 46.550610 -65.988281 38,000 226 482 0
2019-08-25 18:49:34 GMT 46.566422 -65.964592 38,000 226 481 0
2019-08-25 18:49:23 GMT 46.583286 -65.939392 38,000 226 481 0
2019-08-25 18:49:12 GMT 46.601532 -65.912010 38,000 226 481 0
2019-08-25 18:48:59 GMT 46.620209 -65.883942 38,000 227 480 0
2019-08-25 18:48:49 GMT 46.635818 -65.860558 38,000 227 480 0
2019-08-25 18:48:35 GMT 46.658192 -65.826988 38,000 227 480 0
2019-08-25 18:48:27 GMT 46.669643 -65.809822 38,000 227 480 0
2019-08-25 18:44:44 GMT 47.012009 -65.289345 38,000 227 480 0
2019-08-25 18:44:36 GMT 47.027023 -65.266327 38,000 227 480 0
2019-08-25 18:44:28 GMT 47.036194 -65.252243 38,000 227 480 0
2019-08-25 18:43:14 GMT 47.148926 -65.078270 38,000 227 479 0
2019-08-25 18:43:08 GMT 47.158394 -65.063644 38,000 227 479 0
2019-08-25 18:42:58 GMT 47.172729 -65.041466 38,000 227 480 0
2019-08-25 18:42:47 GMT 47.190098 -65.014557 38,000 227 480 0
2019-08-25 18:42:38 GMT 47.204681 -64.991821 38,000 227 480 0
2019-08-25 18:42:21 GMT 47.229992 -64.952583 38,000 227 480 0
2019-08-25 18:42:15 GMT 47.239258 -64.938141 38,000 227 480 0
2019-08-25 18:42:04 GMT 47.255722 -64.912514 38,000 227 481 0
2019-08-25 18:41:53 GMT 47.272774 -64.885956 38,000 227 481 0
2019-08-25 18:41:42 GMT 47.288910 -64.860809 38,000 227 481 0
2019-08-25 18:41:30 GMT 47.308849 -64.829689 38,000 227 481 0
2019-08-25 18:41:21 GMT 47.321651 -64.809685 38,000 227 481 0
2019-08-25 18:41:09 GMT 47.338715 -64.783012 38,000 227 481 0
2019-08-25 18:40:48 GMT 47.371628 -64.731514 38,000 227 482 0
2019-08-25 18:40:37 GMT 47.388409 -64.705246 38,000 227 482 0
2019-08-25 18:40:02 GMT 47.440842 -64.622681 38,000 227 483 0
2019-08-25 18:39:54 GMT 47.453384 -64.602974 38,000 227 483 0
2019-08-25 18:39:22 GMT 47.511795 -64.510895 38,000 227 484 0
2019-08-25 18:39:05 GMT 47.528904 -64.483833 38,000 228 485 0
2019-08-25 18:38:55 GMT 47.544205 -64.459602 38,000 228 485 0
2019-08-25 18:38:45 GMT 47.559441 -64.435379 38,000 228 486 0
2019-08-25 18:38:34 GMT 47.575783 -64.409393 38,000 228 486 0
2019-08-25 18:38:24 GMT 47.592590 -64.382698 38,000 228 486 0
2019-08-25 18:38:13 GMT 47.608932 -64.356743 38,000 228 486 0
2019-08-25 18:38:01 GMT 47.626339 -64.329033 38,000 228 485 0
2019-08-25 18:37:51 GMT 47.641792 -64.304527 38,000 228 486 0
2019-08-25 18:37:41 GMT 47.657806 -64.278961 38,000 228 486 0
2019-08-25 18:37:29 GMT 47.674751 -64.251991 38,000 228 486 0
2019-08-25 18:37:19 GMT 47.690487 -64.226921 38,000 228 486 0
2019-08-25 18:37:09 GMT 47.707581 -64.199501 38,000 228 486 0
2019-08-25 18:36:57 GMT 47.723602 -64.173820 38,000 228 487 0
2019-08-25 18:36:46 GMT 47.740219 -64.147110 38,000 228 487 0
2019-08-25 18:36:37 GMT 47.756405 -64.121208 38,000 228 486 0
2019-08-25 18:36:25 GMT 47.772465 -64.095505 38,000 228 487 0
2019-08-25 18:36:15 GMT 47.788605 -64.069519 38,000 228 487 0
2019-08-25 18:36:05 GMT 47.804493 -64.043953 38,000 228 487 0
2019-08-25 18:35:53 GMT 47.821289 -64.016991 38,000 228 486 0
2019-08-25 18:35:42 GMT 47.837776 -63.990433 38,000 228 488 0
2019-08-25 18:35:31 GMT 47.854568 -63.963364 38,000 228 487 0
2019-08-25 18:35:21 GMT 47.870735 -63.937260 38,000 228 488 0
2019-08-25 18:35:11 GMT 47.887482 -63.910080 38,000 228 489 0
2019-08-25 18:34:59 GMT 47.906433 -63.879456 38,000 228 489 0
2019-08-25 18:34:46 GMT 47.923248 -63.852257 38,000 228 489 0
2019-08-25 18:34:36 GMT 47.939308 -63.826271 38,000 228 489 0
2019-08-25 18:34:25 GMT 47.955460 -63.799942 38,000 228 489 0
2019-08-25 18:34:14 GMT 47.973198 -63.771130 38,000 228 490 0
2019-08-25 18:34:03 GMT 47.989536 -63.744507 38,000 228 490 0
2019-08-25 18:33:51 GMT 48.007874 -63.714592 38,000 228 490 0
2019-08-25 18:33:40 GMT 48.024078 -63.688236 38,000 228 490 0
2019-08-25 18:33:30 GMT 48.040745 -63.661053 38,000 228 490 0
2019-08-25 18:33:18 GMT 48.058136 -63.632675 38,000 228 489 0
2019-08-25 18:33:09 GMT 48.073051 -63.608234 38,000 228 489 0
2019-08-25 18:32:54 GMT 48.096237 -63.570274 38,000 228 489 0
2019-08-25 18:32:36 GMT 48.131607 -63.512306 38,000 228 489 0
2019-08-25 18:32:19 GMT 48.148190 -63.485062 38,000 228 490 0
2019-08-25 18:32:07 GMT 48.166157 -63.455513 38,000 228 490 0
2019-08-25 18:31:56 GMT 48.183987 -63.426243 38,000 228 490 0
2019-08-25 18:31:46 GMT 48.200134 -63.399635 38,000 228 491 0
2019-08-25 18:31:34 GMT 48.217072 -63.371746 38,000 228 491 0
2019-08-25 18:31:22 GMT 48.234402 -63.343048 38,000 228 491 0
2019-08-25 18:31:12 GMT 48.251816 -63.314350 38,000 228 492 0
2019-08-25 18:31:00 GMT 48.267921 -63.287609 38,000 228 492 0
2019-08-25 18:30:50 GMT 48.283936 -63.261013 38,000 228 492 0
2019-08-25 18:30:40 GMT 48.299904 -63.234486 38,000 228 492 0
2019-08-25 18:30:29 GMT 48.316101 -63.207600 38,000 228 492 0
2019-08-25 18:30:18 GMT 48.332863 -63.179699 38,000 229 493 0
2019-08-25 18:30:07 GMT 48.349525 -63.152016 38,000 228 494 0
2019-08-25 18:29:55 GMT 48.367077 -63.122814 38,000 229 493 0
2019-08-25 18:29:45 GMT 48.383835 -63.094833 38,000 229 493 0
2019-08-25 18:29:33 GMT 48.401245 -63.065788 38,000 229 493 0
2019-08-25 18:29:23 GMT 48.417984 -63.037720 38,000 229 494 0
2019-08-25 18:29:11 GMT 48.441467 -62.998421 38,000 229 494 0
2019-08-25 18:28:56 GMT 48.457489 -62.971588 38,000 229 494 0
2019-08-25 18:28:46 GMT 48.474426 -62.943279 38,000 229 494 0
2019-08-25 18:28:35 GMT 48.490082 -62.916943 38,000 229 494 0
2019-08-25 18:28:25 GMT 48.506516 -62.889336 38,000 229 493 0
2019-08-25 18:28:13 GMT 48.522629 -62.862221 38,000 229 493 0
2019-08-25 18:28:02 GMT 48.539322 -62.833992 38,000 229 493 0
2019-08-25 18:27:52 GMT 48.555588 -62.806656 38,000 229 493 0
2019-08-25 18:27:41 GMT 48.572140 -62.778698 38,000 229 493 0
2019-08-25 18:27:30 GMT 48.588959 -62.750317 38,000 229 492 0
2019-08-25 18:27:19 GMT 48.605942 -62.721581 38,000 229 492 0
2019-08-25 18:26:56 GMT 48.641830 -62.660805 38,000 229 492 0
2019-08-25 18:26:44 GMT 48.657890 -62.633636 38,000 229 492 0
2019-08-25 18:26:33 GMT 48.674042 -62.606171 38,000 229 493 0
2019-08-25 18:26:23 GMT 48.690994 -62.577419 38,000 229 493 0
2019-08-25 18:26:12 GMT 48.707001 -62.550152 38,000 229 493 0
2019-08-25 18:26:00 GMT 48.723900 -62.521313 38,000 229 493 0
2019-08-25 18:25:44 GMT 48.749226 -62.478020 38,000 229 493 0
2019-08-25 18:25:38 GMT 48.757370 -62.464108 38,000 229 493 0
2019-08-25 18:25:29 GMT 48.772293 -62.438614 38,000 229 492 0
2019-08-25 18:25:17 GMT 48.789494 -62.409210 38,000 229 492 0
2019-08-25 18:25:07 GMT 48.804668 -62.383190 38,000 229 492 0
2019-08-25 18:24:57 GMT 48.820587 -62.355862 38,000 229 492 0
2019-08-25 18:24:45 GMT 48.836975 -62.327694 38,000 229 492 0
2019-08-25 18:24:36 GMT 48.853222 -62.299854 38,000 229 491 0
2019-08-25 18:24:21 GMT 48.873333 -62.265305 38,000 229 491 0
2019-08-25 18:24:14 GMT 48.883987 -62.246914 38,000 229 491 0
2019-08-25 18:24:04 GMT 48.900009 -62.219238 38,000 229 491 0
2019-08-25 18:23:53 GMT 48.916031 -62.191563 38,000 229 491 0
2019-08-25 18:23:43 GMT 48.931942 -62.164116 38,000 229 491 0
2019-08-25 18:23:31 GMT 48.948093 -62.136143 38,000 229 491 0
2019-08-25 18:23:21 GMT 48.963505 -62.109470 38,000 229 491 0
2019-08-25 18:23:10 GMT 48.980728 -62.079693 38,000 229 491 0
2019-08-25 18:23:00 GMT 48.995361 -62.054234 38,000 229 491 0
2019-08-25 18:22:49 GMT 49.011780 -62.025627 38,000 229 491 0
2019-08-25 18:22:39 GMT 49.028366 -61.996838 38,000 229 491 0
2019-08-25 18:22:27 GMT 49.043480 -61.970551 38,000 229 491 0
2019-08-25 18:22:16 GMT 49.060226 -61.941483 38,000 229 491 0
2019-08-25 18:22:05 GMT 49.076477 -61.913170 38,000 229 491 0
2019-08-25 18:21:55 GMT 49.093479 -61.883457 38,000 229 491 0
2019-08-25 18:21:43 GMT 49.109398 -61.855629 38,000 229 490 0
2019-08-25 18:21:33 GMT 49.124714 -61.828815 38,000 230 491 0
2019-08-25 18:21:23 GMT 49.140636 -61.800842 38,000 230 491 0
2019-08-25 18:21:12 GMT 49.156723 -61.772671 38,000 230 491 0
2019-08-25 18:21:01 GMT 49.172619 -61.744755 38,000 230 491 0
2019-08-25 18:20:50 GMT 49.188213 -61.717361 38,000 229 490 0
2019-08-25 18:20:40 GMT 49.203526 -61.690472 38,000 230 490 0
2019-08-25 18:20:30 GMT 49.219681 -61.661995 38,000 230 490 0
2019-08-25 18:20:18 GMT 49.235367 -61.634289 38,000 230 490 0
2019-08-25 18:20:08 GMT 49.250931 -61.606819 38,000 230 490 0
2019-08-25 18:19:57 GMT 49.267960 -61.576679 38,000 230 491 0
2019-08-25 18:19:47 GMT 49.282619 -61.550686 38,000 230 491 0
2019-08-25 18:19:36 GMT 49.299797 -61.520329 38,000 230 489 0
2019-08-25 18:19:25 GMT 49.314880 -61.493587 38,000 230 489 0
2019-08-25 18:19:14 GMT 49.330536 -61.465759 38,000 230 489 0
2019-08-25 18:19:04 GMT 49.347244 -61.436180 38,000 230 489 0
2019-08-25 18:18:53 GMT 49.369488 -61.396587 38,000 230 489 0
2019-08-25 18:18:27 GMT 49.408356 -61.327305 38,000 230 489 0
2019-08-25 18:18:10 GMT 49.424423 -61.298710 38,000 230 489 0
2019-08-25 18:18:00 GMT 49.440445 -61.270027 38,000 230 488 0
2019-08-25 18:17:50 GMT 49.456028 -61.242172 38,000 230 488 0
2019-08-25 18:17:38 GMT 49.471527 -61.214302 38,000 230 488 0
2019-08-25 18:17:28 GMT 49.486496 -61.187489 38,000 230 487 0
2019-08-25 18:17:18 GMT 49.501877 -61.159878 38,000 230 488 0
2019-08-25 18:17:07 GMT 49.517986 -61.130898 38,000 230 488 0
2019-08-25 18:16:57 GMT 49.540649 -61.090057 38,000 230 487 0
2019-08-25 18:16:41 GMT 49.555756 -61.062950 38,000 230 487 0
2019-08-25 18:16:31 GMT 49.571522 -61.034546 38,000 230 487 0
2019-08-25 18:16:20 GMT 49.587021 -61.006573 38,000 230 487 0
2019-08-25 18:16:08 GMT 49.603180 -60.977303 38,000 230 487 0
2019-08-25 18:15:58 GMT 49.618195 -60.950127 38,000 230 487 0
2019-08-25 18:15:48 GMT 49.633759 -60.921936 38,000 230 486 0
2019-08-25 18:15:34 GMT 49.654572 -60.884151 38,000 230 487 0
2019-08-25 18:15:15 GMT 49.682739 -60.832962 38,000 230 486 0
2019-08-25 18:15:04 GMT 49.697845 -60.805496 38,000 230 486 0
2019-08-25 18:14:53 GMT 49.713181 -60.777554 38,000 230 485 0
2019-08-25 18:14:43 GMT 49.736023 -60.735889 38,000 230 484 0
2019-08-25 18:14:26 GMT 49.751221 -60.708210 38,000 230 484 0
2019-08-25 18:14:16 GMT 49.766205 -60.680756 38,000 230 483 0
2019-08-25 18:14:06 GMT 49.781342 -60.653061 38,000 230 483 0
2019-08-25 18:13:55 GMT 49.796722 -60.624870 38,000 230 483 0
2019-08-25 18:13:45 GMT 49.812241 -60.596394 38,000 230 483 0
2019-08-25 18:13:33 GMT 49.827606 -60.568146 38,000 230 483 0
2019-08-25 18:13:23 GMT 49.842968 -60.539940 38,000 230 483 0
2019-08-25 18:13:13 GMT 49.865593 -60.498219 38,000 230 483 0
2019-08-25 18:12:56 GMT 49.881638 -60.468678 38,000 230 482 0
2019-08-25 18:12:45 GMT 49.897110 -60.440170 38,000 230 481 0
2019-08-25 18:12:35 GMT 49.912582 -60.411652 38,000 231 482 0
2019-08-25 18:12:24 GMT 49.927734 -60.383606 38,000 231 482 0
2019-08-25 18:12:13 GMT 49.943573 -60.354191 38,000 231 481 0
2019-08-25 18:12:01 GMT 49.958817 -60.325928 38,000 231 482 0
2019-08-25 18:11:51 GMT 49.974060 -60.297596 38,000 231 481 0
2019-08-25 18:11:41 GMT 49.989143 -60.269512 38,000 231 481 0
2019-08-25 18:11:29 GMT 50.004547 -60.240929 38,000 231 481 0
2019-08-25 18:11:19 GMT 50.019745 -60.212524 38,000 231 481 0
2019-08-25 18:11:09 GMT 50.035091 -60.183922 38,000 231 481 0
2019-08-25 18:10:58 GMT 50.050690 -60.154774 38,000 231 481 0
2019-08-25 18:10:46 GMT 50.065720 -60.126690 38,000 231 480 0
2019-08-25 18:10:35 GMT 50.081223 -60.097885 38,000 231 480 0
2019-08-25 18:10:25 GMT 50.096237 -60.069775 38,000 231 480 0
2019-08-25 18:10:14 GMT 50.111343 -60.041367 38,000 231 479 0
2019-08-25 18:10:04 GMT 50.127216 -60.011703 38,000 231 480 0
2019-08-25 18:09:53 GMT 50.142345 -59.983273 38,000 231 480 0
2019-08-25 18:09:41 GMT 50.158081 -59.953804 38,000 231 480 0
2019-08-25 18:09:31 GMT 50.172653 -59.926411 38,000 231 480 0
2019-08-25 18:09:20 GMT 50.188431 -59.896595 38,000 231 480 0
2019-08-25 18:09:09 GMT 50.203537 -59.868046 38,000 231 480 0
2019-08-25 18:08:59 GMT 50.218872 -59.838989 38,000 231 479 64
2019-08-25 18:08:47 GMT 50.233822 -59.810757 38,000 231 480 64
2019-08-25 18:08:35 GMT 50.251053 -59.778202 38,000 231 480 0
2019-08-25 18:08:26 GMT 50.264687 -59.752262 38,000 231 481 0
2019-08-25 18:08:15 GMT 50.281082 -59.721245 38,000 231 480 -64
2019-08-25 18:08:03 GMT 50.297012 -59.690960 38,000 231 480 0
2019-08-25 18:07:51 GMT 50.312775 -59.661034 38,000 231 481 0
2019-08-25 18:07:42 GMT 50.327545 -59.632851 38,000 231 481 64
2019-08-25 18:07:30 GMT 50.342754 -59.603947 38,000 231 481 0
2019-08-25 18:07:19 GMT 50.357666 -59.575459 38,000 231 482 0
2019-08-25 18:07:10 GMT 50.372360 -59.547459 38,000 231 483 0
2019-08-25 18:06:58 GMT 50.387466 -59.518578 38,000 231 483 64
2019-08-25 18:06:48 GMT 50.402248 -59.490150 38,000 231 484 0
2019-08-25 18:06:38 GMT 50.417679 -59.460609 38,000 231 484 0
2019-08-25 18:06:27 GMT 50.432365 -59.432400 38,000 231 484 -64
2019-08-25 18:06:16 GMT 50.448425 -59.401367 38,000 231 483 0
2019-08-25 18:06:04 GMT 50.465607 -59.368382 38,000 231 482 0
2019-08-25 18:05:51 GMT 50.482040 -59.336868 38,000 231 479 0
2019-08-25 18:05:41 GMT 50.496735 -59.308609 38,000 231 479 0
2019-08-25 18:05:31 GMT 50.511520 -59.280128 38,000 231 479 0
2019-08-25 18:05:19 GMT 50.527954 -59.248402 38,000 231 479 0
2019-08-25 18:05:09 GMT 50.541595 -59.221947 38,000 231 479 0
2019-08-25 18:04:59 GMT 50.556660 -59.192852 38,000 232 479 0
2019-08-25 18:04:47 GMT 50.571045 -59.165012 38,000 232 479 0
2019-08-25 18:04:37 GMT 50.585815 -59.136368 38,000 232 479 0
2019-08-25 18:04:27 GMT 50.600739 -59.107384 38,000 232 480 0
2019-08-25 18:04:16 GMT 50.616062 -59.077496 38,000 232 480 0
2019-08-25 18:04:04 GMT 50.631088 -59.048260 38,000 232 480 0
2019-08-25 18:03:55 GMT 50.645737 -59.019711 38,000 232 480 0
2019-08-25 18:03:43 GMT 50.660194 -58.991459 38,000 232 480 0
2019-08-25 18:03:32 GMT 50.675648 -58.961258 38,000 232 480 0
2019-08-25 18:03:22 GMT 50.690643 -58.931927 38,000 232 480 0
2019-08-25 18:03:11 GMT 50.704971 -58.903866 38,000 232 480 0
2019-08-25 18:03:01 GMT 50.720078 -58.874172 38,000 232 480 0
2019-08-25 18:02:49 GMT 50.735329 -58.844223 38,000 232 480 0
2019-08-25 18:02:39 GMT 50.750061 -58.815380 38,000 232 479 0
2019-08-25 18:02:29 GMT 50.764618 -58.786804 38,000 232 479 0
2019-08-25 18:02:05 GMT 50.799820 -58.717319 38,000 232 479 0
2019-08-25 18:01:55 GMT 50.811401 -58.694458 38,000 232 479 0
2019-08-25 18:01:43 GMT 50.827377 -58.662762 38,000 232 478 0
2019-08-25 18:01:32 GMT 50.842819 -58.632278 38,000 232 478 0
2019-08-25 18:00:55 GMT 50.893707 -58.531223 38,000 232 477 0
2019-08-25 18:00:49 GMT 50.901810 -58.515114 38,000 232 477 0
2019-08-25 18:00:23 GMT 50.938484 -58.442154 38,000 232 478 0
2019-08-25 18:00:13 GMT 50.951340 -58.416458 38,000 232 476 0
2019-08-25 18:00:05 GMT 50.961182 -58.396713 38,000 232 476 0
2019-08-25 17:59:22 GMT 51.028282 -58.262787 38,000 232 475 0
2019-08-25 17:59:05 GMT 51.042938 -58.233253 38,000 232 475 0
2019-08-25 17:58:55 GMT 51.057888 -58.203125 38,000 232 475 0
2019-08-25 17:58:42 GMT 51.074135 -58.170319 38,000 232 474 0
2019-08-25 17:58:31 GMT 51.090012 -58.138275 38,000 232 474 0
2019-08-25 17:58:20 GMT 51.106026 -58.106003 38,000 232 474 0
2019-08-25 17:58:07 GMT 51.121620 -58.074570 38,000 232 474 0
We lost coverage of the aircraft here for a total of 94 minutes
2019-08-25 16:24:35 GMT 56.069752 -38.451805 37,000 267 462
We lost coverage of the aircraft here for a total of 7 minutes
2019-08-25 16:17:25 GMT 56.080170 -38.060219 37,000 267 460
We lost coverage of the aircraft here for a total of 106 minutes
2019-08-25 14:31:29 GMT 53.234161 -16.020813 37,000 299 450 0
2019-08-25 14:31:21 GMT 53.226517 -15.997035 37,000 300 449 0
2019-08-25 14:29:38 GMT 53.148102 -15.665641 37,000 290 451 0
2019-08-25 14:29:15 GMT 53.131420 -15.589600 37,000 291 450 0
2019-08-25 14:28:13 GMT 53.087128 -15.388718 37,000 291 450 0
2019-08-25 14:28:05 GMT 53.081635 -15.364075 37,000 291 451 0
2019-08-25 14:27:56 GMT 53.074585 -15.332336 37,000 291 451 0
2019-08-25 14:27:45 GMT 53.067123 -15.298920 37,000 291 451 0
2019-08-25 14:27:33 GMT 53.058197 -15.259018 37,000 291 451 0
2019-08-25 14:27:25 GMT 53.051674 -15.229876 37,000 291 451 0
2019-08-25 14:27:14 GMT 53.044830 -15.199127 37,000 291 451 0
2019-08-25 14:27:04 GMT 53.037151 -15.164743 37,000 291 450 0
2019-08-25 14:26:54 GMT 53.029888 -15.132019 37,000 291 450 0
2019-08-25 14:26:43 GMT 53.022079 -15.097046 37,000 291 451 0
2019-08-25 14:26:32 GMT 53.014435 -15.062334 37,000 289 452 0
2019-08-25 14:26:19 GMT 53.006706 -15.019095 37,000 285 455 0
2019-08-25 14:26:11 GMT 53.002853 -14.991608 37,000 282 456 0
2019-08-25 14:26:01 GMT 52.999329 -14.959259 37,000 279 458 0
2019-08-25 14:25:34 GMT 52.994202 -14.863358 37,000 275 462 0
2019-08-25 14:25:29 GMT 52.993439 -14.845040 37,000 275 462 0
2019-08-25 14:25:21 GMT 52.992088 -14.813651 37,000 275 462 0
2019-08-25 14:25:10 GMT 52.990601 -14.778730 37,000 275 462 0
2019-08-25 14:24:58 GMT 52.988800 -14.737091 37,000 275 463 0
2019-08-25 14:24:49 GMT 52.987381 -14.704666 37,000 275 463 0
2019-08-25 14:24:39 GMT 52.985710 -14.667219 37,000 275 463 0
2019-08-25 14:24:29 GMT 52.984173 -14.632690 37,000 275 462 0
2019-08-25 14:24:18 GMT 52.982483 -14.596024 37,000 275 462 0
2019-08-25 14:24:08 GMT 52.980835 -14.559631 37,000 275 463 0
2019-08-25 14:23:58 GMT 52.979233 -14.523697 37,000 275 463 0
2019-08-25 14:23:48 GMT 52.977493 -14.486618 37,000 275 463 0
2019-08-25 14:23:37 GMT 52.975800 -14.449539 37,000 275 463 0
2019-08-25 14:23:27 GMT 52.974117 -14.413513 37,000 275 463 0
2019-08-25 14:23:16 GMT 52.972412 -14.377136 37,000 275 463 0
2019-08-25 14:23:06 GMT 52.970581 -14.339042 37,000 275 463 0
2019-08-25 14:22:56 GMT 52.968887 -14.302979 37,000 275 463 0
2019-08-25 14:22:45 GMT 52.967102 -14.265823 37,000 275 464 0
2019-08-25 14:22:35 GMT 52.965408 -14.230118 37,000 275 464 0
2019-08-25 14:22:25 GMT 52.963596 -14.193002 37,000 275 464 0
2019-08-25 14:22:14 GMT 52.961876 -14.156512 37,000 275 464 0
2019-08-25 14:22:03 GMT 52.960014 -14.118687 37,000 275 464 0
2019-08-25 14:21:53 GMT 52.958313 -14.084015 37,000 275 464 0
2019-08-25 14:21:43 GMT 52.956528 -14.047546 37,000 275 464 0
2019-08-25 14:21:32 GMT 52.954605 -14.009018 37,000 275 464 0
2019-08-25 14:21:23 GMT 52.952866 -13.974686 37,000 275 464 0
2019-08-25 14:21:12 GMT 52.950981 -13.937177 37,000 275 464 0
2019-08-25 14:21:01 GMT 52.949112 -13.900375 37,000 275 464 0
2019-08-25 14:20:51 GMT 52.947350 -13.865374 37,000 275 464 0
2019-08-25 14:20:41 GMT 52.945450 -13.828583 37,000 275 464 0
2019-08-25 14:20:32 GMT 52.943481 -13.790665 37,000 275 465 0
2019-08-25 14:20:21 GMT 52.941696 -13.756714 37,000 275 465 0
2019-08-25 14:20:11 GMT 52.939762 -13.720197 37,000 276 465 0
2019-08-25 14:20:01 GMT 52.937901 -13.684806 37,000 276 465 0
2019-08-25 14:19:51 GMT 52.935928 -13.647919 37,000 276 465 0
2019-08-25 14:19:39 GMT 52.933899 -13.609628 37,000 276 466 0
2019-08-25 14:19:30 GMT 52.932037 -13.575178 37,000 276 466 0
2019-08-25 14:19:20 GMT 52.930126 -13.539315 37,000 276 466 0
2019-08-25 14:19:09 GMT 52.928123 -13.502747 37,000 276 466 0
2019-08-25 14:18:59 GMT 52.926132 -13.466110 37,000 276 467 0
2019-08-25 14:18:49 GMT 52.924210 -13.430939 37,000 276 467 0
2019-08-25 14:18:39 GMT 52.922150 -13.393250 37,000 276 467 0
2019-08-25 14:18:28 GMT 52.920044 -13.355865 37,000 276 467 0
2019-08-25 14:18:18 GMT 52.918118 -13.321708 37,000 276 468 0
2019-08-25 14:18:09 GMT 52.916061 -13.285370 37,000 276 469 0
2019-08-25 14:17:58 GMT 52.914001 -13.248367 37,000 276 469 0
2019-08-25 14:17:48 GMT 52.911972 -13.212708 37,000 276 469 0
2019-08-25 14:17:37 GMT 52.909828 -13.175276 37,000 276 470 0
2019-08-25 14:17:27 GMT 52.907776 -13.138809 37,000 276 470 0
2019-08-25 14:17:23 GMT 52.906998 -13.125610 37,000 276 470 0
2019-08-25 14:17:17 GMT 52.905685 -13.102766 37,000 276 470 -64
2019-08-25 14:17:13 GMT 52.904850 -13.088091 37,000 276 470 0
2019-08-25 14:17:07 GMT 52.903545 -13.065255 37,000 276 470 0
2019-08-25 14:16:56 GMT 52.901321 -13.026962 37,000 276 471 0
2019-08-25 14:16:46 GMT 52.899124 -12.990548 37,000 276 471 0
2019-08-25 14:16:35 GMT 52.896927 -12.953339 37,000 276 471 0
2019-08-25 14:16:25 GMT 52.894749 -12.916469 37,000 276 471 0
2019-08-25 14:16:15 GMT 52.891396 -12.860203 37,000 276 472 0
2019-08-25 14:16:04 GMT 52.890278 -12.841213 37,000 276 472 0
2019-08-25 14:16:00 GMT 52.889420 -12.826843 37,000 276 472 0
2019-08-25 14:15:55 GMT 52.888229 -12.806778 37,000 276 473 0
2019-08-25 14:15:50 GMT 52.887131 -12.789154 37,000 276 473 0
2019-08-25 14:15:42 GMT 52.885437 -12.761154 37,000 276 473 0
2019-08-25 14:15:31 GMT 52.883202 -12.724522 37,000 276 473 0
2019-08-25 14:15:24 GMT 52.881481 -12.696507 37,000 276 473 0
2019-08-25 14:15:21 GMT 52.880951 -12.687531 37,000 276 473 0
2019-08-25 14:15:14 GMT 52.879211 -12.659149 37,000 276 473 0
2019-08-25 14:15:10 GMT 52.878548 -12.648324 37,000 276 473 0
2019-08-25 14:15:01 GMT 52.876408 -12.613796 37,000 276 474 0
2019-08-25 14:14:52 GMT 52.874542 -12.583583 37,000 276 474 0
2019-08-25 14:14:49 GMT 52.873764 -12.571335 37,000 276 474 0
2019-08-25 14:14:42 GMT 52.872311 -12.547956 37,000 276 474 -64
2019-08-25 14:14:37 GMT 52.870914 -12.525670 37,000 277 475 0
2019-08-25 14:14:32 GMT 52.870056 -12.511978 37,000 276 474 0
2019-08-25 14:14:29 GMT 52.867722 -12.474899 37,000 277 475 0
2019-08-25 14:14:22 GMT 52.867722 -12.474899 37,000 277 474 0
2019-08-25 14:14:18 GMT 52.866722 -12.459752 37,000 277 474 0
2019-08-25 14:14:12 GMT 52.864536 -12.424831 37,000 277 475 0
2019-08-25 14:14:02 GMT 52.863052 -12.402115 37,000 277 475 0
2019-08-25 14:13:55 GMT 52.861496 -12.377625 37,000 277 475 0
2019-08-25 14:13:48 GMT 52.859802 -12.350922 37,000 277 475 0
2019-08-25 14:13:41 GMT 52.858200 -12.325668 37,000 277 475 0
2019-08-25 14:13:38 GMT 52.857552 -12.315909 37,000 277 475 0
2019-08-25 14:13:31 GMT 52.855877 -12.289934 37,000 277 476 0
2019-08-25 14:13:24 GMT 52.854401 -12.267227 37,000 277 476 0
2019-08-25 14:13:20 GMT 52.853409 -12.252032 37,000 277 476 0
2019-08-25 14:13:16 GMT 52.852432 -12.236494 37,000 277 476 0
2019-08-25 14:13:09 GMT 52.850849 -12.212638 37,000 277 476 0
2019-08-25 14:13:05 GMT 52.849777 -12.195609 37,000 277 476 0
2019-08-25 14:13:00 GMT 52.848587 -12.177505 37,000 277 476 64
2019-08-25 14:12:56 GMT 52.847683 -12.164533 37,000 277 477 0
2019-08-25 14:12:50 GMT 52.846100 -12.140599 37,000 277 477 0
2019-08-25 14:12:46 GMT 52.845261 -12.128357 37,000 277 477 0
2019-08-25 14:12:39 GMT 52.843586 -12.103010 37,000 277 477 0
2019-08-25 14:12:35 GMT 52.842728 -12.089920 37,000 277 478 0
2019-08-25 14:12:28 GMT 52.841072 -12.064950 37,000 277 478 0
2019-08-25 14:12:23 GMT 52.839706 -12.044678 37,000 277 478 0
2019-08-25 14:12:19 GMT 52.838654 -12.029088 37,000 277 478 0
2019-08-25 14:12:13 GMT 52.837303 -12.009155 37,000 277 478 0
2019-08-25 14:12:09 GMT 52.836094 -11.991342 37,000 277 478 0
2019-08-25 14:12:04 GMT 52.835068 -11.976118 37,000 277 478 0
2019-08-25 14:11:58 GMT 52.833626 -11.954773 37,000 277 479 0
2019-08-25 14:11:54 GMT 52.832645 -11.940255 37,000 277 479 0
2019-08-25 14:11:48 GMT 52.831100 -11.917725 37,000 277 479 0
2019-08-25 14:11:44 GMT 52.830093 -11.902847 37,000 277 480 0
2019-08-25 14:11:37 GMT 52.828445 -11.878891 37,000 277 480 0
2019-08-25 14:11:32 GMT 52.827209 -11.860733 37,000 277 480 0
2019-08-25 14:11:28 GMT 52.825943 -11.842555 37,000 277 481 0
2019-08-25 14:11:23 GMT 52.824875 -11.826861 37,000 277 481 64
2019-08-25 14:11:16 GMT 52.823105 -11.800650 37,000 277 482 0
2019-08-25 14:11:13 GMT 52.822311 -11.789350 37,000 277 482 0
2019-08-25 14:11:07 GMT 52.820683 -11.765651 37,000 277 482 0
2019-08-25 14:11:02 GMT 52.819706 -11.751447 37,000 277 483 64
2019-08-25 14:10:55 GMT 52.817844 -11.725080 37,000 277 483 0
2019-08-25 14:10:52 GMT 52.817047 -11.713409 37,000 277 483 -64
2019-08-25 14:10:45 GMT 52.815189 -11.686707 37,000 277 483 -64
2019-08-25 14:10:42 GMT 52.814445 -11.676113 37,025 277 483 -128
2019-08-25 14:10:35 GMT 52.812584 -11.649745 37,000 277 484 64
2019-08-25 14:10:31 GMT 52.811783 -11.638794 37,000 277 484 64
2019-08-25 14:10:24 GMT 52.809814 -11.610947 37,000 277 485 0
2019-08-25 14:10:19 GMT 52.808670 -11.595154 37,000 277 486 -64
2019-08-25 14:10:15 GMT 52.807278 -11.574960 37,000 277 487 128
2019-08-25 14:10:11 GMT 52.806427 -11.563492 37,000 277 487 0
2019-08-25 14:10:03 GMT 52.804413 -11.535110 37,000 277 488 -128
2019-08-25 14:09:59 GMT 52.803268 -11.519241 37,000 277 489 0
2019-08-25 14:09:55 GMT 52.802124 -11.503296 37,000 277 489 0
2019-08-25 14:09:50 GMT 52.800945 -11.487069 37,000 277 489 0
2019-08-25 14:09:44 GMT 52.798988 -11.459603 37,000 277 490 0
2019-08-25 14:09:40 GMT 52.798244 -11.448853 37,000 277 490 64
2019-08-25 14:09:35 GMT 52.796036 -11.418762 37,000 277 491 -64
2019-08-25 14:09:29 GMT 52.795349 -11.409531 37,000 277 491 0
2019-08-25 14:09:24 GMT 52.793884 -11.389084 37,000 277 492 0
2019-08-25 14:09:19 GMT 52.792740 -11.373062 37,000 277 492 0
2019-08-25 14:09:12 GMT 52.790794 -11.346601 37,000 277 493 0
2019-08-25 14:09:09 GMT 52.789810 -11.333160 37,000 277 493 0
2019-08-25 14:08:58 GMT 52.786972 -11.294403 37,000 277 494 0
2019-08-25 14:08:51 GMT 52.783535 -11.247175 37,000 277 495 0
2019-08-25 14:08:47 GMT 52.783535 -11.247175 37,000 277 495 0
2019-08-25 14:08:38 GMT 52.781433 -11.218338 37,000 277 496 0
2019-08-25 14:08:27 GMT 52.778507 -11.178667 37,000 277 496 0
2019-08-25 14:08:21 GMT 52.776783 -11.155361 37,000 278 496 0
2019-08-25 14:08:17 GMT 52.775715 -11.140765 37,000 277 496 0
2019-08-25 14:08:10 GMT 52.773247 -11.107806 37,000 278 496 0
2019-08-25 14:08:07 GMT 52.772781 -11.101761 37,000 278 496 0
2019-08-25 14:08:00 GMT 52.770779 -11.075160 37,000 278 496 0
2019-08-25 14:07:57 GMT 52.769852 -11.062393 37,000 278 496 0
2019-08-25 14:07:46 GMT 52.766960 -11.024466 37,000 278 496 0
2019-08-25 14:07:39 GMT 52.764912 -10.997471 37,000 278 497 0
2019-08-25 14:07:36 GMT 52.763947 -10.984726 37,000 278 497 0
2019-08-25 14:07:29 GMT 52.761932 -10.958405 37,000 278 497 0
2019-08-25 14:07:24 GMT 52.760536 -10.940421 37,000 278 498 0
2019-08-25 14:07:21 GMT 52.759781 -10.930634 37,000 278 498 0
2019-08-25 14:07:18 GMT 52.758911 -10.919037 37,000 278 498 0
2019-08-25 14:07:15 GMT 52.758087 -10.908508 37,000 278 498 0
2019-08-25 14:07:09 GMT 52.756115 -10.883292 37,000 278 498 0
2019-08-25 14:07:05 GMT 52.755112 -10.869827 37,000 278 498 0
2019-08-25 14:07:00 GMT 52.753742 -10.852216 37,000 278 498 0
2019-08-25 14:06:55 GMT 52.752064 -10.830793 37,000 278 498 0
2019-08-25 14:06:51 GMT 52.750854 -10.815048 37,000 278 498 0
2019-08-25 14:06:44 GMT 52.749039 -10.791399 37,000 278 497 0
2019-08-25 14:06:41 GMT 52.747787 -10.775604 37,000 278 497 0
2019-08-25 14:06:34 GMT 52.745911 -10.751648 37,000 278 497 0
2019-08-25 14:06:30 GMT 52.743668 -10.722733 37,000 278 497 -64
2019-08-25 14:06:26 GMT 52.743668 -10.722733 37,000 278 497 0
2019-08-25 14:06:23 GMT 52.742802 -10.711513 37,000 278 497 64
2019-08-25 14:06:16 GMT 52.740646 -10.684128 37,000 278 497 0
2019-08-25 14:06:13 GMT 52.739777 -10.672904 37,000 278 497 0
2019-08-25 14:06:10 GMT 52.738861 -10.661621 37,000 278 497 0
2019-08-25 14:06:03 GMT 52.736801 -10.635757 37,000 278 497 64
2019-08-25 14:05:59 GMT 52.735771 -10.622288 36,975 278 497 0
2019-08-25 14:05:54 GMT 52.734051 -10.600551 37,000 278 497 64
2019-08-25 14:05:51 GMT 52.733303 -10.591605 36,975 278 497 0
2019-08-25 14:05:47 GMT 52.732002 -10.575126 37,000 278 497 0
2019-08-25 14:05:41 GMT 52.730324 -10.553781 37,000 278 496 0
2019-08-25 14:05:38 GMT 52.729523 -10.544052 37,000 278 496 64
2019-08-25 14:05:33 GMT 52.726601 -10.507717 36,975 278 494 64
2019-08-25 14:05:29 GMT 52.726601 -10.507717 37,000 278 496 0
2019-08-25 14:05:22 GMT 52.723572 -10.470352 37,000 278 496 -64
2019-08-25 14:05:19 GMT 52.723572 -10.470352 37,025 278 496 0
2019-08-25 14:05:12 GMT 52.721603 -10.446396 37,000 278 496 0
2019-08-25 14:05:09 GMT 52.720455 -10.432225 37,000 278 496 0
2019-08-25 14:05:02 GMT 52.718174 -10.404524 36,975 278 496 64
2019-08-25 14:04:58 GMT 52.717243 -10.392988 37,000 278 496 -64
2019-08-25 14:04:55 GMT 52.716267 -10.380668 37,000 278 496 0
2019-08-25 14:04:51 GMT 52.714870 -10.363796 37,000 278 496 0
2019-08-25 14:04:48 GMT 52.714264 -10.356341 37,000 278 496 0
2019-08-25 14:04:40 GMT 52.711807 -10.325699 37,000 278 496 -64
2019-08-25 14:04:32 GMT 52.709290 -10.294342 37,025 278 495 0
2019-08-25 14:04:28 GMT 52.708099 -10.279770 37,000 278 495 0
2019-08-25 14:04:20 GMT 52.705467 -10.248125 37,000 278 494 0
2019-08-25 14:04:17 GMT 52.704895 -10.241394 37,000 278 494 0
2019-08-25 14:04:10 GMT 52.702332 -10.210953 37,000 278 494 0
2019-08-25 14:04:06 GMT 52.701508 -10.200882 37,000 278 494 0
2019-08-25 14:04:01 GMT 52.699814 -10.180435 37,000 278 493 0
2019-08-25 14:03:58 GMT 52.698807 -10.168152 37,000 278 494 0
2019-08-25 14:03:49 GMT 52.696297 -10.138027 37,000 278 493 0
2019-08-25 14:03:46 GMT 52.695374 -10.126877 37,000 278 493 0
2019-08-25 14:03:40 GMT 52.693222 -10.101222 37,000 278 493 0
2019-08-25 14:03:37 GMT 52.692478 -10.092276 37,000 278 493 0
2019-08-25 14:03:27 GMT 52.687309 -10.030282 37,000 279 493 0
2019-08-25 14:03:20 GMT 52.687309 -10.030282 37,000 278 493 -64
2019-08-25 14:03:17 GMT 52.686054 -10.015765 37,000 278 493 -64
2019-08-25 14:03:13 GMT 52.685028 -10.003510 37,000 278 493 0
2019-08-25 14:03:07 GMT 52.683029 -9.979824 37,000 279 492 0
2019-08-25 14:03:03 GMT 52.681870 -9.966431 37,000 279 492 0
2019-08-25 14:02:59 GMT 52.680515 -9.950553 37,000 279 492 0
2019-08-25 14:02:56 GMT 52.679443 -9.938311 37,000 279 492 0
2019-08-25 14:02:49 GMT 52.676418 -9.902684 37,000 279 493 0
2019-08-25 14:02:43 GMT 52.675461 -9.891586 37,000 279 493 0
2019-08-25 14:02:39 GMT 52.673717 -9.871137 37,000 279 493 0
2019-08-25 14:02:36 GMT 52.672928 -9.861877 37,000 279 493 0
2019-08-25 14:02:33 GMT 52.672276 -9.854422 37,000 279 493 0
2019-08-25 14:02:28 GMT 52.669693 -9.824371 37,000 279 493 0
2019-08-25 14:02:25 GMT 52.668915 -9.815140 37,000 279 493 0
2019-08-25 14:02:17 GMT 52.667267 -9.796143 37,000 279 493 0
2019-08-25 14:02:13 GMT 52.665390 -9.774628 37,000 279 493 0
2019-08-25 14:02:08 GMT 52.664017 -9.758682 37,000 279 493 0
2019-08-25 14:02:05 GMT 52.663197 -9.749032 37,000 279 493 0
2019-08-25 14:02:02 GMT 52.662170 -9.737497 37,000 279 493 0
2019-08-25 14:01:56 GMT 52.658890 -9.699631 37,000 279 494 0
2019-08-25 14:01:52 GMT 52.658890 -9.699631 37,000 279 494 0
2019-08-25 14:01:47 GMT 52.657330 -9.681780 37,000 279 494 0
2019-08-25 14:01:44 GMT 52.656372 -9.670639 37,000 279 495 -64
2019-08-25 14:01:41 GMT 52.655468 -9.660200 37,000 279 495 0
2019-08-25 14:01:37 GMT 52.653900 -9.642410 37,000 279 495 0
2019-08-25 14:01:33 GMT 52.653076 -9.633102 37,000 279 495 0
2019-08-25 14:01:30 GMT 52.652023 -9.621582 37,000 279 495 0
2019-08-25 14:01:25 GMT 52.650116 -9.599618 37,000 279 495 0
2019-08-25 14:01:21 GMT 52.648952 -9.586591 37,000 279 495 0
2019-08-25 14:01:17 GMT 52.647511 -9.570583 37,000 279 495 0
2019-08-25 14:01:14 GMT 52.646576 -9.559832 37,000 279 495 0
2019-08-25 14:01:11 GMT 52.645432 -9.547195 37,000 279 495 0
2019-08-25 14:01:05 GMT 52.643509 -9.525223 37,000 279 496 0
2019-08-25 14:01:00 GMT 52.641861 -9.506607 37,000 279 496 0
2019-08-25 14:00:55 GMT 52.640247 -9.488735 37,000 279 496 0
2019-08-25 14:00:50 GMT 52.638523 -9.469038 37,000 279 496 0
2019-08-25 14:00:45 GMT 52.636871 -9.450760 37,000 279 496 0
2019-08-25 14:00:41 GMT 52.634674 -9.425812 37,000 279 497 0
2019-08-25 14:00:34 GMT 52.633301 -9.410858 37,000 279 497 0
2019-08-25 14:00:31 GMT 52.632339 -9.399719 37,000 279 497 0
2019-08-25 14:00:28 GMT 52.631332 -9.388885 37,000 279 497 64
2019-08-25 14:00:24 GMT 52.630005 -9.373932 37,000 279 497 64
2019-08-25 14:00:21 GMT 52.628677 -9.359360 37,000 279 497 0
2019-08-25 14:00:17 GMT 52.627632 -9.347403 37,000 279 498 0
2019-08-25 14:00:13 GMT 52.626419 -9.334377 37,000 279 498 0
2019-08-25 14:00:10 GMT 52.624969 -9.317932 37,000 279 498 0
2019-08-25 14:00:07 GMT 52.624092 -9.308167 37,000 279 498 0
2019-08-25 14:00:03 GMT 52.623093 -9.297333 37,000 279 499 0
2019-08-25 14:00:00 GMT 52.621536 -9.280167 37,000 279 499 -64
2019-08-25 13:59:56 GMT 52.620346 -9.267044 37,000 279 499 0
2019-08-25 13:59:53 GMT 52.619476 -9.257660 37,000 279 499 0
2019-08-25 13:59:49 GMT 52.618134 -9.242719 37,000 279 499 0
2019-08-25 13:59:46 GMT 52.616970 -9.230399 37,000 279 499 0
2019-08-25 13:59:42 GMT 52.615852 -9.218000 37,000 279 499 0
2019-08-25 13:59:38 GMT 52.614365 -9.201913 37,000 279 499 -64
2019-08-25 13:59:35 GMT 52.613480 -9.192575 37,000 279 499 0
2019-08-25 13:59:32 GMT 52.612473 -9.181290 37,000 279 499 0
2019-08-25 13:59:29 GMT 52.611153 -9.167071 37,000 279 499 64
2019-08-25 13:59:26 GMT 52.610046 -9.155121 37,000 279 499 64
2019-08-25 13:59:23 GMT 52.608902 -9.142380 37,000 279 499 0
2019-08-25 13:59:17 GMT 52.607071 -9.122925 37,000 279 499 0
2019-08-25 13:59:14 GMT 52.605606 -9.106827 37,000 279 499 -64
2019-08-25 13:59:11 GMT 52.605053 -9.100760 37,000 279 499 -64
2019-08-25 13:59:05 GMT 52.602448 -9.072723 37,000 279 498 0
2019-08-25 13:59:01 GMT 52.601608 -9.063407 37,025 279 498 0
2019-08-25 13:58:57 GMT 52.599884 -9.045029 37,000 279 498 0
2019-08-25 13:58:53 GMT 52.598831 -9.034195 37,000 279 498 0
2019-08-25 13:58:50 GMT 52.597885 -9.024091 37,000 279 499 0
2019-08-25 13:58:46 GMT 52.596302 -9.006906 37,000 279 499 0
2019-08-25 13:58:43 GMT 52.594345 -8.986346 37,000 279 499 -64
2019-08-25 13:58:40 GMT 52.594345 -8.986346 37,000 279 499 -64
2019-08-25 13:58:37 GMT 52.592880 -8.970642 37,000 279 499 64
2019-08-25 13:58:33 GMT 52.591690 -8.958282 37,000 279 499 64
2019-08-25 13:58:30 GMT 52.590576 -8.946324 37,000 279 499 64
2019-08-25 13:58:26 GMT 52.589172 -8.931351 37,000 279 500 0
2019-08-25 13:58:23 GMT 52.588028 -8.919754 37,000 279 500 0
2019-08-25 13:58:20 GMT 52.585602 -8.894348 37,000 279 499 0
2019-08-25 13:58:16 GMT 52.585602 -8.894348 37,000 279 499 0
2019-08-25 13:58:12 GMT 52.584198 -8.879386 37,000 279 499 -64
2019-08-25 13:58:09 GMT 52.583267 -8.869629 37,000 279 499 0
2019-08-25 13:58:06 GMT 52.582054 -8.856942 37,000 279 499 0
2019-08-25 13:58:03 GMT 52.580845 -8.843837 37,000 279 498 -64
2019-08-25 13:57:58 GMT 52.578918 -8.823700 37,000 279 498 0
2019-08-25 13:57:53 GMT 52.577682 -8.810577 37,000 279 498 64
2019-08-25 13:57:50 GMT 52.576447 -8.797531 37,000 279 498 0
2019-08-25 13:57:47 GMT 52.575352 -8.786316 37,000 279 498 64
2019-08-25 13:57:43 GMT 52.574142 -8.773289 37,000 279 498 0
2019-08-25 13:57:40 GMT 52.572884 -8.760184 37,000 279 498 0
2019-08-25 13:57:37 GMT 52.571823 -8.749008 37,000 279 498 64
2019-08-25 13:57:34 GMT 52.569855 -8.728485 37,000 279 498 0
2019-08-25 13:57:31 GMT 52.568527 -8.714294 36,975 279 498 64
2019-08-25 13:57:28 GMT 52.568527 -8.714294 37,000 279 498 0
2019-08-25 13:57:24 GMT 52.567108 -8.699799 37,000 279 498 0
2019-08-25 13:57:21 GMT 52.566322 -8.691206 37,000 279 499 0
2019-08-25 13:57:17 GMT 52.564648 -8.674020 37,000 279 499 0
2019-08-25 13:57:14 GMT 52.563526 -8.662484 37,000 279 499 0
2019-08-25 13:57:11 GMT 52.562622 -8.653107 37,000 279 499 0
2019-08-25 13:57:07 GMT 52.561295 -8.639297 37,000 279 499 0
2019-08-25 13:57:04 GMT 52.560104 -8.627014 37,000 279 499 0
2019-08-25 13:57:01 GMT 52.557907 -8.603821 37,000 279 499 0
2019-08-25 13:56:58 GMT 52.556305 -8.587418 37,000 279 499 0
2019-08-25 13:56:54 GMT 52.556305 -8.587418 37,000 279 499 0
2019-08-25 13:56:51 GMT 52.555435 -8.578415 37,000 279 499 0
2019-08-25 13:56:47 GMT 52.553970 -8.563156 37,000 279 499 0
2019-08-25 13:56:43 GMT 52.552322 -8.545990 37,000 280 499 0
2019-08-25 13:56:39 GMT 52.550915 -8.531825 37,000 280 498 0
2019-08-25 13:56:36 GMT 52.547981 -8.502005 37,000 280 498 0
2019-08-25 13:56:31 GMT 52.547981 -8.502005 37,000 280 498 0
2019-08-25 13:56:27 GMT 52.545189 -8.473755 37,000 280 498 0
2019-08-25 13:56:23 GMT 52.545189 -8.473755 37,000 280 498 0
2019-08-25 13:56:19 GMT 52.543854 -8.460312 37,000 280 499 0
2019-08-25 13:56:16 GMT 52.542439 -8.446132 37,000 280 499 0
2019-08-25 13:56:13 GMT 52.541336 -8.434982 37,000 280 499 0
2019-08-25 13:56:10 GMT 52.540421 -8.425674 37,000 280 499 0
2019-08-25 13:56:07 GMT 52.539459 -8.415998 37,000 280 499 0
2019-08-25 13:56:04 GMT 52.538361 -8.404770 37,000 280 499 0
2019-08-25 13:56:01 GMT 52.534714 -8.367501 37,000 280 499 0
2019-08-25 13:55:56 GMT 52.534714 -8.367501 37,000 280 498 64
2019-08-25 13:55:53 GMT 52.533783 -8.358231 37,000 280 498 64
2019-08-25 13:55:44 GMT 52.530804 -8.328421 37,000 280 498 -64
2019-08-25 13:55:40 GMT 52.529358 -8.313904 37,000 280 498 0
2019-08-25 13:55:36 GMT 52.527786 -8.298264 37,000 280 498 0
2019-08-25 13:55:33 GMT 52.526642 -8.286743 37,000 280 498 0
2019-08-25 13:55:30 GMT 52.525543 -8.275609 37,000 280 498 0
2019-08-25 13:55:26 GMT 52.523960 -8.259992 37,000 280 498 0
2019-08-25 13:55:23 GMT 52.523075 -8.251046 37,000 280 498 0
2019-08-25 13:55:20 GMT 52.521770 -8.238020 37,000 280 498 0
2019-08-25 13:55:15 GMT 52.520233 -8.222351 37,000 280 498 0
2019-08-25 13:55:12 GMT 52.517120 -8.191528 37,000 280 498 64
2019-08-25 13:55:07 GMT 52.517120 -8.191528 37,000 280 497 64
2019-08-25 13:55:02 GMT 52.513905 -8.159938 37,000 280 497 64
2019-08-25 13:54:55 GMT 52.512589 -8.146591 37,000 280 497 0
2019-08-25 13:54:52 GMT 52.511295 -8.133963 37,000 280 497 0
2019-08-25 13:54:49 GMT 52.510300 -8.124237 37,000 280 497 -64
2019-08-25 13:54:44 GMT 52.508503 -8.106419 37,000 280 497 -64
2019-08-25 13:54:41 GMT 52.506874 -8.090489 37,000 280 497 0
2019-08-25 13:54:34 GMT 52.504223 -8.064514 37,000 280 497 -64
2019-08-25 13:54:31 GMT 52.503429 -8.056667 37,000 280 497 0
2019-08-25 13:54:28 GMT 52.502380 -8.046341 37,000 280 497 0
2019-08-25 13:54:23 GMT 52.500404 -8.027004 37,000 280 497 0
2019-08-25 13:54:20 GMT 52.496246 -7.986221 37,000 280 497 64
2019-08-25 13:54:12 GMT 52.495281 -7.976545 37,000 280 497 0
2019-08-25 13:54:05 GMT 52.492264 -7.947311 37,000 280 496 0
2019-08-25 13:54:02 GMT 52.492264 -7.947311 37,000 280 496 0
2019-08-25 13:53:59 GMT 52.491440 -7.939529 37,000 280 496 0
2019-08-25 13:53:56 GMT 52.488255 -7.908744 37,000 280 497 0
2019-08-25 13:53:51 GMT 52.488255 -7.908744 37,000 280 496 0
2019-08-25 13:53:48 GMT 52.486954 -7.896118 37,000 280 496 0
2019-08-25 13:53:40 GMT 52.484024 -7.867966 37,000 280 498 0
2019-08-25 13:53:37 GMT 52.482651 -7.854996 37,000 280 497 0
2019-08-25 13:53:33 GMT 52.481232 -7.841263 37,000 280 497 0
2019-08-25 13:53:30 GMT 52.480061 -7.830191 37,000 280 498 0
2019-08-25 13:53:27 GMT 52.478897 -7.818656 37,000 280 498 0
2019-08-25 13:53:21 GMT 52.476383 -7.794957 37,000 280 498 -64
2019-08-25 13:53:18 GMT 52.475639 -7.787502 37,000 280 498 -64
2019-08-25 13:53:10 GMT 52.472305 -7.755585 37,000 280 498 0
2019-08-25 13:53:07 GMT 52.471344 -7.746353 37,000 280 499 0
2019-08-25 13:52:59 GMT 52.468143 -7.715463 37,000 280 499 0
2019-08-25 13:52:56 GMT 52.467026 -7.704712 37,000 280 499 0
2019-08-25 13:52:51 GMT 52.464798 -7.683563 37,000 280 499 0
2019-08-25 13:52:47 GMT 52.463516 -7.671280 37,000 280 499 64
2019-08-25 13:52:40 GMT 52.460693 -7.644130 37,000 280 499 64
2019-08-25 13:52:37 GMT 52.459625 -7.633743 37,000 280 499 0
2019-08-25 13:52:31 GMT 52.457336 -7.612228 37,000 280 498 0
2019-08-25 13:52:28 GMT 52.455013 -7.590690 37,000 280 498 0
2019-08-25 13:52:25 GMT 52.453430 -7.575858 37,000 280 498 0
2019-08-25 13:52:18 GMT 52.452221 -7.564322 37,000 280 498 0
2019-08-25 13:52:15 GMT 52.450699 -7.550278 37,000 280 498 0
2019-08-25 13:52:08 GMT 52.448219 -7.526890 37,000 280 498 -64
2019-08-25 13:52:05 GMT 52.444885 -7.496109 37,000 281 497 0
2019-08-25 13:51:57 GMT 52.444016 -7.487564 37,000 280 498 0
2019-08-25 13:51:54 GMT 52.440212 -7.452026 37,000 281 497 0
2019-08-25 13:51:48 GMT 52.440212 -7.452026 37,000 280 498 0
2019-08-25 13:51:45 GMT 52.438721 -7.438293 37,000 281 498 0
2019-08-25 13:51:39 GMT 52.436142 -7.414246 37,000 281 498 0
2019-08-25 13:51:36 GMT 52.435043 -7.403843 37,000 281 498 0
2019-08-25 13:51:33 GMT 52.434448 -7.398300 37,000 281 497 0
2019-08-25 13:51:27 GMT 52.431793 -7.373810 37,000 281 497 0
2019-08-25 13:51:24 GMT 52.430191 -7.359009 37,000 281 497 0
2019-08-25 13:51:21 GMT 52.429550 -7.353134 37,000 281 497 0
2019-08-25 13:51:17 GMT 52.427410 -7.333531 37,000 281 497 0
2019-08-25 13:51:13 GMT 52.426208 -7.322388 37,000 281 497 0
2019-08-25 13:51:09 GMT 52.424652 -7.307968 37,000 281 497 0
2019-08-25 13:51:06 GMT 52.423683 -7.299159 37,000 281 497 0
2019-08-25 13:51:03 GMT 52.421963 -7.283229 37,000 281 497 0
2019-08-25 13:50:59 GMT 52.420578 -7.270660 37,000 281 496 0
2019-08-25 13:50:56 GMT 52.419296 -7.259216 37,000 281 496 0
2019-08-25 13:50:53 GMT 52.418007 -7.247367 37,000 281 497 0
2019-08-25 13:50:50 GMT 52.417122 -7.238892 37,000 281 496 0
2019-08-25 13:50:44 GMT 52.414375 -7.213780 37,000 281 496 0
2019-08-25 13:50:41 GMT 52.413391 -7.204895 37,000 281 497 0
2019-08-25 13:50:36 GMT 52.411163 -7.184588 37,000 281 497 0
2019-08-25 13:50:33 GMT 52.410233 -7.175720 37,000 281 497 0
2019-08-25 13:50:30 GMT 52.408997 -7.164688 37,000 281 497 0
2019-08-25 13:50:26 GMT 52.406925 -7.145429 37,000 281 497 0
2019-08-25 13:50:23 GMT 52.406136 -7.138445 37,000 281 497 0
2019-08-25 13:50:20 GMT 52.404831 -7.126203 37,000 281 497 0
2019-08-25 13:50:16 GMT 52.403183 -7.111435 37,000 281 497 0
2019-08-25 13:50:13 GMT 52.401993 -7.100385 37,000 281 495 0
2019-08-25 13:50:10 GMT 52.400314 -7.085240 37,000 281 497 0
2019-08-25 13:50:05 GMT 52.396870 -7.054635 37,000 281 497 0
2019-08-25 13:50:01 GMT 52.396870 -7.054635 37,000 281 497 0
2019-08-25 13:49:58 GMT 52.395706 -7.044277 37,000 281 497 0
2019-08-25 13:49:53 GMT 52.393570 -7.025452 37,000 281 497 0
2019-08-25 13:49:49 GMT 52.391796 -7.009199 37,000 281 497 0
2019-08-25 13:49:44 GMT 52.389954 -6.992645 37,000 281 497 0
2019-08-25 13:49:41 GMT 52.388855 -6.983032 37,000 281 497 64
2019-08-25 13:49:37 GMT 52.385971 -6.956787 37,000 281 497 0
2019-08-25 13:49:34 GMT 52.385971 -6.956787 37,000 281 497 0
2019-08-25 13:49:31 GMT 52.384628 -6.945007 37,000 281 497 -64
2019-08-25 13:49:27 GMT 52.382629 -6.927338 37,000 281 497 -64
2019-08-25 13:49:23 GMT 52.381439 -6.916656 37,000 281 496 0
2019-08-25 13:49:20 GMT 52.380249 -6.905975 37,000 281 497 0
2019-08-25 13:49:16 GMT 52.378391 -6.889369 37,000 281 496 64
2019-08-25 13:49:13 GMT 52.377136 -6.878357 37,000 281 496 64
2019-08-25 13:49:10 GMT 52.375969 -6.867632 37,000 281 496 0
2019-08-25 13:49:06 GMT 52.374432 -6.854056 37,000 281 495 0
2019-08-25 13:49:02 GMT 52.372990 -6.840794 37,000 281 495 0
2019-08-25 13:48:59 GMT 52.369766 -6.812515 37,000 281 495 0
2019-08-25 13:48:55 GMT 52.369766 -6.812515 37,000 281 495 0
2019-08-25 13:48:52 GMT 52.368118 -6.798248 37,000 281 495 0
2019-08-25 13:48:49 GMT 52.367523 -6.792755 37,000 281 495 0
2019-08-25 13:48:44 GMT 52.365402 -6.774405 37,000 281 495 0
2019-08-25 13:48:41 GMT 52.362854 -6.752014 37,000 281 495 0
2019-08-25 13:48:34 GMT 52.360840 -6.734009 37,000 281 495 0
2019-08-25 13:48:31 GMT 52.359787 -6.724854 37,000 281 495 0
2019-08-25 13:48:28 GMT 52.358746 -6.715315 37,000 281 495 0
2019-08-25 13:48:22 GMT 52.355675 -6.688163 37,000 281 494 0
2019-08-25 13:48:18 GMT 52.354370 -6.676784 37,000 281 494 0
2019-08-25 13:48:13 GMT 52.350677 -6.644516 37,000 281 494 0
2019-08-25 13:48:10 GMT 52.350677 -6.644516 37,000 281 494 0
2019-08-25 13:48:07 GMT 52.349854 -6.637192 37,000 281 493 0
2019-08-25 13:48:02 GMT 52.346558 -6.608276 37,000 281 494 0
2019-08-25 13:47:59 GMT 52.346558 -6.608276 37,000 281 494 0
2019-08-25 13:47:55 GMT 52.344910 -6.594009 37,000 281 494 0
2019-08-25 13:47:52 GMT 52.343079 -6.578293 37,000 281 493 0
2019-08-25 13:47:49 GMT 52.342171 -6.570295 37,000 281 493 0
2019-08-25 13:47:45 GMT 52.339279 -6.545792 37,000 281 492 0
2019-08-25 13:47:42 GMT 52.339279 -6.545792 37,000 281 493 0
2019-08-25 13:47:39 GMT 52.337749 -6.532628 37,000 281 493 0
2019-08-25 13:47:35 GMT 52.336121 -6.518738 37,000 281 492 0
2019-08-25 13:47:31 GMT 52.334427 -6.504211 37,000 281 492 0
2019-08-25 13:47:28 GMT 52.333282 -6.494293 37,000 281 492 0
2019-08-25 13:47:25 GMT 52.332001 -6.483383 37,000 281 492 0
2019-08-25 13:47:21 GMT 52.329849 -6.465149 37,000 281 492 0
2019-08-25 13:47:18 GMT 52.328979 -6.457520 37,000 281 492 0
2019-08-25 13:47:14 GMT 52.327320 -6.443638 37,000 281 492 0
2019-08-25 13:47:11 GMT 52.324345 -6.418134 37,000 281 492 0
2019-08-25 13:47:08 GMT 52.324345 -6.418134 37,000 281 492 0
2019-08-25 13:47:02 GMT 52.322342 -6.400635 37,000 281 492 0
2019-08-25 13:46:59 GMT 52.320850 -6.387844 37,000 281 492 0
2019-08-25 13:46:56 GMT 52.319687 -6.378034 37,000 281 492 0
2019-08-25 13:46:53 GMT 52.318634 -6.368561 37,000 281 492 0
2019-08-25 13:46:50 GMT 52.317173 -6.356140 37,000 281 492 0
2019-08-25 13:46:47 GMT 52.315868 -6.344840 37,000 281 492 0
2019-08-25 13:46:44 GMT 52.314568 -6.333540 37,000 281 492 0
2019-08-25 13:46:39 GMT 52.311264 -6.305466 37,000 281 492 0
2019-08-25 13:46:36 GMT 52.311264 -6.305466 37,000 281 492 0
2019-08-25 13:46:33 GMT 52.310192 -6.295951 37,000 281 492 0
2019-08-25 13:46:29 GMT 52.307739 -6.275177 37,000 281 492 0
2019-08-25 13:46:26 GMT 52.306793 -6.267229 37,000 281 492 0
2019-08-25 13:46:23 GMT 52.305676 -6.257734 37,000 281 491 0
2019-08-25 13:46:19 GMT 52.304001 -6.243530 37,000 281 491 0
2019-08-25 13:46:16 GMT 52.302277 -6.228934 37,000 281 491 0
2019-08-25 13:46:13 GMT 52.301254 -6.220616 37,000 282 490 0
2019-08-25 13:46:09 GMT 52.299763 -6.207825 37,000 282 492 0
2019-08-25 13:46:06 GMT 52.298035 -6.193314 37,000 281 491 0
2019-08-25 13:46:02 GMT 52.296738 -6.182399 37,000 282 490 0
2019-08-25 13:45:58 GMT 52.293686 -6.156616 37,000 282 488 0
2019-08-25 13:45:51 GMT 52.291946 -6.142044 37,000 282 491 0
2019-08-25 13:45:48 GMT 52.290638 -6.131156 37,000 282 491 0
2019-08-25 13:45:45 GMT 52.289150 -6.118522 37,000 282 491 0
2019-08-25 13:45:41 GMT 52.287598 -6.105423 37,000 282 491 0
2019-08-25 13:45:37 GMT 52.285355 -6.086960 37,000 282 491 0
2019-08-25 13:45:34 GMT 52.284439 -6.079330 37,000 282 491 0
2019-08-25 13:45:31 GMT 52.283157 -6.068802 37,000 282 491 0
2019-08-25 13:45:28 GMT 52.281830 -6.057587 37,000 282 490 0
2019-08-25 13:45:25 GMT 52.280628 -6.047424 37,000 282 491 0
2019-08-25 13:45:22 GMT 52.279095 -6.034712 37,000 282 490 0
2019-08-25 13:45:18 GMT 52.277161 -6.018829 37,000 282 490 0
2019-08-25 13:45:15 GMT 52.276207 -6.010856 37,000 282 490 0
2019-08-25 13:45:11 GMT 52.272251 -5.977897 37,000 282 490 0
2019-08-25 13:45:06 GMT 52.272251 -5.977897 37,000 282 490 0
2019-08-25 13:45:03 GMT 52.271133 -5.968872 37,000 282 490 0
2019-08-25 13:45:00 GMT 52.269737 -5.956944 37,000 282 490 0
2019-08-25 13:44:57 GMT 52.268341 -5.945722 37,000 282 490 0
2019-08-25 13:44:54 GMT 52.266895 -5.933794 37,000 282 490 0
2019-08-25 13:44:47 GMT 52.263920 -5.909232 37,000 282 489 0
2019-08-25 13:44:43 GMT 52.261822 -5.891889 37,000 282 489 0
2019-08-25 13:44:39 GMT 52.260590 -5.881805 37,000 282 488 0
2019-08-25 13:44:35 GMT 52.258659 -5.865914 37,000 282 489 0
2019-08-25 13:44:32 GMT 52.257568 -5.857239 37,000 282 489 0
2019-08-25 13:44:29 GMT 52.255913 -5.843549 37,000 282 489 0
2019-08-25 13:44:25 GMT 52.254364 -5.830917 37,000 282 489 0
2019-08-25 13:44:22 GMT 52.253082 -5.820084 37,000 282 489 0
2019-08-25 13:44:19 GMT 52.251488 -5.807059 37,000 282 489 0
2019-08-25 13:44:15 GMT 52.248276 -5.780792 37,000 282 489 0
2019-08-25 13:44:12 GMT 52.248276 -5.780792 37,000 282 489 0
2019-08-25 13:44:08 GMT 52.247066 -5.770647 37,000 282 488 0
2019-08-25 13:44:04 GMT 52.244785 -5.751892 37,000 282 488 0
2019-08-25 13:44:01 GMT 52.242458 -5.733215 37,000 282 488 0
2019-08-25 13:43:58 GMT 52.242458 -5.733215 37,000 282 488 0
2019-08-25 13:43:55 GMT 52.241062 -5.721680 37,000 282 488 0
2019-08-25 13:43:51 GMT 52.238892 -5.703964 37,000 282 488 0
2019-08-25 13:43:45 GMT 52.236603 -5.685272 37,000 282 488 0
2019-08-25 13:43:42 GMT 52.235149 -5.673732 37,000 282 488 0
2019-08-25 13:43:39 GMT 52.232849 -5.654984 37,000 282 488 0
2019-08-25 13:43:32 GMT 52.230400 -5.635202 37,000 282 488 0
2019-08-25 13:43:29 GMT 52.229507 -5.627975 37,000 282 488 0
2019-08-25 13:43:26 GMT 52.228271 -5.617905 37,000 282 488 0
2019-08-25 13:43:22 GMT 52.226212 -5.601349 37,000 282 488 0
2019-08-25 13:43:18 GMT 52.224792 -5.590210 37,000 282 488 0
2019-08-25 13:43:15 GMT 52.223328 -5.578308 37,000 282 488 0
2019-08-25 13:43:12 GMT 52.221786 -5.566066 37,000 282 488 0
2019-08-25 13:43:09 GMT 52.220390 -5.554923 37,000 282 488 0
2019-08-25 13:43:06 GMT 52.218704 -5.541229 37,000 282 488 0
2019-08-25 13:43:03 GMT 52.217743 -5.533676 37,000 282 488 0
2019-08-25 13:43:00 GMT 52.216621 -5.524711 37,000 282 488 0
2019-08-25 13:42:57 GMT 52.215504 -5.515686 37,000 282 488 0
2019-08-25 13:42:53 GMT 52.213364 -5.498736 37,000 282 488 0
2019-08-25 13:42:49 GMT 52.211220 -5.481471 37,000 282 488 0
2019-08-25 13:42:45 GMT 52.209778 -5.469971 37,000 282 488 0
2019-08-25 13:42:42 GMT 52.208359 -5.458832 37,000 282 488 0
2019-08-25 13:42:39 GMT 52.206894 -5.447006 37,000 282 488 0
2019-08-25 13:42:36 GMT 52.205658 -5.437241 37,000 282 488 0
2019-08-25 13:42:32 GMT 52.202702 -5.413906 37,000 282 488 0
2019-08-25 13:42:26 GMT 52.201118 -5.401271 37,000 282 488 0
2019-08-25 13:42:22 GMT 52.199112 -5.385056 37,000 282 488 0
2019-08-25 13:42:16 GMT 52.196556 -5.364938 37,000 282 488 0
2019-08-25 13:42:13 GMT 52.195160 -5.353795 37,000 282 488 0
2019-08-25 13:42:09 GMT 52.193481 -5.340881 37,000 282 489 0
2019-08-25 13:42:06 GMT 52.192226 -5.330802 37,000 282 489 0
2019-08-25 13:42:03 GMT 52.190273 -5.315342 37,000 282 488 0
2019-08-25 13:41:58 GMT 52.186890 -5.288773 37,000 282 488 0
2019-08-25 13:41:52 GMT 52.185699 -5.279388 37,000 282 489 0
2019-08-25 13:41:49 GMT 52.184326 -5.268250 37,000 282 488 0
2019-08-25 13:41:46 GMT 52.182678 -5.255356 37,000 282 488 0
2019-08-25 13:41:40 GMT 52.180172 -5.235927 37,000 282 488 0
2019-08-25 13:41:37 GMT 52.178776 -5.224784 37,000 282 488 0
2019-08-25 13:41:34 GMT 52.177643 -5.216217 37,000 282 488 0
2019-08-25 13:41:31 GMT 52.176308 -5.205401 37,000 282 488 0
2019-08-25 13:41:28 GMT 52.174713 -5.193176 37,000 282 488 0
2019-08-25 13:41:25 GMT 52.172928 -5.179214 37,000 282 488 0
2019-08-25 13:41:20 GMT 52.171143 -5.165253 37,000 282 488 0
2019-08-25 13:41:16 GMT 52.169083 -5.149078 37,000 282 488 0
2019-08-25 13:41:13 GMT 52.167973 -5.140503 37,000 282 488 0
2019-08-25 13:41:09 GMT 52.166065 -5.125750 37,000 282 488 0
2019-08-25 13:41:06 GMT 52.163452 -5.105362 37,000 282 488 0
2019-08-25 13:41:00 GMT 52.161850 -5.092773 37,000 282 488 0
2019-08-25 13:40:56 GMT 52.159973 -5.078049 37,000 282 488 0
2019-08-25 13:40:53 GMT 52.158600 -5.067673 37,000 282 488 0
2019-08-25 13:40:50 GMT 52.156631 -5.052261 37,000 282 488 0
2019-08-25 13:40:47 GMT 52.154297 -5.034332 37,000 282 488 0
2019-08-25 13:40:44 GMT 52.154297 -5.034332 37,000 282 488 0
2019-08-25 13:40:38 GMT 52.150314 -5.003510 37,000 282 488 0
2019-08-25 13:40:35 GMT 52.150314 -5.003510 37,000 282 488 0
2019-08-25 13:40:32 GMT 52.148895 -4.992828 37,000 282 488 0
2019-08-25 13:40:29 GMT 52.145279 -4.964828 37,000 282 488 0
2019-08-25 13:40:25 GMT 52.145279 -4.964828 37,000 282 488 0
2019-08-25 13:40:21 GMT 52.143951 -4.954453 37,000 282 488 0
2019-08-25 13:40:18 GMT 52.142044 -4.939767 37,000 282 488 0
2019-08-25 13:40:15 GMT 52.140976 -4.931488 37,000 282 488 0
2019-08-25 13:40:11 GMT 52.138367 -4.911423 37,000 282 488 0
2019-08-25 13:40:07 GMT 52.137062 -4.901393 37,000 282 488 0
2019-08-25 13:40:04 GMT 52.135899 -4.892447 37,000 282 488 0
2019-08-25 13:40:01 GMT 52.132645 -4.867325 37,000 282 488 0
2019-08-25 13:39:58 GMT 52.132645 -4.867325 37,000 282 488 0
2019-08-25 13:39:54 GMT 52.131042 -4.855194 37,000 283 488 0
2019-08-25 13:39:50 GMT 52.129257 -4.841537 37,000 283 488 0
2019-08-25 13:39:47 GMT 52.128124 -4.832964 37,000 283 489 0
2019-08-25 13:39:43 GMT 52.124130 -4.802399 37,000 283 490 -64
2019-08-25 13:39:39 GMT 52.124130 -4.802399 37,000 283 489 0
2019-08-25 13:39:35 GMT 52.121609 -4.783447 37,000 283 489 0
2019-08-25 13:39:32 GMT 52.120628 -4.775835 37,000 283 489 0
2019-08-25 13:39:28 GMT 52.117355 -4.751053 37,000 283 489 0
2019-08-25 13:39:22 GMT 52.116119 -4.741745 37,000 283 490 -64
2019-08-25 13:39:19 GMT 52.114487 -4.729536 37,000 283 490 -64
2019-08-25 13:39:16 GMT 52.111740 -4.708662 37,000 283 490 -64
2019-08-25 13:39:13 GMT 52.111740 -4.708662 36,850 283 494 256
2019-08-25 13:39:10 GMT 52.109848 -4.694214 37,000 283 494 192
2019-08-25 13:39:07 GMT 52.108898 -4.687003 37,000 283 494 320
2019-08-25 13:39:03 GMT 52.107037 -4.672878 36,975 283 494 768
2019-08-25 13:39:00 GMT 52.105408 -4.660568 36,925 283 494 768
2019-08-25 13:38:57 GMT 52.104401 -4.652939 36,575 283 494 960
2019-08-25 13:38:54 GMT 52.102615 -4.639587 36,875 283 494 1024
2019-08-25 13:38:50 GMT 52.100601 -4.624786 36,725 283 494 960
2019-08-25 13:38:47 GMT 52.099136 -4.613495 36,700 283 494 960
2019-08-25 13:38:44 GMT 52.097717 -4.603043 36,675 283 494 960
2019-08-25 13:38:41 GMT 52.095772 -4.588518 36,525 283 494 960
2019-08-25 13:38:38 GMT 52.094650 -4.580231 36,650 283 494 960
2019-08-25 13:38:35 GMT 52.093552 -4.571915 36,000 283 494 -64
2019-08-25 13:38:32 GMT 52.091908 -4.559562 36,475 283 494 960
2019-08-25 13:38:28 GMT 52.090092 -4.546143 36,375 283 495 640
2019-08-25 13:38:25 GMT 52.087051 -4.523315 36,400 283 495 1152
2019-08-25 13:38:22 GMT 52.087051 -4.523315 36,350 283 495 1152
2019-08-25 13:38:19 GMT 52.085484 -4.511771 36,300 283 495 1088
2019-08-25 13:38:16 GMT 52.084213 -4.502335 36,200 283 495 1088
2019-08-25 13:38:13 GMT 52.082611 -4.490356 36,000 283 495 320
2019-08-25 13:38:08 GMT 52.080364 -4.473633 36,050 283 495 448
2019-08-25 13:38:05 GMT 52.078781 -4.461705 36,025 283 495 832
2019-08-25 13:38:02 GMT 52.077026 -4.448624 36,000 283 495 256
2019-08-25 13:37:59 GMT 52.075939 -4.440674 36,000 283 494 64
2019-08-25 13:37:56 GMT 52.073936 -4.425842 36,000 283 494 64
2019-08-25 13:37:52 GMT 52.072495 -4.415327 35,800 283 495 -64
2019-08-25 13:37:45 GMT 52.067467 -4.377973 36,025 283 496 256
2019-08-25 13:37:42 GMT 52.067467 -4.377973 36,025 283 496 192
2019-08-25 13:37:36 GMT 52.063324 -4.347525 35,800 283 495 1024
2019-08-25 13:37:33 GMT 52.063324 -4.347525 35,950 283 495 768
2019-08-25 13:37:30 GMT 52.061928 -4.337010 35,900 283 495 1024
2019-08-25 13:37:27 GMT 52.060272 -4.325104 35,850 283 495 1024
2019-08-25 13:37:24 GMT 52.058807 -4.314253 35,350 283 495 1024
2019-08-25 13:37:21 GMT 52.057178 -4.302246 35,625 283 495 1024
2019-08-25 13:37:18 GMT 52.055374 -4.289246 35,675 283 494 704
2019-08-25 13:37:14 GMT 52.053734 -4.276899 35,000 283 492 192
2019-08-25 13:37:11 GMT 52.052444 -4.267502 35,550 283 495 960
2019-08-25 13:37:08 GMT 52.050797 -4.255600 35,525 283 495 960
2019-08-25 13:37:05 GMT 52.049377 -4.245071 35,325 283 495 960
2019-08-25 13:37:02 GMT 52.047405 -4.230600 35,400 283 494 960
2019-08-25 13:36:59 GMT 52.046379 -4.222988 35,375 283 494 1024
2019-08-25 13:36:56 GMT 52.044891 -4.212158 35,275 283 494 1024
2019-08-25 13:36:53 GMT 52.043610 -4.202728 35,275 283 494 1024
2019-08-25 13:36:50 GMT 52.041630 -4.188302 35,000 285 491 1152
2019-08-25 13:36:44 GMT 52.037674 -4.158953 35,125 283 494 896
2019-08-25 13:36:41 GMT 52.037674 -4.158953 35,100 283 494 832
2019-08-25 13:36:38 GMT 52.036102 -4.147415 35,050 283 492 192
2019-08-25 13:36:34 GMT 52.032074 -4.117889 35,000 283 493 256
2019-08-25 13:36:30 GMT 52.032074 -4.117889 35,000 283 492 192
2019-08-25 13:36:27 GMT 52.030598 -4.107082 35,000 283 492 64
2019-08-25 13:36:23 GMT 52.026855 -4.080124 35,000 283 492 0
2019-08-25 13:36:20 GMT 52.026855 -4.080124 35,000 283 492 0
2019-08-25 13:36:17 GMT 52.025848 -4.072571 35,000 283 492 0
2019-08-25 13:36:14 GMT 52.024033 -4.059605 35,000 283 492 0
2019-08-25 13:36:11 GMT 52.022964 -4.051679 35,000 283 492 0
2019-08-25 13:36:07 GMT 52.020859 -4.036636 35,000 283 491 0
2019-08-25 13:36:03 GMT 52.017471 -4.012222 35,000 283 492 0
2019-08-25 13:35:57 GMT 52.015747 -3.999965 35,000 283 492 0
2019-08-25 13:35:54 GMT 52.012482 -3.976669 35,000 286 491 -64
2019-08-25 13:35:51 GMT 52.012482 -3.976669 35,000 285 490 0
2019-08-25 13:35:48 GMT 52.010788 -3.964462 35,000 283 491 0
2019-08-25 13:35:44 GMT 52.008865 -3.950500 35,000 283 490 0
2019-08-25 13:35:41 GMT 52.007721 -3.942261 35,000 283 490 0
2019-08-25 13:35:38 GMT 52.005981 -3.929749 35,000 285 490 64
2019-08-25 13:35:34 GMT 52.004108 -3.916861 35,000 285 490 0
2019-08-25 13:35:31 GMT 52.002090 -3.904037 35,000 285 490 64
2019-08-25 13:35:28 GMT 52.000397 -3.893814 35,000 286 491 0
2019-08-25 13:35:22 GMT 51.997219 -3.875035 35,000 286 491 0
2019-08-25 13:35:19 GMT 51.995316 -3.863678 35,000 286 491 0
2019-08-25 13:35:16 GMT 51.993496 -3.852748 35,000 286 490 -64
2019-08-25 13:35:13 GMT 51.991837 -3.842773 35,000 286 491 -64
2019-08-25 13:35:10 GMT 51.987583 -3.817671 35,000 286 491 0
2019-08-25 13:35:07 GMT 51.987583 -3.817671 35,000 286 491 -64
2019-08-25 13:35:01 GMT 51.982819 -3.788986 35,000 286 491 128
2019-08-25 13:34:58 GMT 51.982819 -3.788986 35,000 286 491 128
2019-08-25 13:34:55 GMT 51.980850 -3.777237 34,975 286 490 192
2019-08-25 13:34:52 GMT 51.979065 -3.766584 35,000 285 491 640
2019-08-25 13:34:48 GMT 51.976959 -3.753891 34,975 286 491 512
2019-08-25 13:34:45 GMT 51.974899 -3.741455 34,900 285 490 1024
2019-08-25 13:34:42 GMT 51.973206 -3.731155 34,850 285 491 1152
2019-08-25 13:34:39 GMT 51.971432 -3.720520 34,775 285 491 1152
2019-08-25 13:34:36 GMT 51.969986 -3.711652 34,750 285 491 1152
2019-08-25 13:34:33 GMT 51.968357 -3.701686 34,650 285 491 1088
2019-08-25 13:34:30 GMT 51.966404 -3.689680 34,450 286 489 1088
2019-08-25 13:34:24 GMT 51.962723 -3.667374 34,500 285 490 1024
2019-08-25 13:34:21 GMT 51.960957 -3.656721 34,350 286 490 1024
2019-08-25 13:34:18 GMT 51.959560 -3.648246 34,400 286 490 1024
2019-08-25 13:34:14 GMT 51.955399 -3.623810 34,325 286 490 1152
2019-08-25 13:34:08 GMT 51.953384 -3.612213 34,250 286 490 1216
2019-08-25 13:34:05 GMT 51.951088 -3.598807 34,100 286 490 1280
2019-08-25 13:34:02 GMT 51.949409 -3.589312 34,100 286 490 1280
2019-08-25 13:33:59 GMT 51.947525 -3.578720 34,025 286 490 1280
2019-08-25 13:33:56 GMT 51.945827 -3.569223 33,750 286 491 1408
2019-08-25 13:33:53 GMT 51.944595 -3.562164 33,925 287 491 1344
2019-08-25 13:33:50 GMT 51.940426 -3.538539 33,800 286 490 1408
2019-08-25 13:33:44 GMT 51.937866 -3.524100 33,650 286 491 1408
2019-08-25 13:33:38 GMT 51.932327 -3.492711 33,550 286 491 1408
2019-08-25 13:33:35 GMT 51.932327 -3.492711 33,450 286 492 1408
2019-08-25 13:33:32 GMT 51.931000 -3.484879 33,425 286 492 1472
2019-08-25 13:33:29 GMT 51.928940 -3.473206 33,175 286 492 1472
2019-08-25 13:33:26 GMT 51.927292 -3.463669 32,825 287 494 1984
2019-08-25 13:33:23 GMT 51.925232 -3.451996 32,025 287 493 1728
2019-08-25 13:33:19 GMT 51.921387 -3.430023 33,050 287 493 1792
2019-08-25 13:33:16 GMT 51.921387 -3.430023 32,850 287 494 1984
2019-08-25 13:33:13 GMT 51.918827 -3.415885 32,925 287 494 1920
2019-08-25 13:33:10 GMT 51.917103 -3.406311 32,800 287 494 2048
2019-08-25 13:33:07 GMT 51.913147 -3.384260 32,500 287 498 2048
2019-08-25 13:33:04 GMT 51.913147 -3.384260 32,550 287 497 2048
2019-08-25 13:33:01 GMT 51.911041 -3.372879 32,500 287 498 2048
2019-08-25 13:32:58 GMT 51.909702 -3.365426 31,950 287 499 1536
2019-08-25 13:32:55 GMT 51.907654 -3.353969 32,275 287 499 1856
2019-08-25 13:32:52 GMT 51.905514 -3.342198 32,200 286 499 1408
2019-08-25 13:32:49 GMT 51.903931 -3.333252 32,075 286 499 1344
2019-08-25 13:32:46 GMT 51.902390 -3.324585 32,025 286 499 896
2019-08-25 13:32:43 GMT 51.898178 -3.300247 32,000 286 498 256
2019-08-25 13:32:40 GMT 51.898178 -3.300247 32,000 286 498 192
2019-08-25 13:32:37 GMT 51.896118 -3.287659 32,000 285 497 -64
2019-08-25 13:32:34 GMT 51.894711 -3.279027 32,000 284 497 -128
2019-08-25 13:32:31 GMT 51.893036 -3.267822 32,025 283 497 -64
2019-08-25 13:32:28 GMT 51.891361 -3.255844 32,000 282 496 704
2019-08-25 13:32:25 GMT 51.889870 -3.244629 32,025 282 497 64
2019-08-25 13:32:22 GMT 51.887695 -3.226788 32,000 281 496 256
2019-08-25 13:32:16 GMT 51.884583 -3.202143 31,950 282 496 704
2019-08-25 13:32:13 GMT 51.884583 -3.202143 31,875 284 495 1088
2019-08-25 13:32:10 GMT 51.882656 -3.189240 31,700 290 494 1088
2019-08-25 13:32:07 GMT 51.881447 -3.181686 31,800 286 495 1024
2019-08-25 13:32:04 GMT 51.877487 -3.160871 31,725 289 494 1088
2019-08-25 13:32:01 GMT 51.874786 -3.148771 31,650 291 494 1024
2019-08-25 13:31:58 GMT 51.874786 -3.148771 31,650 292 494 1024
2019-08-25 13:31:54 GMT 51.872368 -3.138428 31,550 293 493 960
2019-08-25 13:31:51 GMT 51.865631 -3.111432 31,475 293 493 896
2019-08-25 13:31:48 GMT 51.863895 -3.104630 31,450 293 492 960
2019-08-25 13:31:42 GMT 51.861427 -3.094788 31,325 293 486 1024
2019-08-25 13:31:39 GMT 51.858902 -3.084634 31,350 293 490 1024
2019-08-25 13:31:36 GMT 51.855980 -3.073120 31,325 293 490 1024
2019-08-25 13:31:33 GMT 51.854050 -3.065334 31,250 293 489 1024
2019-08-25 13:31:30 GMT 51.850800 -3.052492 31,200 293 489 960
2019-08-25 13:31:27 GMT 51.848145 -3.042025 31,125 293 487 896
2019-08-25 13:31:24 GMT 51.845692 -3.032227 31,100 293 486 960
2019-08-25 13:31:21 GMT 51.843876 -3.025208 31,025 293 486 1024
2019-08-25 13:31:18 GMT 51.841324 -3.015153 31,000 293 486 1024
2019-08-25 13:31:15 GMT 51.838348 -3.003425 30,950 293 485 1088
2019-08-25 13:31:12 GMT 51.833637 -2.985077 30,800 293 484 1344
2019-08-25 13:31:06 GMT 51.830704 -2.973732 30,725 293 483 1408
2019-08-25 13:31:03 GMT 51.827633 -2.961731 30,575 293 483 1408
2019-08-25 13:31:00 GMT 51.825489 -2.953415 30,600 293 483 1408
2019-08-25 13:30:57 GMT 51.822975 -2.943802 30,375 293 482 1024
2019-08-25 13:30:53 GMT 51.818924 -2.927780 30,450 293 483 1152
2019-08-25 13:30:49 GMT 51.816513 -2.918503 30,400 293 482 1088
2019-08-25 13:30:46 GMT 51.813805 -2.907867 30,350 293 481 1024
2019-08-25 13:30:42 GMT 51.807312 -2.882352 30,150 293 480 1088
2019-08-25 13:30:39 GMT 51.807312 -2.882352 30,150 293 480 1152
2019-08-25 13:30:35 GMT 51.803795 -2.868805 29,850 293 478 1152
2019-08-25 13:30:32 GMT 51.801701 -2.860565 30,075 293 478 1152
2019-08-25 13:30:28 GMT 51.798721 -2.849045 30,000 293 477 1280
2019-08-25 13:30:25 GMT 51.795502 -2.836551 29,925 293 477 1344
2019-08-25 13:30:22 GMT 51.793091 -2.827377 29,875 293 477 1344
2019-08-25 13:30:19 GMT 51.787502 -2.805710 29,775 293 476 1280
2019-08-25 13:30:15 GMT 51.787502 -2.805710 29,575 293 475 1152
2019-08-25 13:30:12 GMT 51.783733 -2.791367 29,650 293 476 1152
2019-08-25 13:30:09 GMT 51.782135 -2.785183 29,600 293 475 1152
2019-08-25 13:30:06 GMT 51.778702 -2.772118 29,525 293 475 1152
2019-08-25 13:30:03 GMT 51.776424 -2.763290 29,500 293 474 1152
2019-08-25 13:30:00 GMT 51.774124 -2.754525 29,450 293 474 1216
2019-08-25 13:29:57 GMT 51.769070 -2.735062 29,200 293 472 1408
2019-08-25 13:29:54 GMT 51.766846 -2.726614 29,225 293 472 1408
2019-08-25 13:29:48 GMT 51.763916 -2.715256 29,125 293 471 1472
2019-08-25 13:29:45 GMT 51.762177 -2.708501 29,050 293 470 1472
2019-08-25 13:29:42 GMT 51.759338 -2.697449 28,975 293 470 1472
2019-08-25 13:29:39 GMT 51.756866 -2.687716 28,925 293 470 1472
2019-08-25 13:29:36 GMT 51.754032 -2.676773 28,850 293 471 1472
2019-08-25 13:29:30 GMT 51.746632 -2.648392 28,725 293 469 1344
2019-08-25 13:29:27 GMT 51.746632 -2.648392 28,675 293 469 1344
2019-08-25 13:29:24 GMT 51.744690 -2.640950 28,600 293 469 1344
2019-08-25 13:29:21 GMT 51.741230 -2.627792 28,475 294 467 1344
2019-08-25 13:29:18 GMT 51.738876 -2.618903 27,900 293 464 1344
2019-08-25 13:29:15 GMT 51.736404 -2.609624 28,375 294 467 1344
2019-08-25 13:29:12 GMT 51.734024 -2.600642 28,325 294 466 1344
2019-08-25 13:29:09 GMT 51.732285 -2.593961 27,150 284 455 1536
2019-08-25 13:29:06 GMT 51.729172 -2.582158 28,225 293 464 1344
2019-08-25 13:29:03 GMT 51.725922 -2.569762 27,900 293 464 1344
2019-08-25 13:29:00 GMT 51.724548 -2.564343 28,000 292 463 1344
2019-08-25 13:28:57 GMT 51.721352 -2.551575 27,950 292 463 1344
2019-08-25 13:28:54 GMT 51.716278 -2.529678 27,850 290 461 1344
2019-08-25 13:28:50 GMT 51.716278 -2.529678 27,825 289 460 1408
2019-08-25 13:28:47 GMT 51.714752 -2.522550 27,775 288 460 1408
2019-08-25 13:28:44 GMT 51.712273 -2.509460 27,725 287 459 1408
2019-08-25 13:28:41 GMT 51.711205 -2.503204 27,625 285 459 1408
2019-08-25 13:28:38 GMT 51.708847 -2.488403 27,575 285 457 1472
2019-08-25 13:28:35 GMT 51.706512 -2.472221 27,425 284 456 1472
2019-08-25 13:28:29 GMT 51.703754 -2.453384 27,075 284 451 1728
2019-08-25 13:28:23 GMT 51.702080 -2.441864 27,125 284 454 1536
2019-08-25 13:28:20 GMT 51.700836 -2.433323 27,100 284 454 1536
2019-08-25 13:28:17 GMT 51.699146 -2.421494 26,700 284 453 1664
2019-08-25 13:28:14 GMT 51.697906 -2.412984 26,900 284 453 1664
2019-08-25 13:28:11 GMT 51.696445 -2.403107 26,825 284 453 1728
2019-08-25 13:28:08 GMT 51.695023 -2.393312 26,825 284 452 1728
2019-08-25 13:28:05 GMT 51.693699 -2.384109 26,700 284 451 1728
2019-08-25 13:28:01 GMT 51.691605 -2.369766 26,575 283 449 1856
2019-08-25 13:27:58 GMT 51.689930 -2.358322 26,475 283 449 1856
2019-08-25 13:27:55 GMT 51.687088 -2.338791 26,350 283 449 1600
2019-08-25 13:27:52 GMT 51.687088 -2.338791 26,300 283 449 1664
2019-08-25 13:27:49 GMT 51.686142 -2.331922 26,200 283 448 1856
2019-08-25 13:27:46 GMT 51.684769 -2.322495 26,125 283 449 1792
2019-08-25 13:27:43 GMT 51.682846 -2.308836 26,100 283 447 1856
2019-08-25 13:27:39 GMT 51.679825 -2.287086 25,875 283 447 1856
2019-08-25 13:27:36 GMT 51.679825 -2.287086 25,850 283 447 1856
2019-08-25 13:27:30 GMT 51.677673 -2.271869 22,850 284 426 1792
2019-08-25 13:27:27 GMT 51.676071 -2.260511 25,575 283 447 1856
2019-08-25 13:27:24 GMT 51.673264 -2.240829 25,400 283 445 1664
2019-08-25 13:27:21 GMT 51.671265 -2.226958 25,175 284 444 1664
2019-08-25 13:27:18 GMT 51.669865 -2.217331 25,225 284 443 1664
2019-08-25 13:27:15 GMT 51.668472 -2.207732 25,200 284 443 1664
2019-08-25 13:27:12 GMT 51.668472 -2.207732 25,100 284 443 1664
2019-08-25 13:27:09 GMT 51.667099 -2.198379 25,025 284 442 1728
2019-08-25 13:27:06 GMT 51.665955 -2.190704 24,975 284 442 1728
2019-08-25 13:27:03 GMT 51.664948 -2.184052 24,650 284 440 1856
2019-08-25 13:26:59 GMT 51.662384 -2.166831 24,550 284 440 1856
2019-08-25 13:26:56 GMT 51.660919 -2.156958 24,700 284 440 1856
2019-08-25 13:26:53 GMT 51.659912 -2.150277 24,200 284 439 1920
2019-08-25 13:26:50 GMT 51.658737 -2.142410 24,525 284 439 1920
2019-08-25 13:26:47 GMT 51.657211 -2.132238 24,200 284 433 1920
2019-08-25 13:26:43 GMT 51.655243 -2.118951 24,025 284 438 1856
2019-08-25 13:26:39 GMT 51.653412 -2.106628 24,125 284 437 1856
2019-08-25 13:26:36 GMT 51.651764 -2.095568 24,025 284 436 1856
2019-08-25 13:26:32 GMT 51.650127 -2.084885 23,900 284 434 1920
2019-08-25 13:26:29 GMT 51.648422 -2.073521 23,825 284 435 1856
2019-08-25 13:26:26 GMT 51.647194 -2.065430 23,375 284 429 1792
2019-08-25 13:26:23 GMT 51.645798 -2.056351 23,650 284 434 1920
2019-08-25 13:26:20 GMT 51.644073 -2.045090 23,575 284 433 1920
2019-08-25 13:26:17 GMT 51.641464 -2.027868 23,325 284 432 1984
2019-08-25 13:26:14 GMT 51.641464 -2.027868 23,325 284 432 1984
2019-08-25 13:26:11 GMT 51.639496 -2.015100 23,025 284 424 1920
2019-08-25 13:26:07 GMT 51.637711 -2.003594 23,075 284 430 1920
2019-08-25 13:26:04 GMT 51.636703 -1.996765 23,025 284 430 1856
2019-08-25 13:26:00 GMT 51.634781 -1.984368 22,825 284 428 1792
2019-08-25 13:25:57 GMT 51.632904 -1.972046 22,600 284 427 1792
2019-08-25 13:25:54 GMT 51.631786 -1.964645 22,725 284 427 1792
2019-08-25 13:25:51 GMT 51.630157 -1.953812 22,600 284 425 1856
2019-08-25 13:25:48 GMT 51.628922 -1.945842 22,525 284 425 1856
2019-08-25 13:25:44 GMT 51.627316 -1.935425 22,400 284 424 1920
2019-08-25 13:25:38 GMT 51.624012 -1.914062 22,200 284 422 1984
2019-08-25 13:25:34 GMT 51.622604 -1.904940 22,150 285 421 1984
2019-08-25 13:25:31 GMT 51.621220 -1.895828 22,025 285 421 1984
2019-08-25 13:25:28 GMT 51.619820 -1.887054 21,950 284 420 1920
2019-08-25 13:25:25 GMT 51.616608 -1.865894 21,700 284 417 1792
2019-08-25 13:25:22 GMT 51.616608 -1.865894 21,700 284 417 1792
2019-08-25 13:25:19 GMT 51.615726 -1.860199 21,575 285 413 2368
2019-08-25 13:25:16 GMT 51.613907 -1.848153 21,400 284 414 2048
2019-08-25 13:25:13 GMT 51.612946 -1.841843 21,275 284 414 2048
2019-08-25 13:25:10 GMT 51.611301 -1.831131 21,275 284 414 2176
2019-08-25 13:25:07 GMT 51.610184 -1.823654 21,175 284 414 2240
2019-08-25 13:25:03 GMT 51.608002 -1.809626 20,900 285 413 2368
2019-08-25 13:25:00 GMT 51.606461 -1.799545 19,875 285 412 2368
2019-08-25 13:24:57 GMT 51.605301 -1.792108 20,800 285 412 2368
2019-08-25 13:24:54 GMT 51.604275 -1.785583 20,675 284 409 2176
2019-08-25 13:24:51 GMT 51.602463 -1.773772 20,575 284 411 2240
2019-08-25 13:24:48 GMT 51.601135 -1.765161 20,475 284 411 2240
2019-08-25 13:24:45 GMT 51.599758 -1.756287 20,275 284 409 2176
2019-08-25 13:24:42 GMT 51.598343 -1.746826 20,200 284 408 2240
2019-08-25 13:24:39 GMT 51.597565 -1.741853 19,900 284 408 2176
2019-08-25 13:24:36 GMT 51.595917 -1.730941 20,100 284 408 2176
2019-08-25 13:24:33 GMT 51.593613 -1.715393 19,775 284 405 2240
2019-08-25 13:24:30 GMT 51.592163 -1.705405 19,675 284 404 2240
2019-08-25 13:24:27 GMT 51.592163 -1.705405 18,875 284 404 2240
2019-08-25 13:24:24 GMT 51.590836 -1.696348 19,525 284 404 2240
2019-08-25 13:24:21 GMT 51.589691 -1.688406 19,500 284 404 2240
2019-08-25 13:24:18 GMT 51.588306 -1.679153 19,225 284 401 2176
2019-08-25 13:24:15 GMT 51.586624 -1.668066 19,250 284 402 2176
2019-08-25 13:24:12 GMT 51.585297 -1.659084 19,125 284 401 2176
2019-08-25 13:24:08 GMT 51.583603 -1.647801 19,000 284 400 2240
2019-08-25 13:24:05 GMT 51.582348 -1.639786 18,925 284 399 2304
2019-08-25 13:24:02 GMT 51.581276 -1.632538 18,775 284 395 2304
2019-08-25 13:23:59 GMT 51.580021 -1.624222 18,700 284 398 2432
2019-08-25 13:23:56 GMT 51.578949 -1.617355 18,500 284 398 2432
2019-08-25 13:23:53 GMT 51.577503 -1.607590 18,350 284 397 2368
2019-08-25 13:23:50 GMT 51.575642 -1.595306 18,275 284 395 2240
2019-08-25 13:23:44 GMT 51.573257 -1.579062 18,075 284 393 2240
2019-08-25 13:23:40 GMT 51.571777 -1.569443 18,000 284 393 2240
2019-08-25 13:23:37 GMT 51.570896 -1.563492 17,825 284 392 2304
2019-08-25 13:23:34 GMT 51.569126 -1.551895 17,700 284 391 2432
2019-08-25 13:23:31 GMT 51.568008 -1.544342 17,350 284 388 2368
2019-08-25 13:23:28 GMT 51.566483 -1.534152 17,425 284 389 2368
2019-08-25 13:23:25 GMT 51.564377 -1.520462 17,125 284 388 2304
2019-08-25 13:23:22 GMT 51.563957 -1.517639 17,200 284 387 2176
2019-08-25 13:23:19 GMT 51.563072 -1.511765 17,125 284 387 2176
2019-08-25 13:23:16 GMT 51.560303 -1.493398 16,900 284 383 2176
2019-08-25 13:23:10 GMT 51.559021 -1.484787 16,825 284 383 2304
2019-08-25 13:23:07 GMT 51.557922 -1.477884 16,525 284 382 2304
2019-08-25 13:23:04 GMT 51.556274 -1.467120 16,575 285 378 2432
2019-08-25 13:23:01 GMT 51.555130 -1.459697 16,075 285 379 2368
2019-08-25 13:22:58 GMT 51.553764 -1.450958 16,300 285 380 2304
2019-08-25 13:22:55 GMT 51.552647 -1.443863 16,100 285 378 2496
2019-08-25 13:22:51 GMT 51.550785 -1.431885 16,050 285 378 2496
2019-08-25 13:22:48 GMT 51.548409 -1.416931 15,450 285 375 2560
2019-08-25 13:22:45 GMT 51.546707 -1.406398 15,575 285 376 2624
2019-08-25 13:22:39 GMT 51.545803 -1.400757 15,450 285 375 2560
2019-08-25 13:22:32 GMT 51.542965 -1.382904 15,175 285 374 2624
2019-08-25 13:22:29 GMT 51.541260 -1.372178 15,100 284 373 2880
2019-08-25 13:22:26 GMT 51.540207 -1.365497 15,000 284 373 2816
2019-08-25 13:22:23 GMT 51.539379 -1.360092 14,850 284 372 3008
2019-08-25 13:22:20 GMT 51.537872 -1.349908 14,750 284 372 3136
2019-08-25 13:22:17 GMT 51.535191 -1.331940 14,425 284 373 2880
2019-08-25 13:22:14 GMT 51.535191 -1.331940 14,300 284 373 2560
2019-08-25 13:22:11 GMT 51.534210 -1.325226 14,125 284 371 2688
2019-08-25 13:22:07 GMT 51.532814 -1.315842 14,075 284 370 2816
2019-08-25 13:22:04 GMT 51.531605 -1.307526 13,975 284 370 2880
2019-08-25 13:22:01 GMT 51.530628 -1.300812 13,725 284 370 2880
2019-08-25 13:21:58 GMT 51.529278 -1.291504 13,700 284 370 2880
2019-08-25 13:21:55 GMT 51.526566 -1.272558 13,300 283 369 2752
2019-08-25 13:21:52 GMT 51.526566 -1.272558 13,300 283 368 2752
2019-08-25 13:21:49 GMT 51.524414 -1.257638 13,175 283 368 2752
2019-08-25 13:21:46 GMT 51.524414 -1.257638 13,050 283 367 2816
2019-08-25 13:21:43 GMT 51.523407 -1.250437 12,875 283 365 2752
2019-08-25 13:21:40 GMT 51.522079 -1.241232 12,750 283 366 2816
2019-08-25 13:21:37 GMT 51.521362 -1.236191 12,550 284 365 2688
2019-08-25 13:21:33 GMT 51.519455 -1.222992 12,450 284 365 2688
2019-08-25 13:21:30 GMT 51.517639 -1.210632 12,275 284 363 2624
2019-08-25 13:21:22 GMT 51.515404 -1.195450 11,700 284 360 2432
2019-08-25 13:21:19 GMT 51.512741 -1.178284 11,375 285 358 2176
2019-08-25 13:21:16 GMT 51.512741 -1.178284 11,700 285 360 2304
2019-08-25 13:21:10 GMT 51.510361 -1.163363 11,375 287 354 1536
2019-08-25 13:21:07 GMT 51.509262 -1.156979 11,450 286 356 1728
2019-08-25 13:21:02 GMT 51.506981 -1.144409 11,325 287 352 1408
2019-08-25 13:20:59 GMT 51.503494 -1.127954 11,075 291 346 1216
2019-08-25 13:20:53 GMT 51.499649 -1.112885 11,075 295 340 1216
2019-08-25 13:20:49 GMT 51.499649 -1.112885 11,025 295 340 1216
2019-08-25 13:20:46 GMT 51.497154 -1.103973 10,875 295 330 1152
2019-08-25 13:20:43 GMT 51.495667 -1.098709 10,875 295 330 1152
2019-08-25 13:20:40 GMT 51.493992 -1.092834 10,900 295 332 1216
2019-08-25 13:20:37 GMT 51.492462 -1.087498 10,825 295 330 1152
2019-08-25 13:20:34 GMT 51.489578 -1.077625 10,725 295 325 1152
2019-08-25 13:20:31 GMT 51.488159 -1.072577 10,675 295 323 1152
2019-08-25 13:20:28 GMT 51.486557 -1.067158 9,600 295 299 1152
2019-08-25 13:20:25 GMT 51.484634 -1.060552 10,450 295 306 896
2019-08-25 13:20:22 GMT 51.481049 -1.048279 10,525 296 312 960
2019-08-25 13:20:16 GMT 51.479328 -1.042252 10,275 295 305 896
2019-08-25 13:20:13 GMT 51.475044 -1.027603 10,350 295 299 1024
2019-08-25 13:20:10 GMT 51.475044 -1.027603 10,300 295 298 1344
2019-08-25 13:20:06 GMT 51.473137 -1.020737 10,250 295 296 1728
2019-08-25 13:20:03 GMT 51.470993 -1.012955 9,875 294 294 2304
2019-08-25 13:20:00 GMT 51.469666 -1.007921 9,925 292 293 2240
2019-08-25 13:19:57 GMT 51.468246 -1.002057 9,900 290 292 2176
2019-08-25 13:19:54 GMT 51.467037 -0.996780 9,725 288 291 2176
2019-08-25 13:19:51 GMT 51.466003 -0.991368 9,575 281 287 2368
2019-08-25 13:19:48 GMT 51.463989 -0.977635 9,525 283 288 2304
2019-08-25 13:19:42 GMT 51.462570 -0.965535 9,300 281 286 2368
2019-08-25 13:19:39 GMT 51.462570 -0.965535 9,225 281 286 2368
2019-08-25 13:19:36 GMT 51.461868 -0.959320 8,125 281 285 2368
2019-08-25 13:19:33 GMT 51.461079 -0.952454 8,925 281 285 2304
2019-08-25 13:19:30 GMT 51.460464 -0.946977 8,900 281 285 2304
2019-08-25 13:19:27 GMT 51.459778 -0.940593 8,800 280 285 2240
2019-08-25 13:19:24 GMT 51.459030 -0.933914 7,625 273 281 3072
2019-08-25 13:19:21 GMT 51.458221 -0.926489 8,550 280 283 2176
2019-08-25 13:19:18 GMT 51.457764 -0.922555 8,450 281 282 2112
2019-08-25 13:19:15 GMT 51.456936 -0.914764 8,350 281 281 2112
2019-08-25 13:19:12 GMT 51.455566 -0.901473 8,100 279 279 2496
2019-08-25 13:19:08 GMT 51.455566 -0.901473 7,750 278 278 2752
2019-08-25 13:19:04 GMT 51.454422 -0.886552 7,800 276 278 3072
2019-08-25 13:19:01 GMT 51.454422 -0.886552 7,625 275 279 3136
2019-08-25 13:18:58 GMT 51.453918 -0.874527 7,450 272 282 2944
2019-08-25 13:18:55 GMT 51.453918 -0.874527 7,375 273 281 3136
2019-08-25 13:18:52 GMT 51.453770 -0.868301 7,225 271 282 2944
2019-08-25 13:18:49 GMT 51.453724 -0.859756 7,100 270 282 2816
2019-08-25 13:18:46 GMT 51.453770 -0.854187 6,925 269 282 2560
2019-08-25 13:18:42 GMT 51.453911 -0.846481 6,725 269 281 2496
2019-08-25 13:18:36 GMT 51.454102 -0.832140 6,475 269 278 2624
2019-08-25 13:18:33 GMT 51.454147 -0.827760 6,425 269 279 2432
2019-08-25 13:18:30 GMT 51.454239 -0.823232 6,275 269 279 2432
2019-08-25 13:18:27 GMT 51.454330 -0.817220 6,225 269 278 2624
2019-08-25 13:18:24 GMT 51.454468 -0.806530 5,950 269 278 2624
2019-08-25 13:18:18 GMT 51.454559 -0.798365 5,800 269 277 2624
2019-08-25 13:18:14 GMT 51.454651 -0.789531 5,525 270 276 2688
2019-08-25 13:18:11 GMT 51.454700 -0.784607 5,400 270 277 2752
2019-08-25 13:18:08 GMT 51.454742 -0.777208 5,375 270 276 2688
2019-08-25 13:18:05 GMT 51.454746 -0.771942 5,275 270 277 2880
2019-08-25 13:18:01 GMT 51.454742 -0.760284 4,975 271 277 2432
2019-08-25 13:17:57 GMT 51.454742 -0.755978 4,900 270 274 1600
2019-08-25 13:17:54 GMT 51.454700 -0.747757 4,725 271 272 1088
2019-08-25 13:17:50 GMT 51.454697 -0.738905 4,725 271 272 1088
2019-08-25 13:17:47 GMT 51.454655 -0.734940 4,650 272 262 704
2019-08-25 13:17:44 GMT 51.454605 -0.729403 4,650 272 262 704
2019-08-25 13:17:41 GMT 51.454514 -0.723648 4,600 273 248 1600
2019-08-25 13:17:38 GMT 51.454189 -0.710754 4,500 273 251 1408
2019-08-25 13:17:32 GMT 51.453861 -0.698318 4,325 273 247 1664
2019-08-25 13:17:28 GMT 51.453861 -0.698318 4,250 272 243 1088
2019-08-25 13:17:25 GMT 51.453770 -0.693741 4,200 271 242 1024
2019-08-25 13:17:22 GMT 51.453735 -0.686571 4,200 269 237 1152
2019-08-25 13:17:18 GMT 51.453827 -0.681449 3,950 265 232 1344
2019-08-25 13:17:14 GMT 51.454235 -0.673370 3,975 260 228 1344
2019-08-25 13:17:10 GMT 51.454834 -0.667716 3,875 257 225 1152
2019-08-25 13:17:06 GMT 51.455631 -0.662155 3,825 256 210 960
2019-08-25 13:17:03 GMT 51.456436 -0.657398 3,450 264 200 768
2019-08-25 13:16:59 GMT 51.457764 -0.649975 3,725 255 215 1472
2019-08-25 13:16:56 GMT 51.458725 -0.644259 3,600 256 212 1408
2019-08-25 13:16:53 GMT 51.459309 -0.640640 3,550 256 210 960
2019-08-25 13:16:50 GMT 51.460102 -0.635605 3,525 256 210 896
2019-08-25 13:16:47 GMT 51.460613 -0.631866 3,475 260 205 640
2019-08-25 13:16:44 GMT 51.461151 -0.627408 3,300 262 203 576
2019-08-25 13:16:41 GMT 51.461636 -0.622025 3,400 265 199 960
2019-08-25 13:16:38 GMT 51.461838 -0.618204 3,325 267 196 1152
2019-08-25 13:16:33 GMT 51.462158 -0.609741 3,225 268 195 1472
2019-08-25 13:16:29 GMT 51.462204 -0.605807 3,150 269 193 1600
2019-08-25 13:16:26 GMT 51.462288 -0.600967 3,025 270 191 1856
2019-08-25 13:16:22 GMT 51.462387 -0.591183 2,900 268 192 2240
2019-08-25 13:16:19 GMT 51.462387 -0.591183 2,850 269 191 2048
2019-08-25 13:16:15 GMT 51.462479 -0.585542 2,750 268 191 2240
2019-08-25 13:16:12 GMT 51.462566 -0.581284 2,575 268 192 2240
2019-08-25 13:16:09 GMT 51.462708 -0.577079 2,500 268 192 2240
2019-08-25 13:16:06 GMT 51.462803 -0.572815 2,400 268 193 2240
2019-08-25 13:16:03 GMT 51.462891 -0.569359 2,275 268 194 2112
2019-08-25 13:16:00 GMT 51.463081 -0.564194 2,175 268 193 640
2019-08-25 13:15:57 GMT 51.463173 -0.560837 2,050 268 196 1088
2019-08-25 13:15:54 GMT 51.463360 -0.554962 2,000 268 194 704
2019-08-25 13:15:50 GMT 51.463440 -0.551246 1,975 268 190 576
2019-08-25 13:15:46 GMT 51.463669 -0.543972 1,925 268 184 896
2019-08-25 13:15:43 GMT 51.463760 -0.540260 1,875 268 182 1664
2019-08-25 13:15:40 GMT 51.463852 -0.536103 1,775 268 182 1984
2019-08-25 13:15:37 GMT 51.463989 -0.532169 1,650 268 184 2496
2019-08-25 13:15:33 GMT 51.464291 -0.521698 1,400 268 185 2496
2019-08-25 13:15:29 GMT 51.464291 -0.521698 1,325 268 185 2496
2019-08-25 13:15:26 GMT 51.464382 -0.518265 1,225 268 185 2176
2019-08-25 13:15:22 GMT 51.464569 -0.510941 1,025 268 183 2176
2019-08-25 13:15:19 GMT 51.464630 -0.508489 875 269 183 2240
2019-08-25 13:15:16 GMT 51.464710 -0.503616 825 269 182 2240
2019-08-25 13:15:13 GMT 51.464756 -0.499420 700 269 181 2048
2019-08-25 13:15:05 GMT 51.464848 -0.489655 450 271 178 2368
2019-08-25 13:15:02 GMT 51.464802 -0.485001 275 271 180 2624
2019-08-25 13:14:58 GMT 51.464802 -0.479813 100 270 183 2560
2019-08-25 13:14:54 GMT 51.464848 -0.474777 25 270 185 1792
2019-08-25 13:14:51 GMT 51.464848 -0.470810 0 270 177 192
2019-08-25 13:14:29 GMT 51.464893 -0.447235 0 270 105 64
2019-08-25 13:13:42 GMT 51.464973 -0.436243 0 208 11
2019-08-25 13:12:46 GMT 51.466198 -0.436077 0 171 0
2019-08-25 13:12:13 GMT 51.466438 -0.436076 0 146 5
2019-08-25 13:12:08 GMT 51.466537 -0.436115 0 132 5
2019-08-25 13:11:46 GMT 51.466690 -0.436799 0 90 5
2019-08-25 13:11:37 GMT 51.466690 -0.437115 0 90 6
2019-08-25 13:11:27 GMT 51.466686 -0.437489 0 90 6
2019-08-25 13:11:16 GMT 51.466686 -0.437851 0 90 4
2019-08-25 13:09:56 GMT 51.466675 -0.438137 0 90 0
2019-08-25 13:09:47 GMT 51.466679 -0.438154 0 90 1
2019-08-25 13:09:39 GMT 51.466675 -0.438251 0 90 2
2019-08-25 13:09:27 GMT 51.466679 -0.438470 0 90 3
2019-08-25 13:09:20 GMT 51.466679 -0.438618 0 90 4
2019-08-25 13:09:16 GMT 51.466675 -0.438709 0 90 4
2019-08-25 13:09:08 GMT 51.466679 -0.438952 0 90 4
2019-08-25 13:09:01 GMT 51.466675 -0.439167 0 90 3
2019-08-25 13:08:55 GMT 51.466675 -0.439262 0 90 2
2019-08-25 13:08:45 GMT 51.466679 -0.439360 0 90 0
2019-08-25 13:08:34 GMT 51.466679 -0.439379 0 90 0
2019-08-25 13:08:23 GMT 51.466679 -0.439546 0 90 4
2019-08-25 13:08:13 GMT 51.466679 -0.439806 0 90 5
2019-08-25 13:07:57 GMT 51.466675 -0.440178 0 90 2
2019-08-25 13:07:54 GMT 51.466675 -0.440216 0 90 1
2019-08-25 13:07:51 GMT 51.466679 -0.440251 0 90 0
2019-08-25 13:07:44 GMT 51.466675 -0.440254 0 90 0
2019-08-25 13:07:40 GMT 51.466679 -0.440251 0 90 0
2019-08-25 13:07:36 GMT 51.466675 -0.440254 0 90 0
2019-08-25 13:07:29 GMT 51.466679 -0.440270 0 90 0
2019-08-25 13:07:23 GMT 51.466675 -0.440292 0 90 1
2019-08-25 13:07:18 GMT 51.466675 -0.440331 0 90 2
2019-08-25 13:07:15 GMT 51.466675 -0.440369 0 90 1
2019-08-25 13:07:06 GMT 51.466679 -0.440474 0 90 3
2019-08-25 13:06:58 GMT 51.466675 -0.440617 0 90 3
2019-08-25 13:06:50 GMT 51.466675 -0.440750 0 90 3
2019-08-25 13:06:45 GMT 51.466675 -0.440884 0 90 4
2019-08-25 13:06:35 GMT 51.466679 -0.441216 0 90 5
2019-08-25 13:06:21 GMT 51.466663 -0.441742 0 90 7
2019-08-25 13:06:14 GMT 51.466667 -0.442070 0 90 7
2019-08-25 13:06:11 GMT 51.466663 -0.442219 0 90 7
2019-08-25 13:06:02 GMT 51.466656 -0.442682 0 90 8
2019-08-25 13:05:51 GMT 51.466663 -0.443268 0 90 7
2019-08-25 13:05:41 GMT 51.466656 -0.443721 0 90 5
2019-08-25 13:05:35 GMT 51.466652 -0.443897 0 90 4
2019-08-25 13:05:31 GMT 51.466652 -0.443993 0 90 3
2019-08-25 13:05:10 GMT 51.466656 -0.444204 0 90 0
2019-08-25 13:04:55 GMT 51.466652 -0.444221 0 90 0
2019-08-25 13:04:48 GMT 51.466656 -0.444223 0 90 0
2019-08-25 13:04:38 GMT 51.466652 -0.444221 0 90 0
2019-08-25 13:04:25 GMT 51.466652 -0.444260 0 90 2
2019-08-25 13:04:19 GMT 51.466656 -0.444371 0 90 4
2019-08-25 13:04:16 GMT 51.466652 -0.444431 0 90 4
2019-08-25 13:04:11 GMT 51.466652 -0.444603 0 90 6
2019-08-25 13:04:06 GMT 51.466656 -0.444779 0 90 5
2019-08-25 13:03:41 GMT 51.466652 -0.445156 0 90 0
2019-08-25 13:03:16 GMT 51.466656 -0.445150 0 90 0
2019-08-25 13:03:10 GMT 51.466656 -0.445206 0 90 3
2019-08-25 13:03:07 GMT 51.466656 -0.445280 0 90 4
2019-08-25 13:03:00 GMT 51.466656 -0.445447 0 90 4
2019-08-25 13:02:52 GMT 51.466656 -0.445651 0 90 4
2019-08-25 13:02:49 GMT 51.466652 -0.445728 0 90 4
2019-08-25 13:02:35 GMT 51.466656 -0.446208 0 90 5
2019-08-25 13:02:30 GMT 51.466652 -0.446415 0 90 5
2019-08-25 13:02:13 GMT 51.466644 -0.447099 0 90 8
2019-08-25 13:02:10 GMT 51.466644 -0.447266 0 90 8
2019-08-25 12:59:21 GMT 51.466640 -0.449352 0 90 0
2019-08-25 12:59:12 GMT 51.466644 -0.449456 0 90 4
2019-08-25 12:59:05 GMT 51.466644 -0.449660 0 90 6
2019-08-25 12:58:33 GMT 51.466629 -0.450974 0 90 8
2019-08-25 12:58:23 GMT 51.466633 -0.451609 0 90 10
2019-08-25 12:58:10 GMT 51.466629 -0.452614 0 90 12
2019-08-25 12:58:04 GMT 51.466621 -0.453093 0 90 12
2019-08-25 12:57:53 GMT 51.466621 -0.454021 0 90 13
2019-08-25 12:57:42 GMT 51.466618 -0.455151 0 90 14
2019-08-25 12:57:31 GMT 51.466610 -0.456248 0 90 14
2019-08-25 12:57:23 GMT 51.466610 -0.457065 0 90 14
2019-08-25 12:57:11 GMT 51.466610 -0.458252 0 90 13
2019-08-25 12:57:03 GMT 51.466610 -0.459106 0 90 14
2019-08-25 12:56:50 GMT 51.466606 -0.460358 0 90 15
2019-08-25 12:56:34 GMT 51.466595 -0.462093 0 90 16
2019-08-25 12:56:30 GMT 51.466595 -0.462513 0 90 16
2019-08-25 12:56:20 GMT 51.466583 -0.463734 0 90 16
We lost coverage of the aircraft here for a total of 114 minutes
2019-08-25 11:02:12 GMT 51.469189 -0.470142 0 270 0 0
2019-08-25 11:02:02 GMT 51.469185 -0.470129 0 270 0 0
2019-08-25 11:01:47 GMT 51.469189 -0.470047 0 267 1 0
2019-08-25 11:01:37 GMT 51.469189 -0.469952 0 267 2 0
2019-08-25 11:01:07 GMT 51.469212 -0.468998 0 236 7 0
2019-08-25 11:00:13 GMT 51.471333 -0.468636 0 180 12 0
2019-08-25 10:59:54 GMT 51.472450 -0.468655 0 180 15 0
2019-08-25 10:59:51 GMT 51.472630 -0.468663 0 180 15 0
2019-08-25 10:59:39 GMT 51.473450 -0.468674 0 174 15 0
2019-08-25 10:59:27 GMT 51.474205 -0.468845 0 165 13 0
2019-08-25 10:59:19 GMT 51.474667 -0.468997 0 137 13 0
2019-08-25 10:59:01 GMT 51.474930 -0.470334 0 90 8 0
2019-08-25 10:58:55 GMT 51.474930 -0.470593 0 90 6 0
2019-08-25 10:58:32 GMT 51.474930 -0.470890 0 90 2 0
2019-08-25 10:58:16 GMT 51.474918 -0.471113 0 90 2 0
2019-08-25 10:58:12 GMT 51.474915 -0.471172 0 90 2 0
2019-08-25 10:58:03 GMT 51.474918 -0.471354 0 90 5 0
2019-08-25 10:57:51 GMT 51.474918 -0.471818 0 90 6 0
2019-08-25 10:57:40 GMT 51.474918 -0.472338 0 90 8 0
2019-08-25 10:57:30 GMT 51.474895 -0.472987 0 112 12 0
2019-08-25 10:57:20 GMT 51.475159 -0.473563 0 177 10 0
2019-08-25 10:57:09 GMT 51.475613 -0.473576 0 132 11 0
2019-08-25 10:56:58 GMT 51.475822 -0.474377 0 90 13 0
2019-08-25 10:56:46 GMT 51.475800 -0.475616 0 90 15 0
2019-08-25 10:56:35 GMT 51.475800 -0.476699 0 90 14 0
2019-08-25 10:56:21 GMT 51.475800 -0.478134 0 90 13 0
2019-08-25 10:56:13 GMT 51.475800 -0.478796 0 90 11 0
2019-08-25 10:56:02 GMT 51.475788 -0.479557 0 90 7 0
2019-08-25 10:55:39 GMT 51.475788 -0.480099 0 90 0 0
2019-08-25 10:55:28 GMT 51.475788 -0.480095 0 90 0 0
2019-08-25 10:55:09 GMT 51.475788 -0.480099 0 90 0 0
2019-08-25 10:54:54 GMT 51.475788 -0.480095 0 90 0 0
We lost coverage of the aircraft here for a total of 6 minutes
2019-08-25 10:48:40 GMT 51.477676 -0.424978 0 90 0 0
2019-08-25 10:48:40 GMT 51.477676 -0.424978 0 90 0 0
2019-08-25 10:48:40 GMT 51.477676 -0.424978 0 90 0 0
2019-08-25 10:48:40 GMT 51.477676 -0.424978 0 90 0 0
2019-08-25 10:48:40 GMT 51.477676 -0.424978 0 90 0 0
2019-08-25 10:48:48 GMT 51.477650 -0.435333 -50 270 166 -832
2019-08-25 10:48:44 GMT 51.477676 -0.429283 50 270 164 -768
2019-08-25 10:48:40 GMT 51.477695 -0.418625 400 270 163 -960
2019-08-25 10:48:36 GMT 51.477722 -0.416812 175 270 164 -768
2019-08-25 10:48:30 GMT 51.477745 -0.412674 200 270 165 -832
2019-08-25 10:48:27 GMT 51.477768 -0.409018 400 270 163 -960
2019-08-25 10:48:23 GMT 51.477791 -0.404663 350 271 163 -768
2019-08-25 10:48:20 GMT 51.477791 -0.400620 375 270 163 -832
2019-08-25 10:48:17 GMT 51.477768 -0.397364 375 270 163 -768
2019-08-25 10:48:10 GMT 51.477768 -0.389421 600 270 164 -832
2019-08-25 10:48:07 GMT 51.477791 -0.385818 525 271 164 -768
2019-08-25 10:48:03 GMT 51.477768 -0.380736 575 270 165 -832
2019-08-25 10:48:00 GMT 51.477814 -0.376950 625 270 165 -832
2019-08-25 10:47:55 GMT 51.477859 -0.371086 700 269 164 -768
2019-08-25 10:47:52 GMT 51.477882 -0.365982 750 270 165 -832
2019-08-25 10:47:47 GMT 51.477951 -0.355571 850 270 165 -896
2019-08-25 10:47:43 GMT 51.477951 -0.355571 850 270 165 -896
2019-08-25 10:47:40 GMT 51.477978 -0.351868 900 270 165 -896
2019-08-25 10:47:37 GMT 51.477978 -0.347137 1,300 270 168 -896
2019-08-25 10:47:34 GMT 51.477951 -0.343917 1,000 270 166 -896
2019-08-25 10:47:28 GMT 51.477978 -0.338058 1,075 270 165 -896
2019-08-25 10:47:25 GMT 51.477978 -0.333023 1,125 270 166 -1024
2019-08-25 10:47:22 GMT 51.477997 -0.330852 1,175 270 166 -1024
2019-08-25 10:47:18 GMT 51.478024 -0.325317 1,250 270 168 -896
2019-08-25 10:47:15 GMT 51.477997 -0.321721 1,600 270 179 -768
2019-08-25 10:47:10 GMT 51.478043 -0.314743 1,375 270 167 -768
2019-08-25 10:47:07 GMT 51.478043 -0.312145 1,400 270 166 -768
2019-08-25 10:47:04 GMT 51.478069 -0.308685 1,450 270 169 -832
2019-08-25 10:47:01 GMT 51.478043 -0.304203 1,500 270 170 -832
2019-08-25 10:46:58 GMT 51.478069 -0.299911 1,525 270 175 -896
2019-08-25 10:46:55 GMT 51.478088 -0.295443 2,400 270 179 -768
2019-08-25 10:46:52 GMT 51.478088 -0.292697 1,625 270 179 -832
2019-08-25 10:46:49 GMT 51.478088 -0.288614 1,675 270 181 -896
2019-08-25 10:46:46 GMT 51.478115 -0.284576 1,700 270 186 -960
2019-08-25 10:46:43 GMT 51.478088 -0.281042 2,125 270 203 -1024
2019-08-25 10:46:40 GMT 51.478134 -0.276291 1,800 270 186 -960
2019-08-25 10:46:36 GMT 51.478134 -0.271689 1,850 270 189 -960
2019-08-25 10:46:33 GMT 51.478115 -0.266647 1,900 270 192 -896
2019-08-25 10:46:30 GMT 51.478115 -0.262070 1,975 270 197 -896
2019-08-25 10:46:27 GMT 51.478165 -0.258636 2,000 270 195 -896
2019-08-25 10:46:24 GMT 51.478134 -0.254541 2,150 270 199 -960
2019-08-25 10:46:21 GMT 51.478165 -0.249252 2,075 270 203 -1024
2019-08-25 10:46:18 GMT 51.478165 -0.244446 2,150 270 205 -1088
2019-08-25 10:46:15 GMT 51.478180 -0.238359 2,500 270 209 -1152
2019-08-25 10:46:11 GMT 51.478180 -0.232346 2,275 270 211 -1152
2019-08-25 10:46:08 GMT 51.478180 -0.229006 2,350 270 216 -1216
2019-08-25 10:46:05 GMT 51.478226 -0.223438 2,375 270 217 -1216
2019-08-25 10:46:02 GMT 51.478226 -0.219430 2,425 270 219 -1216
2019-08-25 10:45:59 GMT 51.478210 -0.214539 3,075 270 227 -1152
2019-08-25 10:45:56 GMT 51.478256 -0.208817 2,700 270 223 -1216
2019-08-25 10:45:53 GMT 51.478226 -0.203915 2,650 270 223 -1216
2019-08-25 10:45:50 GMT 51.478226 -0.195082 2,775 270 226 -1216
2019-08-25 10:45:47 GMT 51.478226 -0.195082 2,750 270 227 -1216
2019-08-25 10:45:44 GMT 51.478226 -0.189737 2,800 270 228 -1216
2019-08-25 10:45:40 GMT 51.478256 -0.181274 2,925 270 228 -1216
2019-08-25 10:45:37 GMT 51.478256 -0.177078 2,950 270 228 -1216
2019-08-25 10:45:34 GMT 51.478226 -0.172664 2,975 270 226 -320
2019-08-25 10:45:31 GMT 51.478256 -0.167618 3,100 270 227 -1152
2019-08-25 10:45:28 GMT 51.478256 -0.162048 3,350 270 226 -192
2019-08-25 10:45:24 GMT 51.478256 -0.155182 3,175 270 226 -448
2019-08-25 10:45:21 GMT 51.478256 -0.149307 3,200 270 226 -192
2019-08-25 10:45:18 GMT 51.478271 -0.146831 3,200 270 227 -192
2019-08-25 10:45:15 GMT 51.478302 -0.139313 3,225 270 227 -192
2019-08-25 10:45:12 GMT 51.478271 -0.135919 3,225 270 227 -192
2019-08-25 10:45:09 GMT 51.478271 -0.131242 3,225 270 227 -192
2019-08-25 10:45:06 GMT 51.478271 -0.124858 3,250 271 227 -192
2019-08-25 10:45:02 GMT 51.478271 -0.118623 3,250 271 227 -192
2019-08-25 10:44:59 GMT 51.478256 -0.113602 3,275 271 227 -256
2019-08-25 10:44:56 GMT 51.478226 -0.107859 3,300 271 229 -192
2019-08-25 10:44:53 GMT 51.478210 -0.103455 3,375 270 229 -192
2019-08-25 10:44:50 GMT 51.478226 -0.098283 3,300 270 233 -256
2019-08-25 10:44:47 GMT 51.478256 -0.093079 3,300 270 236 -256
2019-08-25 10:44:44 GMT 51.478271 -0.088559 3,325 270 240 -384
2019-08-25 10:44:41 GMT 51.478271 -0.081952 3,350 270 241 -448
2019-08-25 10:44:38 GMT 51.478271 -0.078240 3,375 271 243 -512
2019-08-25 10:44:35 GMT 51.478256 -0.071411 3,375 271 245 -512
2019-08-25 10:44:32 GMT 51.478134 -0.062800 3,450 272 247 -448
2019-08-25 10:44:26 GMT 51.478024 -0.055847 3,475 272 247 -448
2019-08-25 10:44:22 GMT 51.477905 -0.048919 3,475 272 247 -448
2019-08-25 10:44:19 GMT 51.477814 -0.042386 3,525 270 247 -448
2019-08-25 10:44:16 GMT 51.477837 -0.036469 3,550 271 247 -512
2019-08-25 10:44:13 GMT 51.477814 -0.031771 3,550 270 247 -512
2019-08-25 10:44:10 GMT 51.477837 -0.026245 3,575 271 248 -576
2019-08-25 10:44:07 GMT 51.477745 -0.021667 3,700 273 248 -576
2019-08-25 10:44:04 GMT 51.477558 -0.016403 3,650 275 247 -576
2019-08-25 10:44:01 GMT 51.477139 -0.009995 3,725 284 248 -704
2019-08-25 10:43:58 GMT 51.476673 -0.005417 3,700 282 248 -704
2019-08-25 10:43:55 GMT 51.475929 0.000153 3,750 286 248 -704
2019-08-25 10:43:51 GMT 51.474251 0.009308 3,825 288 249 -768
2019-08-25 10:43:48 GMT 51.473145 0.014549 3,850 292 249 -960
2019-08-25 10:43:45 GMT 51.472343 0.018005 3,875 296 248 -1024
2019-08-25 10:43:41 GMT 51.468990 0.029297 4,000 299 246 -1024
2019-08-25 10:43:38 GMT 51.466896 0.035553 4,025 299 246 -1088
2019-08-25 10:43:35 GMT 51.466896 0.035553 4,075 299 246 -1152
2019-08-25 10:43:32 GMT 51.465591 0.039417 4,175 300 246 -1344
2019-08-25 10:43:29 GMT 51.463760 0.044688 4,200 300 246 -1344
2019-08-25 10:43:26 GMT 51.462521 0.048141 4,250 301 246 -1216
2019-08-25 10:43:23 GMT 51.460510 0.053373 4,300 304 246 -1088
2019-08-25 10:43:20 GMT 51.458633 0.057752 4,375 312 247 -1152
2019-08-25 10:43:16 GMT 51.455246 0.064211 4,525 326 249 -1024
2019-08-25 10:43:13 GMT 51.452187 0.068665 4,500 324 249 -1088
2019-08-25 10:43:10 GMT 51.450439 0.070743 4,750 347 253 -960
2019-08-25 10:43:07 GMT 51.447113 0.074005 4,600 333 250 -960
2019-08-25 10:43:04 GMT 51.443947 0.076447 4,625 337 251 -960
2019-08-25 10:43:00 GMT 51.439430 0.078888 4,725 357 254 -832
2019-08-25 10:42:57 GMT 51.435661 0.080185 4,775 353 253 -960
2019-08-25 10:42:54 GMT 51.428444 0.081329 4,825 356 253 -896
2019-08-25 10:42:51 GMT 51.428444 0.081329 4,875 358 255 -832
2019-08-25 10:42:48 GMT 51.424896 0.081507 4,925 359 255 -1088
2019-08-25 10:42:45 GMT 51.422672 0.081558 4,950 359 255 -1216
2019-08-25 10:42:42 GMT 51.419815 0.081729 5,000 359 255 -1280
2019-08-25 10:42:39 GMT 51.414246 0.081863 5,050 359 256 -1280
2019-08-25 10:42:36 GMT 51.411777 0.081940 5,125 359 259 -1088
2019-08-25 10:42:33 GMT 51.407589 0.082092 5,175 359 260 -1024
2019-08-25 10:42:29 GMT 51.404053 0.082169 5,225 0 264 -832
2019-08-25 10:42:26 GMT 51.398792 0.082321 5,325 359 271 -832
2019-08-25 10:42:23 GMT 51.396286 0.082397 5,325 359 271 -832
2019-08-25 10:42:20 GMT 51.390793 0.082546 5,400 359 274 -960
2019-08-25 10:42:17 GMT 51.386223 0.082626 5,475 359 276 -1088
2019-08-25 10:42:14 GMT 51.385071 0.082694 5,500 359 278 -1344
2019-08-25 10:42:11 GMT 51.381195 0.082779 5,550 359 279 -1600
2019-08-25 10:42:08 GMT 51.376678 0.083008 5,600 359 280 -1792
2019-08-25 10:42:05 GMT 51.372803 0.083140 5,850 359 281 -1984
2019-08-25 10:42:02 GMT 51.368500 0.083288 5,875 359 281 -1984
2019-08-25 10:41:58 GMT 51.359802 0.083659 6,100 359 282 -2048
2019-08-25 10:41:52 GMT 51.356663 0.083847 6,200 326 288 0
2019-08-25 10:41:49 GMT 51.351700 0.084105 6,300 359 283 -2048
2019-08-25 10:41:46 GMT 51.346092 0.084381 6,450 359 283 -2048
2019-08-25 10:41:43 GMT 51.344139 0.084457 6,575 359 283 -2112
2019-08-25 10:41:40 GMT 51.340740 0.084534 6,600 359 284 -2176
2019-08-25 10:41:37 GMT 51.336643 0.084686 6,700 359 284 -2176
2019-08-25 10:41:33 GMT 51.330128 0.084915 6,875 0 284 -2304
2019-08-25 10:41:30 GMT 51.326157 0.084996 7,000 0 284 -2304
2019-08-25 10:41:27 GMT 51.319061 0.085144 7,225 359 284 -2368
2019-08-25 10:41:24 GMT 51.316441 0.085220 7,300 359 284 -2368
2019-08-25 10:41:17 GMT 51.310181 0.085515 7,475 359 283 -2368
2019-08-25 10:41:14 GMT 51.305603 0.085738 7,600 325 283 -512
2019-08-25 10:41:11 GMT 51.302986 0.085983 7,675 357 283 -1984
2019-08-25 10:41:08 GMT 51.297226 0.086629 7,800 355 285 -1408
2019-08-25 10:41:05 GMT 51.294605 0.087128 7,925 350 285 -1216
2019-08-25 10:41:02 GMT 51.290176 0.088262 7,925 343 280 -1152
2019-08-25 10:40:59 GMT 51.285965 0.089895 7,975 339 285 -960
2019-08-25 10:40:56 GMT 51.283062 0.091400 8,000 339 285 -960
2019-08-25 10:40:53 GMT 51.276360 0.096283 8,125 332 284 -896
2019-08-25 10:40:50 GMT 51.276360 0.096283 8,125 330 282 -1024
2019-08-25 10:40:46 GMT 51.270905 0.101549 8,175 327 282 -1408
2019-08-25 10:40:43 GMT 51.267975 0.104741 8,275 326 283 -1728
2019-08-25 10:40:40 GMT 51.265182 0.107859 8,975 326 285 -256
2019-08-25 10:40:37 GMT 51.262394 0.110931 8,450 326 284 -1664
2019-08-25 10:40:34 GMT 51.256340 0.117645 8,600 325 283 -1792
2019-08-25 10:40:30 GMT 51.254433 0.119781 8,600 325 283 -1792
2019-08-25 10:40:27 GMT 51.251080 0.123520 8,975 326 282 -1792
2019-08-25 10:40:24 GMT 51.244564 0.130768 8,900 325 282 -1664
2019-08-25 10:40:21 GMT 51.244564 0.130768 8,875 325 282 -1536
2019-08-25 10:40:18 GMT 51.242020 0.133692 8,950 325 282 -1088
2019-08-25 10:40:15 GMT 51.238373 0.137711 8,975 325 283 -640
2019-08-25 10:40:12 GMT 51.235161 0.141296 9,000 325 285 -192
2019-08-25 10:40:09 GMT 51.231903 0.144901 9,000 326 288 -64
2019-08-25 10:40:06 GMT 51.228516 0.148687 9,000 326 288 0
2019-08-25 10:40:03 GMT 51.224213 0.153437 9,000 326 288 0
2019-08-25 10:40:00 GMT 51.222565 0.155293 9,000 326 288 0
2019-08-25 10:39:57 GMT 51.217850 0.160489 9,000 326 288 0
2019-08-25 10:39:54 GMT 51.213913 0.164869 9,000 326 288 0
2019-08-25 10:39:51 GMT 51.211838 0.167160 9,000 326 288 0
2019-08-25 10:39:48 GMT 51.208786 0.170511 9,000 326 288 0
2019-08-25 10:39:45 GMT 51.205692 0.173950 9,000 326 288 0
2019-08-25 10:39:41 GMT 51.200684 0.179493 9,000 326 288 0
2019-08-25 10:39:38 GMT 51.197407 0.183105 9,000 326 287 0
2019-08-25 10:39:32 GMT 51.191494 0.189667 9,000 326 287 64
2019-08-25 10:39:29 GMT 51.187546 0.194042 9,000 326 287 64
2019-08-25 10:39:26 GMT 51.184509 0.197449 9,000 326 287 64
2019-08-25 10:39:23 GMT 51.181114 0.201187 9,000 326 287 64
2019-08-25 10:39:20 GMT 51.174923 0.208054 9,000 326 287 64
2019-08-25 10:39:14 GMT 51.167801 0.215912 9,000 326 287 0
2019-08-25 10:39:11 GMT 51.167801 0.215912 9,000 326 287 0
2019-08-25 10:39:08 GMT 51.164566 0.219578 9,000 326 287 -64
2019-08-25 10:39:05 GMT 51.161514 0.222931 9,000 326 287 -448
2019-08-25 10:39:01 GMT 51.157463 0.227432 9,025 326 287 -384
2019-08-25 10:38:58 GMT 51.152855 0.232468 9,700 326 279 -2048
2019-08-25 10:38:55 GMT 51.150696 0.234870 9,050 326 288 -704
2019-08-25 10:38:52 GMT 51.147968 0.237885 9,100 326 287 -896
2019-08-25 10:38:49 GMT 51.141403 0.245132 9,775 326 281 -832
2019-08-25 10:38:43 GMT 51.136139 0.250978 9,325 326 283 -1920
2019-08-25 10:38:38 GMT 51.131195 0.256471 9,525 326 280 -2304
2019-08-25 10:38:35 GMT 51.129581 0.258255 9,600 326 280 -2304
2019-08-25 10:38:32 GMT 51.126507 0.261612 9,725 326 280 -768
2019-08-25 10:38:29 GMT 51.121620 0.266953 9,775 326 279 -1280
2019-08-25 10:38:26 GMT 51.116730 0.272357 9,850 326 281 -704
2019-08-25 10:38:20 GMT 51.112015 0.277479 9,925 326 281 -896
2019-08-25 10:38:17 GMT 51.109653 0.280075 9,950 326 283 -768
2019-08-25 10:38:14 GMT 51.106979 0.283046 9,975 326 284 -576
2019-08-25 10:38:11 GMT 51.103638 0.286758 10,000 326 286 -192
2019-08-25 10:38:08 GMT 51.100159 0.290544 10,625 326 312 -1344
2019-08-25 10:38:05 GMT 51.096725 0.294330 10,000 326 291 64
2019-08-25 10:38:01 GMT 51.093063 0.298338 10,000 326 298 -64
2019-08-25 10:37:58 GMT 51.089127 0.302718 10,150 326 307 -448
2019-08-25 10:37:54 GMT 51.084797 0.307465 10,000 326 301 -128
2019-08-25 10:37:51 GMT 51.079815 0.312958 10,025 326 307 -448
2019-08-25 10:37:48 GMT 51.077625 0.315399 10,225 326 311 -1088
2019-08-25 10:37:45 GMT 51.074570 0.318752 10,050 326 310 -832
2019-08-25 10:37:42 GMT 51.069489 0.324394 10,200 326 312 -1280
2019-08-25 10:37:37 GMT 51.063801 0.330658 10,225 326 314 -1344
2019-08-25 10:37:34 GMT 51.061333 0.333405 10,300 326 313 -1344
2019-08-25 10:37:31 GMT 51.056763 0.338349 10,375 326 315 -1280
2019-08-25 10:37:27 GMT 51.052071 0.343475 10,450 326 317 -1280
2019-08-25 10:37:23 GMT 51.047745 0.348222 10,525 326 318 -1280
2019-08-25 10:37:18 GMT 51.041641 0.354843 10,675 326 322 -1664
2019-08-25 10:37:15 GMT 51.038105 0.358734 10,800 326 322 -1792
2019-08-25 10:37:12 GMT 51.034195 0.362994 10,925 326 324 -1984
2019-08-25 10:37:06 GMT 51.027676 0.370255 12,275 326 333 -2112
2019-08-25 10:37:03 GMT 51.022369 0.376205 11,250 326 327 -2048
2019-08-25 10:37:00 GMT 51.018738 0.380173 11,275 326 329 -2048
2019-08-25 10:36:57 GMT 51.016251 0.382888 11,350 326 328 -2048
2019-08-25 10:36:54 GMT 51.011398 0.388233 11,450 326 330 -2048
2019-08-25 10:36:51 GMT 51.008636 0.391235 11,475 326 330 -2048
2019-08-25 10:36:48 GMT 51.004215 0.396042 11,675 326 332 -2048
2019-08-25 10:36:44 GMT 50.998535 0.402298 11,775 326 332 -2048
2019-08-25 10:36:41 GMT 50.994717 0.406418 12,000 327 338 -2240
2019-08-25 10:36:37 GMT 50.991135 0.410309 12,100 326 335 -2176
2019-08-25 10:36:34 GMT 50.986572 0.415268 12,175 326 335 -2176
2019-08-25 10:36:31 GMT 50.981544 0.420685 12,275 326 336 -2240
2019-08-25 10:36:28 GMT 50.979630 0.422751 12,875 326 337 -2240
2019-08-25 10:36:25 GMT 50.974503 0.428318 12,550 327 338 -2304
2019-08-25 10:36:22 GMT 50.971115 0.431976 12,700 326 337 -2240
2019-08-25 10:36:19 GMT 50.967911 0.435370 12,875 327 339 -2304
2019-08-25 10:36:16 GMT 50.959061 0.444794 13,000 327 338 -2304
2019-08-25 10:36:13 GMT 50.959061 0.444794 12,925 327 339 -2304
2019-08-25 10:36:10 GMT 50.954449 0.449600 13,100 327 340 -2368
2019-08-25 10:36:07 GMT 50.952484 0.451627 13,325 327 340 -2368
2019-08-25 10:36:04 GMT 50.947235 0.457077 13,275 327 340 -2432
2019-08-25 10:36:00 GMT 50.943138 0.461273 13,475 328 340 -2496
2019-08-25 10:35:57 GMT 50.938110 0.466385 13,700 328 340 -2496
2019-08-25 10:35:54 GMT 50.933075 0.471521 13,800 329 341 -2432
2019-08-25 10:35:51 GMT 50.930801 0.473785 14,250 329 341 -2432
2019-08-25 10:35:47 GMT 50.924469 0.479910 13,975 329 341 -2304
2019-08-25 10:35:44 GMT 50.921677 0.482656 15,275 332 349 -1984
2019-08-25 10:35:41 GMT 50.917068 0.487061 14,250 332 349 -1920
2019-08-25 10:35:36 GMT 50.910225 0.493469 14,600 331 344 -2304
2019-08-25 10:35:33 GMT 50.905895 0.497284 14,450 332 346 -1984
2019-08-25 10:35:30 GMT 50.902405 0.500323 15,025 332 349 -1920
2019-08-25 10:35:27 GMT 50.896957 0.505148 14,675 332 346 -1984
2019-08-25 10:35:24 GMT 50.893707 0.507895 15,275 332 349 -1984
2019-08-25 10:35:20 GMT 50.887928 0.512924 14,900 332 349 -1920
2019-08-25 10:35:17 GMT 50.884342 0.515976 15,000 332 350 -1984
2019-08-25 10:35:14 GMT 50.879196 0.520366 15,275 332 352 -1984
2019-08-25 10:35:10 GMT 50.874207 0.524597 15,225 332 352 -1984
2019-08-25 10:35:07 GMT 50.869305 0.528717 15,300 333 355 -2240
2019-08-25 10:35:04 GMT 50.863953 0.533218 15,500 333 355 -2176
2019-08-25 10:34:58 GMT 50.856411 0.539474 15,575 333 355 -2240
2019-08-25 10:34:55 GMT 50.851181 0.543823 15,800 333 356 -2304
2019-08-25 10:34:52 GMT 50.848114 0.546347 16,000 333 356 -2304
2019-08-25 10:34:49 GMT 50.843445 0.550207 16,000 333 356 -2240
2019-08-25 10:34:46 GMT 50.839931 0.553131 16,050 333 356 -1920
2019-08-25 10:34:43 GMT 50.834812 0.557404 16,150 333 360 -1408
2019-08-25 10:34:39 GMT 50.829529 0.561787 16,225 333 360 -1472
2019-08-25 10:34:36 GMT 50.824356 0.566093 16,325 333 361 -1408
2019-08-25 10:34:33 GMT 50.818470 0.571060 16,600 324 366 -2240
2019-08-25 10:34:30 GMT 50.815353 0.573654 16,550 333 362 -1408
2019-08-25 10:34:24 GMT 50.806320 0.581162 16,675 333 363 -1408
2019-08-25 10:34:21 GMT 50.800362 0.586090 16,725 333 363 -1344
2019-08-25 10:34:18 GMT 50.797531 0.588437 16,775 333 364 -1344
2019-08-25 10:34:15 GMT 50.793098 0.592117 16,925 312 365 -2368
2019-08-25 10:34:12 GMT 50.788773 0.595779 16,900 332 366 -1280
2019-08-25 10:34:09 GMT 50.783981 0.599794 17,025 331 366 -1536
2019-08-25 10:34:06 GMT 50.777782 0.605240 17,025 327 366 -2048
2019-08-25 10:34:02 GMT 50.773407 0.609370 17,225 325 366 -2240
2019-08-25 10:33:59 GMT 50.767914 0.615086 17,300 325 366 -2176
2019-08-25 10:33:56 GMT 50.764378 0.619202 17,500 322 366 -2368
2019-08-25 10:33:53 GMT 50.761070 0.623322 17,500 319 365 -2432
2019-08-25 10:33:50 GMT 50.757248 0.628596 17,675 317 365 -2432
2019-08-25 10:33:47 GMT 50.753624 0.634155 17,725 315 364 -2432
2019-08-25 10:33:44 GMT 50.750977 0.638617 18,050 313 365 -2432
2019-08-25 10:33:41 GMT 50.744522 0.650198 17,975 311 365 -2304
2019-08-25 10:33:38 GMT 50.739937 0.658798 18,175 311 366 -2240
2019-08-25 10:33:35 GMT 50.739937 0.658798 18,225 311 366 -2240
2019-08-25 10:33:32 GMT 50.737423 0.663452 18,300 311 378 -1728
2019-08-25 10:33:28 GMT 50.729744 0.677719 18,525 311 368 -2432
2019-08-25 10:33:25 GMT 50.729744 0.677719 18,650 311 368 -2368
2019-08-25 10:33:22 GMT 50.725647 0.685272 18,975 311 372 -1472
2019-08-25 10:33:18 GMT 50.721783 0.692368 19,850 311 375 -1664
2019-08-25 10:33:15 GMT 50.717918 0.699539 19,000 311 368 -2560
2019-08-25 10:33:11 GMT 50.713497 0.707703 19,150 311 372 -1472
2019-08-25 10:33:07 GMT 50.709457 0.715076 19,325 311 372 -1536
2019-08-25 10:33:04 GMT 50.706142 0.721207 19,450 311 372 -1536
2019-08-25 10:33:01 GMT 50.702866 0.727176 19,500 311 373 -1472
2019-08-25 10:32:58 GMT 50.698517 0.735267 19,525 311 373 -1472
2019-08-25 10:32:53 GMT 50.689476 0.752029 19,725 311 378 -1600
2019-08-25 10:32:49 GMT 50.688126 0.754568 19,800 311 374 -1600
2019-08-25 10:32:45 GMT 50.684772 0.760803 19,850 311 375 -1664
2019-08-25 10:32:42 GMT 50.682072 0.765762 19,900 311 378 -1728
2019-08-25 10:32:39 GMT 50.678238 0.772829 20,000 311 375 -1664
2019-08-25 10:32:34 GMT 50.671509 0.785300 20,200 311 376 -1600
2019-08-25 10:32:31 GMT 50.664848 0.797622 20,275 311 377 -1664
2019-08-25 10:32:27 GMT 50.664848 0.797622 20,375 311 377 -1664
2019-08-25 10:32:23 GMT 50.659542 0.807421 20,475 311 378 -1728
2019-08-25 10:32:20 GMT 50.655899 0.814145 20,550 311 378 -1728
2019-08-25 10:32:16 GMT 50.646515 0.831492 22,575 311 384 -1536
2019-08-25 10:32:12 GMT 50.646515 0.831492 21,650 311 379 -1600
2019-08-25 10:32:09 GMT 50.643108 0.837782 20,850 311 378 -1600
2019-08-25 10:32:03 GMT 50.637680 0.847899 21,025 311 380 -1664
2019-08-25 10:31:59 GMT 50.632820 0.857008 21,225 310 381 -1728
2019-08-25 10:31:52 GMT 50.625366 0.871028 22,575 311 384 -1536
2019-08-25 10:31:49 GMT 50.621613 0.878039 21,425 310 381 -1664
2019-08-25 10:31:45 GMT 50.616062 0.888408 21,575 311 382 -1536
2019-08-25 10:31:42 GMT 50.614246 0.891823 21,650 311 382 -1536
2019-08-25 10:31:39 GMT 50.610058 0.899691 21,675 311 383 -1536
2019-08-25 10:31:33 GMT 50.599304 0.919363 21,850 311 384 -1536
2019-08-25 10:31:29 GMT 50.599304 0.919363 21,925 312 385 -1600
2019-08-25 10:31:26 GMT 50.594646 0.927454 22,000 315 386 -1600
2019-08-25 10:31:22 GMT 50.590782 0.933689 22,200 321 399 -1408
2019-08-25 10:31:19 GMT 50.586315 0.940593 22,500 317 388 -1536
2019-08-25 10:31:15 GMT 50.581429 0.947645 22,250 319 389 -1536
2019-08-25 10:31:12 GMT 50.575562 0.955588 22,375 320 390 -1472
2019-08-25 10:31:06 GMT 50.568718 0.964793 22,525 320 392 -1472
2019-08-25 10:31:03 GMT 50.559082 0.977783 22,625 320 392 -1536
2019-08-25 10:30:59 GMT 50.559082 0.977783 22,850 320 393 -1600
2019-08-25 10:30:56 GMT 50.553680 0.984984 22,750 320 393 -1600
2019-08-25 10:30:53 GMT 50.551071 0.988480 22,800 320 394 -1664
2019-08-25 10:30:49 GMT 50.545910 0.995302 23,575 321 399 -1408
2019-08-25 10:30:46 GMT 50.539810 1.003442 23,175 321 398 -1280
2019-08-25 10:30:43 GMT 50.537109 1.006956 23,200 321 396 -1344
2019-08-25 10:30:37 GMT 50.525986 1.021439 23,250 321 398 -1280
2019-08-25 10:30:34 GMT 50.523010 1.025342 23,300 321 399 -1344
2019-08-25 10:30:31 GMT 50.520035 1.029173 23,350 321 399 -1344
2019-08-25 10:30:27 GMT 50.510056 1.042111 23,475 321 401 -1536
2019-08-25 10:30:24 GMT 50.505661 1.047821 23,875 321 402 -1536
2019-08-25 10:30:21 GMT 50.505661 1.047821 24,650 321 418 -1600
2019-08-25 10:30:17 GMT 50.498337 1.057217 23,725 321 402 -1536
2019-08-25 10:30:14 GMT 50.494884 1.061665 23,800 321 403 -1600
2019-08-25 10:30:10 GMT 50.490555 1.067264 24,125 321 403 -1536
2019-08-25 10:30:06 GMT 50.484783 1.074656 23,975 321 404 -1536
2019-08-25 10:30:03 GMT 50.480164 1.080563 24,075 321 405 -1536
2019-08-25 10:30:00 GMT 50.474636 1.087646 24,150 321 405 -1536
2019-08-25 10:29:56 GMT 50.469841 1.093808 24,200 321 406 -1536
2019-08-25 10:29:53 GMT 50.464050 1.101307 24,525 321 407 -1600
2019-08-25 10:29:50 GMT 50.461834 1.104052 24,450 321 408 -1600
2019-08-25 10:29:47 GMT 50.455719 1.111932 24,475 321 408 -1600
2019-08-25 10:29:44 GMT 50.452244 1.116448 24,575 321 408 -1664
2019-08-25 10:29:40 GMT 50.445076 1.125579 24,700 321 409 -1664
2019-08-25 10:29:37 GMT 50.442719 1.128628 24,775 321 409 -1664
2019-08-25 10:29:34 GMT 50.437767 1.135006 25,100 321 412 -1600
2019-08-25 10:29:30 GMT 50.431870 1.142506 24,950 321 410 -1600
2019-08-25 10:29:27 GMT 50.427200 1.148591 25,225 321 412 -1600
2019-08-25 10:29:23 GMT 50.421341 1.156166 25,225 321 412 -1600
2019-08-25 10:29:19 GMT 50.415142 1.164105 25,825 320 425 -1536
2019-08-25 10:29:16 GMT 50.412231 1.167948 25,825 320 425 -1536
2019-08-25 10:29:13 GMT 50.404999 1.177272 25,400 321 415 -1600
2019-08-25 10:29:10 GMT 50.402939 1.179946 25,525 321 415 -1600
2019-08-25 10:29:07 GMT 50.397640 1.186820 25,550 321 415 -1600
2019-08-25 10:29:04 GMT 50.393963 1.191645 25,625 321 437 -2048
2019-08-25 10:29:01 GMT 50.384079 1.204593 25,975 321 417 -1600
2019-08-25 10:28:58 GMT 50.384079 1.204593 25,875 321 436 -2048
2019-08-25 10:28:54 GMT 50.377441 1.213266 26,625 321 420 -1664
2019-08-25 10:28:51 GMT 50.372864 1.219338 26,000 321 418 -1600
2019-08-25 10:28:48 GMT 50.369007 1.224382 27,075 320 428 -1536
2019-08-25 10:28:43 GMT 50.361557 1.234083 26,275 321 420 -1664
2019-08-25 10:28:40 GMT 50.356209 1.241084 26,750 321 422 -1600
2019-08-25 10:28:36 GMT 50.352623 1.245761 26,375 321 421 -1664
2019-08-25 10:28:31 GMT 50.344242 1.256673 26,525 321 422 -1600
2019-08-25 10:28:28 GMT 50.339031 1.263576 26,625 321 423 -1600
2019-08-25 10:28:25 GMT 50.334373 1.269663 27,175 320 429 -1664
2019-08-25 10:28:21 GMT 50.329113 1.276493 26,800 320 425 -1472
2019-08-25 10:28:16 GMT 50.321182 1.286991 27,050 320 430 -1792
2019-08-25 10:28:13 GMT 50.310013 1.301735 27,050 320 427 -1536
2019-08-25 10:28:08 GMT 50.310013 1.301735 27,325 320 430 -1792
2019-08-25 10:28:05 GMT 50.299713 1.315324 27,250 320 429 -1664
2019-08-25 10:28:02 GMT 50.299713 1.315324 27,300 320 430 -1728
2019-08-25 10:27:58 GMT 50.293640 1.323333 27,475 320 430 -1792
2019-08-25 10:27:53 GMT 50.287403 1.331498 27,675 320 430 -1792
2019-08-25 10:27:48 GMT 50.279663 1.341705 27,925 321 431 -1792
2019-08-25 10:27:43 GMT 50.267525 1.357480 27,975 321 436 -2048
2019-08-25 10:27:40 GMT 50.267525 1.357480 28,000 321 433 -1728
2019-08-25 10:27:37 GMT 50.256317 1.372062 28,125 321 434 -1728
2019-08-25 10:27:34 GMT 50.256317 1.372062 28,100 321 434 -1792
2019-08-25 10:27:31 GMT 50.253235 1.376038 28,250 321 434 -1856
2019-08-25 10:27:27 GMT 50.247181 1.383906 28,300 321 435 -1920
2019-08-25 10:27:21 GMT 50.237919 1.395932 28,525 321 436 -1856
2019-08-25 10:27:18 GMT 50.233749 1.401407 28,725 321 436 -2048
2019-08-25 10:27:15 GMT 50.218460 1.421356 28,900 321 436 -1984
2019-08-25 10:27:08 GMT 50.218460 1.421356 28,975 321 436 -2048
2019-08-25 10:27:04 GMT 50.211617 1.430227 29,125 321 438 -1792
2019-08-25 10:27:01 GMT 50.207424 1.435646 29,275 321 438 -1920
2019-08-25 10:26:57 GMT 50.198582 1.447152 29,475 321 439 -1856
2019-08-25 10:26:54 GMT 50.191315 1.456700 29,425 321 443 -1728
2019-08-25 10:26:51 GMT 50.191315 1.456700 29,525 321 439 -1728
2019-08-25 10:26:48 GMT 50.186153 1.463409 29,575 321 440 -1792
2019-08-25 10:26:44 GMT 50.176144 1.476399 29,625 321 440 -1792
2019-08-25 10:26:38 GMT 50.170044 1.484342 29,975 321 442 -1728
2019-08-25 10:26:35 GMT 50.167717 1.487386 31,025 321 444 -2112
2019-08-25 10:26:32 GMT 50.160641 1.496590 30,125 321 443 -1792
2019-08-25 10:26:29 GMT 50.156250 1.502308 30,125 321 443 -1792
2019-08-25 10:26:25 GMT 50.150757 1.509464 31,250 321 444 -1984
2019-08-25 10:26:18 GMT 50.140995 1.522200 30,525 321 445 -2112
2019-08-25 10:26:15 GMT 50.135651 1.529123 30,575 321 445 -1984
2019-08-25 10:26:12 GMT 50.131222 1.534894 30,675 321 445 -1984
2019-08-25 10:26:06 GMT 50.120468 1.548850 30,875 321 447 -1856
2019-08-25 10:26:03 GMT 50.116516 1.553987 30,975 321 447 -1856
2019-08-25 10:26:00 GMT 50.111618 1.560420 31,050 320 447 -1856
2019-08-25 10:25:57 GMT 50.106720 1.566780 31,275 320 447 -1856
2019-08-25 10:25:52 GMT 50.098961 1.576909 31,300 320 449 -1856
2019-08-25 10:25:47 GMT 50.084667 1.595616 31,675 320 449 -1856
2019-08-25 10:25:44 GMT 50.084667 1.595616 31,875 320 465 -1984
2019-08-25 10:25:41 GMT 50.081505 1.599773 31,675 320 452 -1792
2019-08-25 10:25:38 GMT 50.076382 1.606379 31,725 320 452 -1792
2019-08-25 10:25:35 GMT 50.071426 1.612894 31,850 321 462 -1920
2019-08-25 10:25:32 GMT 50.066978 1.618702 31,975 321 452 -1792
2019-08-25 10:25:29 GMT 50.061996 1.625160 32,400 321 454 -1792
2019-08-25 10:25:25 GMT 50.049637 1.641300 32,400 320 455 -1856
2019-08-25 10:25:21 GMT 50.049637 1.641300 32,250 321 456 -1856
2019-08-25 10:25:17 GMT 50.043686 1.649033 32,375 321 456 -1856
2019-08-25 10:25:14 GMT 50.038208 1.656189 32,475 321 456 -1856
2019-08-25 10:25:10 GMT 50.032532 1.663612 32,625 321 460 -1792
2019-08-25 10:25:07 GMT 50.027828 1.669699 32,675 321 460 -1792
2019-08-25 10:25:02 GMT 50.018425 1.681947 32,925 321 460 -1920
2019-08-25 10:24:58 GMT 50.011917 1.690377 32,950 321 460 -1920
2019-08-25 10:24:51 GMT 50.001434 1.703846 33,200 321 461 -1920
2019-08-25 10:24:48 GMT 49.996674 1.709964 33,550 321 462 -1920
2019-08-25 10:24:44 GMT 49.988911 1.719880 33,600 321 463 -1856
2019-08-25 10:24:40 GMT 49.978016 1.733836 33,750 321 464 -1856
2019-08-25 10:24:37 GMT 49.978016 1.733836 33,600 320 465 -1984
2019-08-25 10:24:31 GMT 49.967285 1.747694 33,825 320 465 -1984
2019-08-25 10:24:27 GMT 49.959961 1.757523 33,975 319 466 -2048
2019-08-25 10:24:24 GMT 49.954460 1.765013 34,150 311 473 -1984
2019-08-25 10:24:20 GMT 49.943569 1.781121 35,100 316 467 -1920
2019-08-25 10:24:16 GMT 49.943569 1.781121 34,500 311 468 -1792
2019-08-25 10:24:13 GMT 49.940277 1.786435 34,575 312 468 -1792
2019-08-25 10:24:09 GMT 49.926819 1.809998 34,650 311 468 -1792
2019-08-25 10:24:04 GMT 49.926819 1.809998 34,650 311 470 -1856
2019-08-25 10:24:01 GMT 49.922436 1.817940 34,750 311 470 -1856
2019-08-25 10:23:58 GMT 49.910889 1.838874 35,125 311 472 -1984
2019-08-25 10:23:53 GMT 49.910889 1.838874 35,000 311 474 -1792
2019-08-25 10:23:50 GMT 49.906357 1.847076 35,350 311 473 -1984
2019-08-25 10:23:46 GMT 49.901531 1.855799 35,175 311 473 -1984
2019-08-25 10:23:43 GMT 49.895992 1.865820 35,400 311 474 -1792
2019-08-25 10:23:40 GMT 49.892735 1.871759 35,475 311 474 -1728
2019-08-25 10:23:37 GMT 49.888592 1.879256 35,600 311 475 -1664
2019-08-25 10:23:33 GMT 49.880905 1.893190 35,725 311 476 -1536
2019-08-25 10:23:26 GMT 49.873535 1.906706 35,850 311 478 -896
2019-08-25 10:23:22 GMT 49.867996 1.916825 35,975 311 477 -1152
2019-08-25 10:23:19 GMT 49.863602 1.924920 35,950 311 478 -576
2019-08-25 10:23:13 GMT 49.854885 1.940868 35,975 311 481 -256
2019-08-25 10:23:10 GMT 49.837830 1.972190 36,000 311 482 -128
2019-08-25 10:23:03 GMT 49.837830 1.972190 36,000 311 482 -64
2019-08-25 10:23:00 GMT 49.835815 1.975804 36,000 311 482 0
2019-08-25 10:22:57 GMT 49.832199 1.982382 36,000 312 483 0
2019-08-25 10:22:54 GMT 49.825653 1.994163 36,000 311 483 0
2019-08-25 10:22:51 GMT 49.821121 2.002186 36,000 312 482 0
2019-08-25 10:22:47 GMT 49.816341 2.010424 36,000 313 483 0
2019-08-25 10:22:43 GMT 49.810089 2.020689 36,000 314 483 0
2019-08-25 10:22:40 GMT 49.806335 2.026616 36,000 323 486 0
2019-08-25 10:22:37 GMT 49.800560 2.035292 36,000 320 484 0
2019-08-25 10:22:30 GMT 49.788071 2.052058 36,000 322 485 0
2019-08-25 10:22:27 GMT 49.778214 2.064094 36,000 323 485 0
2019-08-25 10:22:21 GMT 49.767746 2.076633 36,000 323 486 0
2019-08-25 10:22:18 GMT 49.767746 2.076633 36,000 323 486 0
2019-08-25 10:22:15 GMT 49.760990 2.084656 36,000 323 486 0
2019-08-25 10:22:09 GMT 49.750332 2.097349 36,000 323 486 0
2019-08-25 10:22:05 GMT 49.743210 2.105761 36,000 323 486 0
2019-08-25 10:22:02 GMT 49.740555 2.108941 36,000 323 486 0
2019-08-25 10:21:58 GMT 49.730221 2.121178 36,000 323 486 0
2019-08-25 10:21:53 GMT 49.723610 2.128972 36,000 323 486 0
2019-08-25 10:21:50 GMT 49.718117 2.135505 36,000 323 486 0
2019-08-25 10:21:47 GMT 49.712402 2.142262 36,000 323 486 0
2019-08-25 10:21:44 GMT 49.706863 2.148767 36,000 323 486 0
2019-08-25 10:21:41 GMT 49.701324 2.155272 36,000 323 486 0
2019-08-25 10:21:35 GMT 49.690231 2.168241 36,000 324 486 0
2019-08-25 10:21:30 GMT 49.682316 2.177371 36,000 323 486 0
2019-08-25 10:21:26 GMT 49.675873 2.184906 36,000 324 487 0
2019-08-25 10:21:23 GMT 49.668350 2.193628 36,000 325 487 0
2019-08-25 10:21:20 GMT 49.664768 2.197785 36,000 324 485 0
2019-08-25 10:21:16 GMT 49.655914 2.207891 36,000 324 486 0
2019-08-25 10:21:13 GMT 49.650894 2.213671 36,000 324 486 0
2019-08-25 10:21:10 GMT 49.646564 2.218644 36,000 324 486 0
2019-08-25 10:21:06 GMT 49.626129 2.241879 36,000 324 486 0
2019-08-25 10:21:01 GMT 49.626129 2.241879 36,000 324 486 0
2019-08-25 10:20:58 GMT 49.622498 2.245909 36,000 324 487 0
2019-08-25 10:20:55 GMT 49.618866 2.249970 36,000 325 487 0
2019-08-25 10:20:52 GMT 49.613571 2.255883 36,000 326 487 0
2019-08-25 10:20:48 GMT 49.606670 2.263629 36,000 325 487 0
2019-08-25 10:20:45 GMT 49.601898 2.268821 36,000 325 487 0
2019-08-25 10:20:42 GMT 49.594612 2.276917 36,000 325 487 0
2019-08-25 10:20:38 GMT 49.587814 2.284340 36,000 325 487 0
2019-08-25 10:20:34 GMT 49.580647 2.292134 36,000 325 487 0
2019-08-25 10:20:31 GMT 49.576218 2.296865 36,000 326 487 0
2019-08-25 10:20:28 GMT 49.569756 2.303788 36,000 326 487 0
2019-08-25 10:20:25 GMT 49.564541 2.309282 36,000 326 488 0
2019-08-25 10:20:22 GMT 49.556580 2.317670 36,000 326 487 0
2019-08-25 10:20:18 GMT 49.551178 2.323319 36,000 326 488 0
2019-08-25 10:20:15 GMT 49.545776 2.328957 36,000 326 488 0
2019-08-25 10:20:11 GMT 49.537949 2.337124 36,000 326 487 0
2019-08-25 10:20:07 GMT 49.530884 2.344542 36,000 326 488 0
2019-08-25 10:20:04 GMT 49.525436 2.350183 36,000 326 488 0
2019-08-25 10:20:00 GMT 49.517990 2.357941 36,000 326 488 0
2019-08-25 10:19:57 GMT 49.512222 2.364012 36,000 326 488 0
2019-08-25 10:19:54 GMT 49.507374 2.369038 36,000 326 488 0
2019-08-25 10:19:51 GMT 49.493965 2.382994 36,000 326 488 0
2019-08-25 10:19:45 GMT 49.487823 2.389452 36,000 326 488 0
2019-08-25 10:19:42 GMT 49.484253 2.393140 36,000 326 488 0
2019-08-25 10:19:39 GMT 49.477936 2.399718 36,000 326 488 0
2019-08-25 10:19:34 GMT 49.468781 2.409186 36,000 326 488 0
2019-08-25 10:19:30 GMT 49.460403 2.417957 36,000 326 488 0
2019-08-25 10:19:24 GMT 49.450150 2.428629 36,000 326 488 0
2019-08-25 10:19:20 GMT 49.443272 2.435773 36,000 326 487 0
2019-08-25 10:19:17 GMT 49.437103 2.442145 36,000 326 487 0
2019-08-25 10:19:14 GMT 49.430794 2.448763 36,000 326 487 0
2019-08-25 10:19:10 GMT 49.416645 2.463395 36,000 326 487 0
2019-08-25 10:19:06 GMT 49.416645 2.463395 36,000 326 487 0
2019-08-25 10:19:02 GMT 49.409195 2.471129 36,000 326 487 0
2019-08-25 10:18:59 GMT 49.403229 2.477347 36,000 326 487 0
2019-08-25 10:18:53 GMT 49.392197 2.488685 36,000 326 487 0
2019-08-25 10:18:49 GMT 49.383820 2.497418 36,000 326 487 0
2019-08-25 10:18:45 GMT 49.378052 2.503333 36,000 327 487 0
2019-08-25 10:18:42 GMT 49.373024 2.508569 36,000 327 487 0
2019-08-25 10:18:38 GMT 49.364643 2.517242 36,000 327 487 0
2019-08-25 10:18:32 GMT 49.353241 2.528968 36,000 326 486 0
2019-08-25 10:18:29 GMT 49.348022 2.534321 36,000 326 486 0
2019-08-25 10:18:26 GMT 49.342438 2.540082 36,000 326 486 0
2019-08-25 10:18:22 GMT 49.328846 2.554177 36,000 326 486 0
2019-08-25 10:18:19 GMT 49.328846 2.554177 36,000 326 486 0
2019-08-25 10:18:16 GMT 49.323441 2.559744 36,000 326 486 0
2019-08-25 10:18:12 GMT 49.315063 2.568406 36,000 326 486 0
2019-08-25 10:18:09 GMT 49.310596 2.572969 36,000 326 486 0
2019-08-25 10:18:06 GMT 49.304825 2.578968 36,000 326 486 0
2019-08-25 10:18:01 GMT 49.295887 2.588148 36,000 326 486 0
2019-08-25 10:17:58 GMT 49.289787 2.594508 36,000 326 486 0
2019-08-25 10:17:55 GMT 49.284016 2.600507 36,000 326 486 0
2019-08-25 10:17:50 GMT 49.269863 2.615035 36,000 326 486 0
2019-08-25 10:17:47 GMT 49.269863 2.615035 36,000 327 485 0
2019-08-25 10:17:44 GMT 49.261856 2.623275 36,000 327 485 0
2019-08-25 10:17:41 GMT 49.256458 2.628840 36,000 327 486 0
2019-08-25 10:17:38 GMT 49.253632 2.631719 36,000 327 486 0
2019-08-25 10:17:35 GMT 49.245071 2.640522 36,000 327 486 0
2019-08-25 10:17:32 GMT 49.240997 2.644677 36,000 327 486 0
2019-08-25 10:17:29 GMT 49.230713 2.655222 36,000 327 486 0
2019-08-25 10:17:26 GMT 49.230713 2.655222 36,000 327 485 0
2019-08-25 10:17:23 GMT 49.225685 2.660354 36,000 327 485 0
2019-08-25 10:17:19 GMT 49.218426 2.667798 36,000 327 485 0
2019-08-25 10:17:16 GMT 49.206345 2.680242 36,000 327 485 0
2019-08-25 10:17:08 GMT 49.190678 2.696276 36,000 327 485 0
2019-08-25 10:17:05 GMT 49.186432 2.700665 36,000 327 485 0
2019-08-25 10:16:59 GMT 49.175262 2.712144 36,000 327 485 0
2019-08-25 10:16:56 GMT 49.175262 2.712144 36,000 327 485 0
2019-08-25 10:16:51 GMT 49.163166 2.724537 36,000 327 485 0
2019-08-25 10:16:48 GMT 49.160187 2.727573 36,000 327 485 0
2019-08-25 10:16:45 GMT 49.155350 2.732567 36,000 327 485 0
2019-08-25 10:16:42 GMT 49.149216 2.738835 36,000 327 485 0
2019-08-25 10:16:39 GMT 49.143448 2.744751 36,000 327 485 0
2019-08-25 10:16:36 GMT 49.135609 2.752726 36,000 327 485 0
2019-08-25 10:16:33 GMT 49.125553 2.762989 36,000 327 485 0
2019-08-25 10:16:30 GMT 49.125553 2.762989 36,000 327 485 0
2019-08-25 10:16:27 GMT 49.120743 2.767991 36,000 327 485 0
2019-08-25 10:16:24 GMT 49.113831 2.774963 36,000 327 485 0
2019-08-25 10:16:21 GMT 49.109913 2.778963 36,000 327 485 0
2019-08-25 10:16:17 GMT 49.101379 2.787710 36,000 327 485 0
2019-08-25 10:16:14 GMT 49.096344 2.792851 36,000 327 485 0
2019-08-25 10:16:11 GMT 49.090733 2.798550 36,000 327 485 0
2019-08-25 10:16:07 GMT 49.082352 2.807079 36,000 327 485 0
2019-08-25 10:16:02 GMT 49.074532 2.815030 36,000 327 485 0
2019-08-25 10:15:58 GMT 49.067825 2.821867 36,000 327 485 0
2019-08-25 10:15:55 GMT 49.062241 2.827606 36,000 327 485 0
2019-08-25 10:15:52 GMT 49.055557 2.834402 36,000 327 485 0
2019-08-25 10:15:49 GMT 49.048462 2.841628 36,000 327 485 0
2019-08-25 10:15:46 GMT 49.044525 2.845600 36,000 327 485 0
2019-08-25 10:15:42 GMT 49.037102 2.853121 36,000 327 485 0
2019-08-25 10:15:38 GMT 49.030025 2.860348 36,000 327 485 0
2019-08-25 10:15:35 GMT 49.024979 2.865460 36,000 327 485 0
2019-08-25 10:15:32 GMT 49.008938 2.881743 36,000 327 484 0
2019-08-25 10:15:28 GMT 49.008938 2.881743 36,000 327 484 0
2019-08-25 10:15:25 GMT 49.006165 2.884545 36,000 327 484 0
2019-08-25 10:15:22 GMT 48.997768 2.893018 36,000 327 485 0
2019-08-25 10:15:18 GMT 48.992203 2.898700 36,000 327 485 0
2019-08-25 10:15:15 GMT 48.984734 2.906245 36,000 327 484 0
2019-08-25 10:15:11 GMT 48.979332 2.911738 36,000 327 484 0
2019-08-25 10:15:08 GMT 48.972069 2.919111 36,000 327 484 0
2019-08-25 10:15:04 GMT 48.966671 2.924532 36,000 327 484 0
2019-08-25 10:15:01 GMT 48.960709 2.930603 36,000 327 484 0
2019-08-25 10:14:58 GMT 48.949726 2.941734 36,000 327 484 0
2019-08-25 10:14:52 GMT 48.942673 2.948914 36,000 327 484 0
2019-08-25 10:14:49 GMT 48.939297 2.952287 36,000 327 484 0
2019-08-25 10:14:46 GMT 48.932968 2.958703 36,000 327 483 0
2019-08-25 10:14:43 GMT 48.918999 2.972741 36,000 327 484 0
2019-08-25 10:14:39 GMT 48.913788 2.978070 36,000 327 484 0
2019-08-25 10:14:36 GMT 48.913788 2.978070 36,000 327 484 0
2019-08-25 10:14:33 GMT 48.908386 2.983492 36,000 327 484 0
2019-08-25 10:14:29 GMT 48.899075 2.992907 36,000 327 484 0
2019-08-25 10:14:24 GMT 48.890091 3.001870 36,000 327 484 0
2019-08-25 10:14:21 GMT 48.886738 3.005267 36,000 327 484 0
2019-08-25 10:14:18 GMT 48.878174 3.013868 36,000 327 484 0
2019-08-25 10:14:14 GMT 48.863277 3.028829 36,000 327 485 0
2019-08-25 10:14:09 GMT 48.863277 3.028829 36,000 327 484 0
2019-08-25 10:14:06 GMT 48.858250 3.033889 36,000 327 484 0
2019-08-25 10:14:02 GMT 48.850197 3.041912 36,000 327 484 0
2019-08-25 10:13:58 GMT 48.836609 3.055608 36,000 327 484 0
2019-08-25 10:13:54 GMT 48.836609 3.055608 36,000 327 484 0
2019-08-25 10:13:51 GMT 48.831207 3.061030 36,000 327 485 0
2019-08-25 10:13:48 GMT 48.823753 3.068510 36,000 327 484 0
2019-08-25 10:13:44 GMT 48.816490 3.075810 36,000 327 484 0
2019-08-25 10:13:41 GMT 48.812534 3.079714 36,000 327 485 0
2019-08-25 10:13:37 GMT 48.797653 3.094694 36,000 327 484 0
2019-08-25 10:13:34 GMT 48.797653 3.094694 36,000 327 484 0
2019-08-25 10:13:30 GMT 48.789230 3.103145 36,000 327 485 0
2019-08-25 10:13:27 GMT 48.784195 3.108145 36,000 327 484 0
2019-08-25 10:13:24 GMT 48.778599 3.113757 36,000 327 484 0
2019-08-25 10:13:21 GMT 48.774307 3.118075 36,000 327 484 0
2019-08-25 10:13:18 GMT 48.769474 3.122936 36,000 327 484 0
2019-08-25 10:13:14 GMT 48.761234 3.131104 36,000 327 485 0
2019-08-25 10:13:10 GMT 48.754120 3.138216 36,000 327 485 0
2019-08-25 10:13:07 GMT 48.745148 3.147160 36,000 327 485 0
2019-08-25 10:13:04 GMT 48.741074 3.151245 36,000 327 485 0
2019-08-25 10:13:01 GMT 48.735443 3.156835 36,000 327 485 0
2019-08-25 10:12:57 GMT 48.730415 3.161894 36,000 327 485 0
2019-08-25 10:12:53 GMT 48.722717 3.169556 36,000 327 485 0
2019-08-25 10:12:50 GMT 48.714706 3.177584 36,000 327 485 0
2019-08-25 10:12:47 GMT 48.711136 3.181105 36,000 327 485 0
2019-08-25 10:12:44 GMT 48.704636 3.187655 36,000 327 485 0
2019-08-25 10:12:41 GMT 48.699554 3.192655 36,000 327 485 0
2019-08-25 10:12:37 GMT 48.692276 3.199979 36,000 327 485 0
2019-08-25 10:12:33 GMT 48.684631 3.207585 36,000 327 484 0
2019-08-25 10:12:27 GMT 48.673050 3.219205 36,000 327 485 0
2019-08-25 10:12:24 GMT 48.667282 3.224980 36,000 327 485 0
2019-08-25 10:12:21 GMT 48.663521 3.228752 36,000 327 485 0
2019-08-25 10:12:17 GMT 48.652908 3.239449 36,000 327 485 0
2019-08-25 10:12:13 GMT 48.640778 3.251671 36,000 327 485 0
2019-08-25 10:12:04 GMT 48.629059 3.263503 36,000 327 485 0
2019-08-25 10:12:01 GMT 48.624001 3.268577 36,000 327 485 0
2019-08-25 10:11:56 GMT 48.616379 3.276320 36,000 327 485 0
2019-08-25 10:11:52 GMT 48.606728 3.286069 36,000 327 484 0
2019-08-25 10:11:44 GMT 48.593369 3.299657 36,000 327 484 0
2019-08-25 10:11:41 GMT 48.576469 3.316931 36,000 326 485 0
2019-08-25 10:11:36 GMT 48.576469 3.316931 36,000 326 485 0
2019-08-25 10:11:32 GMT 48.570511 3.322942 36,000 326 485 0
2019-08-25 10:11:29 GMT 48.563293 3.330375 36,000 326 485 0
2019-08-25 10:11:24 GMT 48.555862 3.337942 36,000 326 485 0
2019-08-25 10:11:20 GMT 48.550140 3.343788 36,000 326 485 0
2019-08-25 10:11:11 GMT 48.531784 3.362591 36,000 326 485 0
2019-08-25 10:11:01 GMT 48.511715 3.382994 36,000 328 485 0
2019-08-25 10:10:57 GMT 48.507057 3.387692 36,000 327 485 0
2019-08-25 10:10:53 GMT 48.496811 3.397945 36,000 327 485 0
2019-08-25 10:10:50 GMT 48.493977 3.400702 36,000 328 485 0
2019-08-25 10:10:47 GMT 48.487610 3.406959 36,000 328 485 0
2019-08-25 10:10:42 GMT 48.477917 3.416098 36,000 329 485 0
2019-08-25 10:10:39 GMT 48.472332 3.421157 36,000 330 485 0
2019-08-25 10:10:34 GMT 48.460926 3.431276 36,000 330 484 0
2019-08-25 10:10:31 GMT 48.454742 3.436749 36,000 330 485 0
2019-08-25 10:10:28 GMT 48.449158 3.441749 36,000 330 485 0
2019-08-25 10:10:22 GMT 48.438114 3.451442 36,000 330 485 0
2019-08-25 10:10:16 GMT 48.427505 3.460834 36,000 330 484 0
2019-08-25 10:10:13 GMT 48.421730 3.465970 36,000 330 485 0
2019-08-25 10:10:10 GMT 48.415558 3.471468 36,000 330 485 0
2019-08-25 10:10:06 GMT 48.409561 3.476821 36,000 330 484 0
2019-08-25 10:10:02 GMT 48.401108 3.484328 36,000 330 484 0
2019-08-25 10:09:59 GMT 48.394356 3.490328 36,000 330 485 0
2019-08-25 10:09:56 GMT 48.390518 3.493793 36,000 324 481 0
2019-08-25 10:09:52 GMT 48.379898 3.503230 36,000 324 481 0
2019-08-25 10:09:47 GMT 48.373169 3.509216 36,000 330 484 0
2019-08-25 10:09:42 GMT 48.362045 3.519217 36,000 330 484 0
2019-08-25 10:09:39 GMT 48.355114 3.525383 36,000 330 484 0
2019-08-25 10:09:33 GMT 48.336960 3.541330 36,000 326 482 0
2019-08-25 10:09:30 GMT 48.336960 3.541330 36,000 330 484 0
2019-08-25 10:09:24 GMT 48.327740 3.549524 36,000 328 483 0
2019-08-25 10:09:21 GMT 48.322201 3.554583 36,000 329 483 0
2019-08-25 10:09:18 GMT 48.315403 3.561016 36,000 328 483 0
2019-08-25 10:09:14 GMT 48.309586 3.566581 36,000 322 481 0
2019-08-25 10:09:11 GMT 48.303635 3.572529 36,000 325 482 0
2019-08-25 10:09:07 GMT 48.294617 3.581754 36,000 325 482 0
2019-08-25 10:09:01 GMT 48.284317 3.592811 36,000 325 482 0
2019-08-25 10:08:58 GMT 48.274841 3.603375 36,000 323 481 0
2019-08-25 10:08:49 GMT 48.264999 3.614784 36,000 317 479 0
2019-08-25 10:08:46 GMT 48.258545 3.622460 36,000 317 479 0
2019-08-25 10:08:43 GMT 48.249207 3.633728 36,000 321 481 0
2019-08-25 10:08:40 GMT 48.249207 3.633728 36,000 321 480 0
2019-08-25 10:08:34 GMT 48.233147 3.654689 36,000 317 479 0
2019-08-25 10:08:27 GMT 48.225586 3.665349 36,000 322 479 0
2019-08-25 10:08:24 GMT 48.219910 3.673237 36,000 318 479 0
2019-08-25 10:08:17 GMT 48.208427 3.688371 36,000 321 479 0
2019-08-25 10:08:13 GMT 48.198486 3.699928 36,000 325 479 0
2019-08-25 10:08:05 GMT 48.189194 3.709576 36,000 327 480 0
2019-08-25 10:08:02 GMT 48.183567 3.714897 36,000 329 480 0
2019-08-25 10:07:59 GMT 48.178665 3.719435 36,000 330 480 0
2019-08-25 10:07:56 GMT 48.170471 3.726830 36,000 330 480 0
2019-08-25 10:07:52 GMT 48.161922 3.734484 36,000 330 480 0
2019-08-25 10:07:46 GMT 48.150471 3.744648 36,000 330 480 0
2019-08-25 10:07:43 GMT 48.145523 3.749084 36,000 330 480 0
2019-08-25 10:07:39 GMT 48.140350 3.753616 36,000 330 480 0
2019-08-25 10:07:35 GMT 48.131199 3.761761 36,000 330 480 0
2019-08-25 10:07:32 GMT 48.126076 3.766339 36,000 330 480 0
2019-08-25 10:07:29 GMT 48.120163 3.771621 36,000 330 480 0
2019-08-25 10:07:23 GMT 48.108711 3.781762 36,000 330 480 0
2019-08-25 10:07:17 GMT 48.092327 3.796269 36,000 330 480 0
2019-08-25 10:07:14 GMT 48.092327 3.796269 36,000 330 480 0
2019-08-25 10:07:10 GMT 48.077820 3.809166 36,000 330 480 0
2019-08-25 10:07:06 GMT 48.077820 3.809166 36,000 330 480 0
2019-08-25 10:07:03 GMT 48.071182 3.815071 36,000 330 480 0
2019-08-25 10:06:59 GMT 48.062393 3.822820 36,000 330 480 0
2019-08-25 10:06:56 GMT 48.057224 3.827397 36,000 330 480 0
2019-08-25 10:06:52 GMT 48.049438 3.834297 36,000 330 480 0
2019-08-25 10:06:49 GMT 48.044449 3.838692 36,000 330 480 0
2019-08-25 10:06:46 GMT 48.036667 3.845627 36,000 330 480 0
2019-08-25 10:06:37 GMT 48.022339 3.858261 36,000 330 479 0
2019-08-25 10:06:34 GMT 48.017002 3.862962 36,000 330 480 0
2019-08-25 10:06:28 GMT 48.001556 3.876595 36,000 330 480 0
2019-08-25 10:06:24 GMT 47.997360 3.880287 36,000 330 480 0
2019-08-25 10:06:20 GMT 47.989746 3.887032 36,000 330 479 0
2019-08-25 10:06:17 GMT 47.981552 3.894241 36,000 330 479 0
2019-08-25 10:06:14 GMT 47.976971 3.898315 36,000 330 479 0
2019-08-25 10:06:09 GMT 47.967453 3.906670 36,000 330 479 0
2019-08-25 10:06:05 GMT 47.961327 3.912048 36,000 330 479 0
2019-08-25 10:06:02 GMT 47.955044 3.917612 36,000 330 479 0
2019-08-25 10:05:59 GMT 47.946243 3.925288 36,000 330 479 0
2019-08-25 10:05:55 GMT 47.940720 3.930153 36,000 330 479 0
2019-08-25 10:05:52 GMT 47.936142 3.934162 36,000 330 479 0
2019-08-25 10:05:48 GMT 47.927353 3.941895 36,000 330 479 0
2019-08-25 10:05:45 GMT 47.921246 3.947261 36,000 330 479 0
2019-08-25 10:05:42 GMT 47.916321 3.951576 36,000 330 479 0
2019-08-25 10:05:38 GMT 47.909409 3.957550 36,000 330 479 0
2019-08-25 10:05:35 GMT 47.902580 3.963600 36,000 330 479 0
2019-08-25 10:05:31 GMT 47.896454 3.968948 36,000 330 479 0
2019-08-25 10:05:27 GMT 47.886517 3.977614 36,000 330 479 0
2019-08-25 10:05:23 GMT 47.880978 3.982474 36,000 330 479 0
2019-08-25 10:05:18 GMT 47.868782 3.993178 36,000 330 479 0
2019-08-25 10:05:14 GMT 47.862495 3.998742 36,000 330 479 0
2019-08-25 10:05:07 GMT 47.850723 4.009117 36,000 330 479 0
2019-08-25 10:05:03 GMT 47.842117 4.016739 36,000 330 479 0
2019-08-25 10:04:59 GMT 47.834148 4.023743 36,000 330 479 0
2019-08-25 10:04:54 GMT 47.823486 4.033180 36,000 330 479 0
2019-08-25 10:04:51 GMT 47.820465 4.035896 36,000 330 479 0
2019-08-25 10:04:47 GMT 47.803482 4.050728 36,000 328 479 0
2019-08-25 10:04:43 GMT 47.803482 4.050728 36,000 330 479 0
2019-08-25 10:04:40 GMT 47.797348 4.056084 36,000 330 478 0
2019-08-25 10:04:36 GMT 47.790901 4.061772 36,000 329 479 0
2019-08-25 10:04:32 GMT 47.783546 4.068533 36,000 327 478 0
2019-08-25 10:04:27 GMT 47.773582 4.078252 36,000 327 478 0
2019-08-25 10:04:20 GMT 47.759010 4.093675 36,000 324 478 0
2019-08-25 10:04:15 GMT 47.750977 4.102913 36,000 322 477 0
2019-08-25 10:04:09 GMT 47.739880 4.116352 36,000 320 477 0
2019-08-25 10:04:04 GMT 47.733410 4.124732 36,000 318 477 0
2019-08-25 10:04:00 GMT 47.727859 4.132233 36,000 315 476 0
2019-08-25 10:03:54 GMT 47.717533 4.146916 36,000 315 476 0
2019-08-25 10:03:51 GMT 47.702362 4.170959 36,000 312 476 0
2019-08-25 10:03:44 GMT 47.702362 4.170959 36,000 312 476 0
2019-08-25 10:03:38 GMT 47.694077 4.184898 36,000 312 476 0
2019-08-25 10:03:33 GMT 47.687347 4.196091 36,000 311 470 0
2019-08-25 10:03:30 GMT 47.681946 4.205086 36,000 310 476 0
2019-08-25 10:03:22 GMT 47.670235 4.226215 36,000 308 475 0
2019-08-25 10:03:18 GMT 47.664413 4.237633 36,000 307 475 0
2019-08-25 10:03:10 GMT 47.654549 4.258399 36,000 305 475 0
2019-08-25 10:03:07 GMT 47.650864 4.266472 36,000 304 475 0
2019-08-25 10:03:00 GMT 47.644169 4.281288 36,000 304 475 0
2019-08-25 10:02:56 GMT 47.636948 4.297234 36,000 304 475 0
2019-08-25 10:02:52 GMT 47.633320 4.305373 36,000 304 475 0
2019-08-25 10:02:48 GMT 47.627472 4.318382 36,000 304 475 0
2019-08-25 10:02:41 GMT 47.620518 4.333754 36,000 304 475 0
2019-08-25 10:02:38 GMT 47.611488 4.353825 36,000 304 475 0
2019-08-25 10:02:34 GMT 47.611488 4.353825 36,000 304 476 0
2019-08-25 10:02:29 GMT 47.604767 4.368645 36,000 304 476 0
2019-08-25 10:02:25 GMT 47.595100 4.390024 36,000 304 476 0
2019-08-25 10:02:21 GMT 47.595100 4.390024 36,000 304 476 0
2019-08-25 10:02:18 GMT 47.592541 4.395658 36,000 304 476 0
2019-08-25 10:02:10 GMT 47.582394 4.418053 36,000 304 476 0
2019-08-25 10:02:07 GMT 47.578945 4.425659 36,000 304 476 0
2019-08-25 10:01:58 GMT 47.568329 4.449120 36,000 304 476 0
2019-08-25 10:01:55 GMT 47.564144 4.458266 36,000 304 476 0
2019-08-25 10:01:52 GMT 47.560978 4.465309 36,000 304 475 0
2019-08-25 10:01:48 GMT 47.555237 4.477959 36,000 304 476 0
2019-08-25 10:01:45 GMT 47.551575 4.486084 36,000 304 475 0
2019-08-25 10:01:42 GMT 47.547291 4.495521 36,000 304 475 0
2019-08-25 10:01:39 GMT 47.544113 4.502541 36,000 304 475 0
2019-08-25 10:01:36 GMT 47.540680 4.510099 36,000 304 476 0
2019-08-25 10:01:32 GMT 47.535652 4.521085 36,000 304 475 0
2019-08-25 10:01:29 GMT 47.528641 4.536461 36,000 304 475 0
2019-08-25 10:01:22 GMT 47.523376 4.547997 36,000 304 475 0
2019-08-25 10:01:17 GMT 47.517014 4.562004 36,000 304 475 0
2019-08-25 10:01:13 GMT 47.512611 4.571721 36,000 305 475 0
2019-08-25 10:01:10 GMT 47.508911 4.579788 36,000 304 475 0
2019-08-25 10:01:06 GMT 47.503765 4.591088 36,000 304 474 0
2019-08-25 10:01:01 GMT 47.498154 4.603409 36,000 304 475 0
2019-08-25 10:00:57 GMT 47.492409 4.616089 36,000 304 474 0
2019-08-25 10:00:52 GMT 47.486916 4.628132 36,000 304 474 0
2019-08-25 10:00:49 GMT 47.482632 4.637569 36,000 305 475 0
2019-08-25 10:00:42 GMT 47.474396 4.655525 36,000 305 475 0
2019-08-25 10:00:37 GMT 47.468491 4.668434 36,000 305 475 0
2019-08-25 10:00:34 GMT 47.464828 4.676468 36,000 305 475 0
2019-08-25 10:00:31 GMT 47.461170 4.684472 36,000 305 475 0
2019-08-25 10:00:27 GMT 47.456467 4.694683 36,000 305 475 0
2019-08-25 10:00:23 GMT 47.451206 4.706163 36,000 305 474 0
2019-08-25 10:00:19 GMT 47.447159 4.715036 36,000 305 474 0
2019-08-25 10:00:12 GMT 47.438080 4.734826 36,000 304 470 0
2019-08-25 10:00:02 GMT 47.425556 4.762151 36,000 305 474 0
2019-08-25 09:59:59 GMT 47.421982 4.769852 36,000 305 474 0
2019-08-25 09:59:52 GMT 47.413269 4.788842 36,000 305 474 0
2019-08-25 09:59:48 GMT 47.398090 4.822012 36,000 305 473 0
2019-08-25 09:59:41 GMT 47.398090 4.822012 36,000 305 473 0
2019-08-25 09:59:37 GMT 47.395020 4.828629 36,000 305 473 0
2019-08-25 09:59:31 GMT 47.387878 4.844147 36,000 305 473 0
2019-08-25 09:59:26 GMT 47.382019 4.856918 36,000 305 473 0
2019-08-25 09:59:20 GMT 47.368530 4.886240 36,000 305 473 0
2019-08-25 09:59:16 GMT 47.368530 4.886240 36,000 305 473 0
2019-08-25 09:59:10 GMT 47.361408 4.901733 36,000 305 473 0
2019-08-25 09:59:06 GMT 47.356380 4.912649 36,000 305 473 0
2019-08-25 09:59:03 GMT 47.348145 4.930458 36,000 305 473 0
2019-08-25 09:58:59 GMT 47.343487 4.940538 36,000 305 472 0
2019-08-25 09:58:55 GMT 47.343487 4.940538 36,000 305 473 0
2019-08-25 09:58:48 GMT 47.335236 4.958336 36,000 305 472 0
2019-08-25 09:58:43 GMT 47.328545 4.972652 36,000 305 472 0
2019-08-25 09:58:40 GMT 47.324844 4.980583 36,000 305 472 0
2019-08-25 09:58:36 GMT 47.319557 4.991948 36,000 305 472 0
2019-08-25 09:58:33 GMT 47.316441 4.998568 36,000 305 472 0
2019-08-25 09:58:27 GMT 47.309097 5.014503 36,000 305 472 0
2019-08-25 09:58:24 GMT 47.305756 5.021645 36,000 305 472 0
2019-08-25 09:58:21 GMT 47.300240 5.033499 36,000 317 478 320
2019-08-25 09:58:14 GMT 47.292789 5.048922 36,000 308 472 0
2019-08-25 09:58:11 GMT 47.289139 5.056183 36,000 308 472 0
2019-08-25 09:58:06 GMT 47.282131 5.069697 36,000 309 472 0
2019-08-25 09:58:03 GMT 47.278610 5.076233 36,000 309 472 0
2019-08-25 09:57:59 GMT 47.272541 5.087233 36,000 310 473 0
2019-08-25 09:57:53 GMT 47.263916 5.102188 36,000 312 474 -64
2019-08-25 09:57:50 GMT 47.260025 5.108780 36,000 317 478 320
2019-08-25 09:57:43 GMT 47.248901 5.126633 36,025 314 476 -64
2019-08-25 09:57:39 GMT 47.243725 5.134559 36,025 315 476 -64
2019-08-25 09:57:31 GMT 47.229061 5.155616 36,000 317 478 448
2019-08-25 09:57:28 GMT 47.226173 5.159701 35,975 317 478 512
2019-08-25 09:57:23 GMT 47.217236 5.172166 35,925 317 478 1152
2019-08-25 09:57:18 GMT 47.210022 5.182237 35,825 317 478 1152
2019-08-25 09:57:13 GMT 47.196259 5.201477 35,725 317 478 1152
2019-08-25 09:57:10 GMT 47.190189 5.209984 35,575 317 479 1216
2019-08-25 09:57:03 GMT 47.180374 5.223587 35,450 317 479 1152
2019-08-25 09:57:00 GMT 47.180374 5.223587 35,475 317 479 1152
2019-08-25 09:56:56 GMT 47.173943 5.232520 35,350 317 479 1216
2019-08-25 09:56:52 GMT 47.168030 5.240831 35,325 317 479 1280
2019-08-25 09:56:49 GMT 47.162521 5.248444 35,250 317 480 1280
2019-08-25 09:56:45 GMT 47.156719 5.256465 35,150 317 481 1344
2019-08-25 09:56:42 GMT 47.152222 5.262726 35,050 317 481 1408
2019-08-25 09:56:35 GMT 47.133499 5.288750 34,900 317 482 1280
2019-08-25 09:56:30 GMT 47.133499 5.288750 34,850 317 483 1216
2019-08-25 09:56:27 GMT 47.127018 5.297805 34,700 317 483 1216
2019-08-25 09:56:24 GMT 47.123108 5.303169 34,675 317 483 1152
2019-08-25 09:56:20 GMT 47.116638 5.312171 34,625 317 483 1216
2019-08-25 09:56:17 GMT 47.111145 5.319848 34,550 317 483 1152
2019-08-25 09:56:13 GMT 47.104813 5.328580 34,475 317 483 1152
2019-08-25 09:56:09 GMT 47.093452 5.344356 34,250 317 482 1088
2019-08-25 09:56:06 GMT 47.093452 5.344356 34,350 317 483 1088
2019-08-25 09:56:02 GMT 47.087448 5.352666 34,275 317 483 1088
2019-08-25 09:55:59 GMT 47.080837 5.361962 34,025 317 483 1088
2019-08-25 09:55:54 GMT 47.075317 5.369568 34,150 317 483 1024
2019-08-25 09:55:51 GMT 47.070282 5.376572 34,100 317 483 1024
2019-08-25 09:55:47 GMT 47.063801 5.385554 34,025 317 483 704
2019-08-25 09:55:44 GMT 47.058929 5.392296 34,000 317 483 448
2019-08-25 09:55:40 GMT 47.051651 5.402386 34,000 317 482 192
2019-08-25 09:55:35 GMT 47.043549 5.413582 34,000 317 481 0
2019-08-25 09:55:32 GMT 47.038055 5.421204 34,000 317 482 0
2019-08-25 09:55:28 GMT 47.032059 5.429512 34,000 317 482 0
2019-08-25 09:55:24 GMT 47.020752 5.445168 34,000 317 482 0
2019-08-25 09:55:21 GMT 47.020752 5.445168 34,000 317 482 0
2019-08-25 09:55:17 GMT 47.004364 5.467690 34,000 317 482 0
2019-08-25 09:55:11 GMT 47.004364 5.467690 34,000 317 482 0
2019-08-25 09:55:07 GMT 46.998367 5.475929 34,000 317 482 0
2019-08-25 09:55:03 GMT 46.992016 5.484643 34,000 317 481 0
2019-08-25 09:55:00 GMT 46.986832 5.491791 34,000 317 482 0
2019-08-25 09:54:56 GMT 46.979729 5.501615 34,000 317 481 0
2019-08-25 09:54:52 GMT 46.974049 5.509432 34,000 317 481 0
2019-08-25 09:54:47 GMT 46.965408 5.521248 34,000 317 481 0
2019-08-25 09:54:44 GMT 46.961525 5.526616 34,000 317 481 0
2019-08-25 09:54:41 GMT 46.956173 5.533940 34,000 317 481 0
2019-08-25 09:54:38 GMT 46.946274 5.547546 34,000 317 482 0
2019-08-25 09:54:35 GMT 46.940598 5.555374 34,000 317 482 0
2019-08-25 09:54:32 GMT 46.940598 5.555374 34,000 317 482 0
2019-08-25 09:54:28 GMT 46.934921 5.563133 34,000 317 481 0
2019-08-25 09:54:25 GMT 46.930058 5.569857 34,000 317 481 0
2019-08-25 09:54:22 GMT 46.924210 5.577827 34,000 317 481 0
2019-08-25 09:54:19 GMT 46.918854 5.585243 34,000 317 482 0
2019-08-25 09:54:13 GMT 46.911392 5.595474 34,000 317 482 0
2019-08-25 09:54:08 GMT 46.902309 5.607957 34,000 317 481 0
2019-08-25 09:54:04 GMT 46.894730 5.618477 34,000 317 481 0
2019-08-25 09:53:57 GMT 46.885178 5.631620 34,000 317 482 0
2019-08-25 09:53:53 GMT 46.877731 5.641902 34,000 317 481 0
2019-08-25 09:53:47 GMT 46.867863 5.655494 34,000 317 482 0
2019-08-25 09:53:40 GMT 46.857010 5.670419 34,000 317 481 0
2019-08-25 09:53:37 GMT 46.850739 5.679128 34,000 316 482 0
2019-08-25 09:53:32 GMT 46.844212 5.688377 34,000 316 481 0
2019-08-25 09:53:29 GMT 46.837280 5.698488 34,000 315 481 0
2019-08-25 09:53:26 GMT 46.834900 5.701971 34,000 315 481 0
2019-08-25 09:53:21 GMT 46.823181 5.719657 34,000 314 481 0
2019-08-25 09:53:15 GMT 46.818329 5.727242 34,000 314 481 0
2019-08-25 09:53:11 GMT 46.811554 5.737945 34,000 313 480 0
2019-08-25 09:53:07 GMT 46.805946 5.747154 34,000 311 480 0
2019-08-25 09:53:01 GMT 46.797337 5.761505 34,000 311 481 0
2019-08-25 09:52:58 GMT 46.792328 5.770167 34,000 309 480 0
2019-08-25 09:52:54 GMT 46.787521 5.778675 34,000 309 480 0
2019-08-25 09:52:50 GMT 46.781845 5.788991 34,000 309 480 0
2019-08-25 09:52:47 GMT 46.777130 5.797566 34,000 309 479 0
2019-08-25 09:52:44 GMT 46.773148 5.804935 34,000 308 474 0
2019-08-25 09:52:40 GMT 46.767914 5.814583 34,000 309 480 0
2019-08-25 09:52:37 GMT 46.763763 5.822151 34,000 309 480 0
2019-08-25 09:52:33 GMT 46.757675 5.833271 34,000 309 480 0
2019-08-25 09:52:29 GMT 46.752739 5.842392 34,000 309 480 0
2019-08-25 09:52:26 GMT 46.748734 5.849739 34,000 309 480 0
2019-08-25 09:52:23 GMT 46.745289 5.855988 34,000 309 480 0
2019-08-25 09:52:20 GMT 46.739891 5.865875 34,000 309 480 0
2019-08-25 09:52:16 GMT 46.735046 5.874733 34,000 309 479 0
2019-08-25 09:52:11 GMT 46.728149 5.887332 34,000 309 479 0
2019-08-25 09:52:08 GMT 46.724014 5.894920 34,000 309 479 0
2019-08-25 09:52:05 GMT 46.718903 5.904214 34,000 309 479 0
2019-08-25 09:52:01 GMT 46.713402 5.914284 34,000 309 479 0
2019-08-25 09:51:58 GMT 46.709679 5.921082 34,000 309 479 0
2019-08-25 09:51:55 GMT 46.706360 5.927124 34,000 309 479 0
2019-08-25 09:51:51 GMT 46.700958 5.936972 34,000 309 479 0
2019-08-25 09:51:47 GMT 46.695053 5.947824 34,000 309 479 0
2019-08-25 09:51:41 GMT 46.685238 5.965714 34,000 309 479 0
2019-08-25 09:51:38 GMT 46.682465 5.970734 34,000 309 479 0
2019-08-25 09:51:35 GMT 46.677109 5.980515 34,000 309 479 0
2019-08-25 09:51:31 GMT 46.672947 5.988098 34,000 309 479 0
2019-08-25 09:51:27 GMT 46.663284 6.005703 34,000 309 479 0
2019-08-25 09:51:21 GMT 46.657928 6.015484 34,000 309 479 0
2019-08-25 09:51:17 GMT 46.652370 6.025520 34,000 309 479 0
2019-08-25 09:51:14 GMT 46.649765 6.030327 34,000 309 479 0
2019-08-25 09:51:10 GMT 46.643417 6.041878 34,000 309 478 0
2019-08-25 09:51:06 GMT 46.638290 6.051122 34,000 309 478 0
2019-08-25 09:51:03 GMT 46.633610 6.059715 34,000 309 478 0
2019-08-25 09:51:00 GMT 46.630829 6.064721 34,000 309 478 0
2019-08-25 09:50:57 GMT 46.625324 6.074753 34,000 309 478 0
2019-08-25 09:50:54 GMT 46.621170 6.082272 34,000 309 478 0
2019-08-25 09:50:50 GMT 46.615131 6.093292 34,000 309 478 0
2019-08-25 09:50:47 GMT 46.612335 6.098350 34,000 309 478 0
2019-08-25 09:50:44 GMT 46.606018 6.109872 34,000 309 478 0
2019-08-25 09:50:41 GMT 46.602840 6.115608 34,000 309 478 0
2019-08-25 09:50:37 GMT 46.598419 6.123672 34,000 309 478 0
2019-08-25 09:50:33 GMT 46.591110 6.136894 34,000 309 478 0
2019-08-25 09:50:30 GMT 46.584869 6.148155 34,000 309 478 0
2019-08-25 09:50:27 GMT 46.578918 6.158909 34,000 309 478 0
2019-08-25 09:50:24 GMT 46.578918 6.158909 34,000 309 478 0
2019-08-25 09:50:20 GMT 46.574211 6.167450 34,000 309 478 0
2019-08-25 09:50:17 GMT 46.570496 6.174182 34,000 309 478 0
2019-08-25 09:50:11 GMT 46.560699 6.191935 34,000 309 478 0
2019-08-25 09:50:07 GMT 46.555298 6.201648 34,000 309 478 0
2019-08-25 09:50:01 GMT 46.543999 6.222176 34,000 309 478 0
2019-08-25 09:49:58 GMT 46.543999 6.222176 34,000 309 478 0
2019-08-25 09:49:55 GMT 46.536667 6.235411 34,000 309 478 0
2019-08-25 09:49:52 GMT 46.536667 6.235411 34,000 309 478 0
2019-08-25 09:49:49 GMT 46.530441 6.246665 34,000 309 478 0
2019-08-25 09:49:46 GMT 46.527008 6.252895 34,000 309 478 0
2019-08-25 09:49:42 GMT 46.522705 6.260666 34,000 309 478 0
2019-08-25 09:49:38 GMT 46.515793 6.273126 34,000 309 478 0
2019-08-25 09:49:34 GMT 46.507233 6.288601 34,000 309 478 0
2019-08-25 09:49:28 GMT 46.503357 6.295578 34,000 309 478 0
2019-08-25 09:49:25 GMT 46.495193 6.310306 34,000 309 478 0
2019-08-25 09:49:18 GMT 46.488834 6.321739 34,000 309 478 0
2019-08-25 09:49:15 GMT 46.484116 6.330269 34,000 309 478 0
2019-08-25 09:49:12 GMT 46.480499 6.336708 34,000 309 478 0
2019-08-25 09:49:08 GMT 46.475510 6.345676 34,000 309 478 0
2019-08-25 09:49:04 GMT 46.465805 6.363161 34,000 309 478 0
2019-08-25 09:49:01 GMT 46.465805 6.363161 34,000 309 478 0
2019-08-25 09:48:58 GMT 46.460953 6.371869 34,000 309 479 0
2019-08-25 09:48:54 GMT 46.454712 6.383057 34,000 309 478 0
2019-08-25 09:48:51 GMT 46.450241 6.391028 34,000 309 482 1280
2019-08-25 09:48:47 GMT 46.445389 6.399737 34,000 309 478 0
2019-08-25 09:48:44 GMT 46.441772 6.406235 34,025 309 479 -64
2019-08-25 09:48:41 GMT 46.437057 6.414676 34,000 309 478 -64
2019-08-25 09:48:38 GMT 46.431931 6.423920 34,000 309 478 -64
2019-08-25 09:48:34 GMT 46.426361 6.433868 34,000 309 478 -64
2019-08-25 09:48:30 GMT 46.422077 6.441559 34,000 309 479 -64
2019-08-25 09:48:27 GMT 46.418030 6.448769 34,025 309 479 64
2019-08-25 09:48:24 GMT 46.413139 6.457489 34,000 309 480 128
2019-08-25 09:48:21 GMT 46.405643 6.471016 33,975 309 481 384
2019-08-25 09:48:18 GMT 46.405643 6.471016 34,000 309 481 256
2019-08-25 09:48:15 GMT 46.401596 6.478294 33,975 309 482 576
2019-08-25 09:48:12 GMT 46.395996 6.488298 33,950 309 482 768
2019-08-25 09:48:07 GMT 46.390980 6.497314 33,875 309 482 1152
2019-08-25 09:48:04 GMT 46.385925 6.506318 33,850 309 482 1216
2019-08-25 09:48:01 GMT 46.381851 6.513620 33,750 309 482 1344
2019-08-25 09:47:58 GMT 46.377666 6.521141 33,675 309 482 1344
2019-08-25 09:47:54 GMT 46.371475 6.532127 33,575 309 483 1344
2019-08-25 09:47:51 GMT 46.368122 6.538170 33,525 309 483 1344
2019-08-25 09:47:48 GMT 46.363358 6.546713 33,450 309 483 1280
2019-08-25 09:47:44 GMT 46.356628 6.558771 33,325 309 483 1280
2019-08-25 09:47:41 GMT 46.353832 6.563782 33,300 309 483 1280
2019-08-25 09:47:37 GMT 46.347500 6.575043 33,200 309 483 1280
2019-08-25 09:47:34 GMT 46.343811 6.581614 33,150 309 483 1216
2019-08-25 09:47:31 GMT 46.334698 6.597908 32,975 309 483 1216
2019-08-25 09:47:25 GMT 46.330170 6.605932 32,950 309 483 1216
2019-08-25 09:47:22 GMT 46.325821 6.613703 32,875 310 484 1216
2019-08-25 09:47:18 GMT 46.322296 6.620000 32,700 310 484 1216
2019-08-25 09:47:15 GMT 46.317520 6.628532 32,600 309 483 1344
2019-08-25 09:47:12 GMT 46.312729 6.637015 32,700 309 483 1216
2019-08-25 09:47:09 GMT 46.308105 6.645322 32,625 309 483 1216
2019-08-25 09:47:04 GMT 46.300808 6.658333 32,475 310 484 1536
2019-08-25 09:47:01 GMT 46.296715 6.665611 32,425 309 484 1792
2019-08-25 09:46:58 GMT 46.293915 6.670577 32,350 310 484 1792
2019-08-25 09:46:55 GMT 46.288288 6.680649 31,850 310 487 1664
2019-08-25 09:46:48 GMT 46.279678 6.695966 31,950 310 487 1664
2019-08-25 09:46:42 GMT 46.270889 6.711575 31,925 310 487 1792
2019-08-25 09:46:37 GMT 46.264080 6.723701 31,775 310 487 1600
2019-08-25 09:46:33 GMT 46.256561 6.737098 31,650 310 488 1152
2019-08-25 09:46:29 GMT 46.252583 6.744164 31,625 310 487 960
2019-08-25 09:46:26 GMT 46.243607 6.760075 31,525 310 487 960
2019-08-25 09:46:23 GMT 46.243607 6.760075 31,500 310 486 960
2019-08-25 09:46:20 GMT 46.239685 6.767097 31,400 310 485 960
2019-08-25 09:46:15 GMT 46.231445 6.781723 31,350 310 485 960
2019-08-25 09:46:11 GMT 46.227348 6.789001 31,300 310 484 960
2019-08-25 09:46:08 GMT 46.218040 6.805481 31,225 310 484 960
2019-08-25 09:46:05 GMT 46.218040 6.805481 31,125 310 484 1024
2019-08-25 09:46:02 GMT 46.214081 6.812485 31,150 310 483 1088
2019-08-25 09:45:59 GMT 46.209007 6.821480 30,950 310 481 1088
2019-08-25 09:45:56 GMT 46.204910 6.828690 31,050 310 481 1088
2019-08-25 09:45:53 GMT 46.201401 6.834970 30,950 310 481 1088
2019-08-25 09:45:50 GMT 46.197464 6.841942 30,850 310 481 1088
2019-08-25 09:45:47 GMT 46.192978 6.849909 30,900 310 480 1024
2019-08-25 09:45:44 GMT 46.189453 6.856072 30,825 310 481 1024
2019-08-25 09:45:41 GMT 46.182724 6.867996 30,750 310 480 1024
2019-08-25 09:45:38 GMT 46.180206 6.872484 28,950 310 468 1216
2019-08-25 09:45:33 GMT 46.173767 6.883896 30,675 310 479 960
2019-08-25 09:45:30 GMT 46.169720 6.891037 30,550 310 478 1088
2019-08-25 09:45:27 GMT 46.165108 6.899208 30,550 310 477 1216
2019-08-25 09:45:24 GMT 46.160248 6.907788 30,425 310 477 1216
2019-08-25 09:45:19 GMT 46.153519 6.919601 30,375 310 477 1216
2019-08-25 09:45:16 GMT 46.150177 6.925540 30,275 310 476 1280
2019-08-25 09:45:12 GMT 46.144730 6.935053 30,250 310 476 1280
2019-08-25 09:45:09 GMT 46.140018 6.943428 30,175 310 476 1280
2019-08-25 09:45:06 GMT 46.135689 6.951050 29,925 310 474 0
2019-08-25 09:45:03 GMT 46.131775 6.957896 30,000 310 475 1280
2019-08-25 09:45:00 GMT 46.126236 6.967677 29,950 310 475 1280
2019-08-25 09:44:57 GMT 46.122757 6.973773 29,925 310 474 1280
2019-08-25 09:44:54 GMT 46.119965 6.978663 29,775 310 473 1280
2019-08-25 09:44:51 GMT 46.114838 6.987707 29,800 310 473 1280
2019-08-25 09:44:47 GMT 46.109108 6.997673 29,725 310 473 1280
2019-08-25 09:44:44 GMT 46.098724 7.015909 29,500 310 472 1280
2019-08-25 09:44:39 GMT 46.098724 7.015909 29,550 310 473 1280
2019-08-25 09:44:36 GMT 46.090534 7.030220 29,400 310 472 1216
2019-08-25 09:44:33 GMT 46.084293 7.041069 29,375 310 471 1216
2019-08-25 09:44:30 GMT 46.084293 7.041069 29,325 310 471 1152
2019-08-25 09:44:27 GMT 46.082199 7.044708 29,300 310 471 1152
2019-08-25 09:44:23 GMT 46.076241 7.055077 29,200 310 470 1088
2019-08-25 09:44:20 GMT 46.071957 7.062561 29,175 310 469 1152
2019-08-25 09:44:17 GMT 46.068375 7.068831 29,150 310 469 1152
2019-08-25 09:44:14 GMT 46.062599 7.078903 29,025 310 468 1216
2019-08-25 09:44:10 GMT 46.053898 7.094009 28,925 310 468 1280
2019-08-25 09:44:04 GMT 46.050079 7.100670 28,800 310 466 1280
2019-08-25 09:43:58 GMT 46.041607 7.115570 28,725 309 466 1216
2019-08-25 09:43:55 GMT 46.038071 7.121820 28,675 309 465 1152
2019-08-25 09:43:51 GMT 46.032440 7.131869 28,525 310 464 1088
2019-08-25 09:43:48 GMT 46.028503 7.138836 28,500 311 463 1088
2019-08-25 09:43:45 GMT 46.023544 7.147293 28,500 311 463 1088
2019-08-25 09:43:39 GMT 46.014679 7.161880 28,350 312 462 1152
2019-08-25 09:43:35 GMT 46.008499 7.171594 28,250 314 460 1088
2019-08-25 09:43:30 GMT 46.002689 7.180527 28,175 314 459 1152
2019-08-25 09:43:27 GMT 45.997803 7.187737 28,100 315 458 1216
2019-08-25 09:43:24 GMT 45.993301 7.194236 28,100 315 458 1216
2019-08-25 09:43:19 GMT 45.986069 7.204422 27,875 318 457 1344
2019-08-25 09:43:16 GMT 45.980713 7.211788 27,850 317 457 1344
2019-08-25 09:43:13 GMT 45.968536 7.227664 27,675 319 456 1280
2019-08-25 09:43:08 GMT 45.968536 7.227664 27,700 320 455 1280
2019-08-25 09:43:05 GMT 45.964279 7.233023 27,625 320 454 1280
2019-08-25 09:43:02 GMT 45.958183 7.240471 27,575 321 454 1344
2019-08-25 09:42:58 GMT 45.951668 7.248093 27,475 322 452 1344
2019-08-25 09:42:54 GMT 45.946266 7.254272 27,400 322 453 1344
2019-08-25 09:42:50 GMT 45.939564 7.261963 27,350 322 452 1344
2019-08-25 09:42:46 GMT 45.934021 7.268327 27,125 322 451 1344
2019-08-25 09:42:43 GMT 45.928940 7.274088 27,150 322 451 1408
2019-08-25 09:42:40 GMT 45.917542 7.287084 27,000 322 449 1536
2019-08-25 09:42:36 GMT 45.917542 7.287084 26,950 322 449 1536
2019-08-25 09:42:33 GMT 45.912659 7.292656 26,900 322 449 1600
2019-08-25 09:42:29 GMT 45.897526 7.309822 26,550 322 446 1600
2019-08-25 09:42:24 GMT 45.897526 7.309822 26,625 322 448 1600
2019-08-25 09:42:21 GMT 45.891220 7.317029 26,550 322 448 1600
2019-08-25 09:42:16 GMT 45.882305 7.327194 26,400 322 446 1600
2019-08-25 09:42:13 GMT 45.880024 7.329735 26,375 322 446 1600
2019-08-25 09:42:09 GMT 45.874020 7.336601 26,275 322 446 1664
2019-08-25 09:42:05 GMT 45.866135 7.345566 26,125 322 446 1664
2019-08-25 09:42:02 GMT 45.862244 7.349987 25,900 322 446 1664
2019-08-25 09:41:58 GMT 45.851765 7.361938 25,775 322 445 1536
2019-08-25 09:41:55 GMT 45.845490 7.369080 25,850 322 445 1536
2019-08-25 09:41:52 GMT 45.845490 7.369080 25,800 322 444 1408
2019-08-25 09:41:48 GMT 45.837662 7.378056 25,675 322 443 1344
2019-08-25 09:41:45 GMT 45.834450 7.381714 25,500 322 440 1472
2019-08-25 09:41:42 GMT 45.829376 7.387569 25,575 322 441 1280
2019-08-25 09:41:39 GMT 45.825714 7.391789 25,300 322 439 1856
2019-08-25 09:41:36 GMT 45.820175 7.398220 25,425 322 439 1600
2019-08-25 09:41:31 GMT 45.812759 7.406795 25,300 322 438 1984
2019-08-25 09:41:27 GMT 45.806751 7.413712 25,000 322 438 2368
2019-08-25 09:41:23 GMT 45.798882 7.422775 24,850 321 440 2496
2019-08-25 09:41:17 GMT 45.789230 7.433993 24,700 320 440 2240
2019-08-25 09:41:13 GMT 45.784698 7.439352 24,600 320 440 2240
2019-08-25 09:41:10 GMT 45.779022 7.446386 24,525 319 439 1920
2019-08-25 09:41:07 GMT 45.775223 7.451209 24,400 318 439 1472
2019-08-25 09:41:03 GMT 45.767738 7.461021 24,275 317 439 1344
2019-08-25 09:40:59 GMT 45.762756 7.467888 24,200 316 438 1216
2019-08-25 09:40:54 GMT 45.756271 7.477335 24,150 307 430 1600
2019-08-25 09:40:51 GMT 45.751076 7.485397 24,025 312 433 1280
2019-08-25 09:40:47 GMT 45.747257 7.491646 23,875 307 430 1600
2019-08-25 09:40:44 GMT 45.743484 7.497963 23,875 307 430 1600
2019-08-25 09:40:38 GMT 45.735947 7.511634 23,750 300 426 1536
2019-08-25 09:40:32 GMT 45.728310 7.527145 23,600 299 420 2304
2019-08-25 09:40:28 GMT 45.723934 7.536964 23,450 300 426 1536
2019-08-25 09:40:22 GMT 45.718533 7.550079 23,175 300 427 1536
2019-08-25 09:40:17 GMT 45.713699 7.562412 23,100 299 424 1664
2019-08-25 09:40:11 GMT 45.707733 7.577820 22,725 299 420 1920
2019-08-25 09:40:08 GMT 45.704727 7.585658 22,875 299 421 1792
2019-08-25 09:40:00 GMT 45.697266 7.604951 22,650 299 420 1920
2019-08-25 09:39:57 GMT 45.694279 7.612701 22,425 299 420 2112
2019-08-25 09:39:52 GMT 45.689716 7.624649 22,375 299 420 2240
2019-08-25 09:39:49 GMT 45.686878 7.632202 22,250 299 419 2368
2019-08-25 09:39:45 GMT 45.683434 7.641197 22,100 299 419 2432
2019-08-25 09:39:41 GMT 45.679871 7.650370 21,950 299 419 2560
2019-08-25 09:39:36 GMT 45.675426 7.661797 21,750 300 421 2624
2019-08-25 09:39:33 GMT 45.671997 7.670467 21,575 300 420 2752
2019-08-25 09:39:29 GMT 45.668472 7.679443 21,400 300 421 2560
2019-08-25 09:39:24 GMT 45.663231 7.692696 21,175 300 416 1600
2019-08-25 09:39:21 GMT 45.660622 7.699219 21,075 300 421 2368
2019-08-25 09:39:15 GMT 45.655197 7.712670 20,875 300 416 1600
2019-08-25 09:39:05 GMT 45.644989 7.738126 20,375 300 416 1600
2019-08-25 09:39:00 GMT 45.641026 7.748177 20,450 300 415 1536
2019-08-25 09:38:54 GMT 45.634415 7.764793 20,275 300 411 1472
2019-08-25 09:38:49 GMT 45.629791 7.776311 20,150 300 410 1472
2019-08-25 09:38:43 GMT 45.624023 7.790512 20,000 301 405 1344
2019-08-25 09:38:38 GMT 45.619797 7.800911 19,925 301 403 1216
2019-08-25 09:38:32 GMT 45.613998 7.814830 19,725 301 399 1280
2019-08-25 09:38:26 GMT 45.608734 7.827491 19,675 301 395 1280
2019-08-25 09:38:19 GMT 45.602291 7.842865 19,525 302 391 1216
2019-08-25 09:38:10 GMT 45.593590 7.863258 19,325 302 386 1280
2019-08-25 09:37:59 GMT 45.582321 7.887978 19,075 305 378 1152
2019-08-25 09:37:48 GMT 45.571701 7.908749 18,800 309 371 1728
2019-08-25 09:37:40 GMT 45.563328 7.922928 18,625 314 367 2112
2019-08-25 09:37:37 GMT 45.559746 7.928421 18,475 315 366 2048
2019-08-25 09:37:34 GMT 45.554672 7.935545 18,475 315 366 2048
2019-08-25 09:37:26 GMT 45.544327 7.947889 18,050 325 364 2688
2019-08-25 09:37:15 GMT 45.529205 7.960198 17,625 337 362 1856
2019-08-25 09:37:07 GMT 45.517868 7.967181 17,425 338 361 1600
2019-08-25 09:37:04 GMT 45.513153 7.970189 17,375 334 355 1216
2019-08-25 09:36:56 GMT 45.501801 7.979344 17,200 323 350 1088
2019-08-25 09:36:53 GMT 45.497925 7.983577 17,150 320 349 1088
2019-08-25 09:36:45 GMT 45.488342 7.997589 16,950 304 343 1728
2019-08-25 09:36:34 GMT 45.479443 8.024374 16,625 279 337 1280
2019-08-25 09:36:22 GMT 45.478138 8.043466 16,450 267 333 1088
2019-08-25 09:36:14 GMT 45.480103 8.061284 16,225 253 329 1728
2019-08-25 09:36:11 GMT 45.481674 8.067850 16,150 247 329 1728
2019-08-25 09:36:01 GMT 45.489403 8.088282 15,825 238 324 2240
2019-08-25 09:35:50 GMT 45.497910 8.107649 15,375 239 323 2624
2019-08-25 09:35:43 GMT 45.503128 8.119616 15,075 239 323 2752
2019-08-25 09:35:39 GMT 45.507095 8.128677 14,850 238 324 2880
2019-08-25 09:35:29 GMT 45.513885 8.144073 14,275 238 326 2624
2019-08-25 09:35:19 GMT 45.522491 8.163430 13,900 238 320 2176
2019-08-25 09:35:06 GMT 45.533157 8.187496 13,525 238 320 2240
2019-08-25 09:34:57 GMT 45.540253 8.203256 13,150 239 313 2368
2019-08-25 09:34:47 GMT 45.547668 8.219917 12,625 239 314 2304
2019-08-25 09:34:41 GMT 45.551876 8.229652 12,625 239 314 2304
2019-08-25 09:34:34 GMT 45.557327 8.242493 12,350 240 311 2240
2019-08-25 09:34:26 GMT 45.563560 8.257668 12,000 241 309 2368
2019-08-25 09:34:13 GMT 45.572311 8.279228 11,650 240 305 1664
2019-08-25 09:34:03 GMT 45.579857 8.297218 11,350 240 294 1920
2019-08-25 09:33:58 GMT 45.583626 8.306282 11,150 239 294 2304
2019-08-25 09:33:52 GMT 45.589828 8.321340 10,650 239 293 2368
2019-08-25 09:33:48 GMT 45.589828 8.321340 10,775 239 294 2304
2019-08-25 09:33:43 GMT 45.593582 8.330316 10,525 239 293 2368
2019-08-25 09:33:40 GMT 45.595505 8.334738 10,475 239 293 2368
2019-08-25 09:33:29 GMT 45.603226 8.352493 10,075 239 293 2048
2019-08-25 09:33:24 GMT 45.607414 8.362038 9,875 238 291 1728
2019-08-25 09:33:21 GMT 45.609322 8.366432 9,700 238 289 1600
2019-08-25 09:33:17 GMT 45.617420 8.384354 9,675 238 289 1664
2019-08-25 09:33:10 GMT 45.624985 8.400053 9,425 237 284 1536
2019-08-25 09:32:59 GMT 45.624985 8.400053 9,200 234 281 2048
2019-08-25 09:32:50 GMT 45.632553 8.414223 8,725 231 279 2368
2019-08-25 09:32:37 GMT 45.643539 8.432831 8,350 230 278 1984
2019-08-25 09:32:28 GMT 45.650665 8.444869 7,900 231 276 2240
2019-08-25 09:32:23 GMT 45.655643 8.453499 7,800 231 276 1984
2019-08-25 09:32:15 GMT 45.661377 8.463492 7,575 230 272 2176
2019-08-25 09:32:06 GMT 45.668674 8.475883 7,250 230 272 2240
2019-08-25 09:31:56 GMT 45.676712 8.488948 6,925 227 269 1664
2019-08-25 09:31:45 GMT 45.686226 8.503281 6,625 226 262 1216
2019-08-25 09:31:38 GMT 45.692093 8.511725 6,425 225 258 2496
2019-08-25 09:31:33 GMT 45.696030 8.517218 5,850 225 258 3008
2019-08-25 09:31:27 GMT 45.701172 8.524361 5,975 225 258 3008
2019-08-25 09:31:22 GMT 45.706833 8.532224 5,650 225 260 2816
2019-08-25 09:31:17 GMT 45.710434 8.537270 5,475 226 261 2176
2019-08-25 09:31:12 GMT 45.714622 8.543518 5,300 229 260 1920
2019-08-25 09:31:02 GMT 45.721512 8.556702 5,075 240 254 1344
2019-08-25 09:30:46 GMT 45.725464 8.583471 4,625 256 250 1728
2019-08-25 09:30:42 GMT 45.724819 8.588219 4,575 296 238 832
2019-08-25 09:30:31 GMT 45.719604 8.603836 4,425 312 219 256
2019-08-25 09:30:19 GMT 45.712051 8.616899 4,375 312 211 576
2019-08-25 09:30:10 GMT 45.706245 8.626190 4,125 313 202 1024
2019-08-25 09:29:57 GMT 45.698189 8.638824 4,025 312 192 1280
2019-08-25 09:29:50 GMT 45.693420 8.646575 3,800 311 191 1792
2019-08-25 09:29:45 GMT 45.690994 8.650729 3,650 311 190 1792
2019-08-25 09:29:40 GMT 45.685806 8.659286 3,400 311 190 1728
2019-08-25 09:29:36 GMT 45.685806 8.659286 3,400 311 190 1728
2019-08-25 09:29:30 GMT 45.682159 8.665466 3,200 310 190 1728
2019-08-25 09:29:24 GMT 45.678726 8.671495 3,100 309 189 1856
2019-08-25 09:29:17 GMT 45.675018 8.678127 2,825 309 189 1152
2019-08-25 09:29:06 GMT 45.669514 8.688194 2,650 306 180 1408
2019-08-25 09:28:55 GMT 45.664440 8.698631 2,225 304 185 2880

Making use of Plane Finder data

You are free to use the raw flight data, aircraft information and images provided in this report for your own purposes provided the data is correctly attributed to Plane Finder. We ask that you please credit Plane Finder and link to planefinder.net in close proximity to the content.

Optionally one of the following logos (no smaller then 150x24px) can be used and must link to planefinder.net

Embedding the Plane Finder map

You are welcome to embed the Plane Finder playback map on your website to offer visitors a more interactive experience. We suggest using the following HTML code:

<iframe src="//planefinder.net/data/report/AA199-N754AN-7700-squawk-2019-08-25/map" width="800" height="600" seamless="seamless"></iframe>

Where our data comes from

Plane Finder has a global network of data feeds and antenna radars that receive data broadcast directly from aircraft. The primary technologies used are ADS-B and MLAT. We also show feeds from the FAA and a FLARM glider feed.

Click here to find out more about the Plane Finder network.

How we collect our data